<?xml version="1.0" encoding="UTF-8" standalone="no" ?>
<gpx xmlns="http://www.topografix.com/GPX/1/1" xmlns:xsi="http://www.w3.org/2001/XMLSchema-instance" xsi:schemaLocation="http://www.topografix.com/GPX/1/1 http://www.topografix.com/GPX/1/1/gpx.xsd" version="1.1" creator="VisuGPX - https://www.visugpx.com">
  <metadata>
    <name>Sortie VTT du 26 juin 2010</name>
    <desc><![CDATA[Boucle de 30 km au départ de Saverne]]></desc>
  </metadata>
  <trk>
    <name><![CDATA[ADi2010/06/26_13:45]]></name>
    <trkseg>
      <trkpt lat="48.73142" lon="7.35235">
        <ele>240.596802</ele>
        <time>2010-06-26T11:55:30Z</time>
      </trkpt>
      <trkpt lat="48.73151" lon="7.35218">
        <ele>248.491333</ele>
        <time>2010-06-26T12:25:40Z</time>
      </trkpt>
      <trkpt lat="48.73158" lon="7.35197">
        <ele>249.936646</ele>
        <time>2010-06-26T12:25:50Z</time>
      </trkpt>
      <trkpt lat="48.73164" lon="7.35175">
        <ele>251.057739</ele>
        <time>2010-06-26T12:25:56Z</time>
      </trkpt>
      <trkpt lat="48.73171" lon="7.35153">
        <ele>252.288208</ele>
        <time>2010-06-26T12:26:01Z</time>
      </trkpt>
      <trkpt lat="48.73181" lon="7.35135">
        <ele>253.713989</ele>
        <time>2010-06-26T12:26:06Z</time>
      </trkpt>
      <trkpt lat="48.73195" lon="7.35126">
        <ele>254.846802</ele>
        <time>2010-06-26T12:26:12Z</time>
      </trkpt>
      <trkpt lat="48.73209" lon="7.35133">
        <ele>254.276489</ele>
        <time>2010-06-26T12:26:18Z</time>
      </trkpt>
      <trkpt lat="48.73223" lon="7.35126">
        <ele>253.991333</ele>
        <time>2010-06-26T12:26:25Z</time>
      </trkpt>
      <trkpt lat="48.73227" lon="7.35104">
        <ele>254.952271</ele>
        <time>2010-06-26T12:26:30Z</time>
      </trkpt>
      <trkpt lat="48.7323" lon="7.35081">
        <ele>254.991333</ele>
        <time>2010-06-26T12:26:35Z</time>
      </trkpt>
      <trkpt lat="48.73238" lon="7.3506">
        <ele>256.334229</ele>
        <time>2010-06-26T12:26:40Z</time>
      </trkpt>
      <trkpt lat="48.73246" lon="7.35042">
        <ele>260.482666</ele>
        <time>2010-06-26T12:26:45Z</time>
      </trkpt>
      <trkpt lat="48.73252" lon="7.35022">
        <ele>262.732666</ele>
        <time>2010-06-26T12:26:51Z</time>
      </trkpt>
      <trkpt lat="48.73258" lon="7.35001">
        <ele>262.818604</ele>
        <time>2010-06-26T12:26:57Z</time>
      </trkpt>
      <trkpt lat="48.73264" lon="7.34982">
        <ele>265.334229</ele>
        <time>2010-06-26T12:27:04Z</time>
      </trkpt>
      <trkpt lat="48.73272" lon="7.34964">
        <ele>266.951416</ele>
        <time>2010-06-26T12:27:11Z</time>
      </trkpt>
      <trkpt lat="48.73276" lon="7.34945">
        <ele>268.537354</ele>
        <time>2010-06-26T12:27:18Z</time>
      </trkpt>
      <trkpt lat="48.73288" lon="7.3493">
        <ele>270.006104</ele>
        <time>2010-06-26T12:27:25Z</time>
      </trkpt>
      <trkpt lat="48.733" lon="7.34916">
        <ele>272.365479</ele>
        <time>2010-06-26T12:27:31Z</time>
      </trkpt>
      <trkpt lat="48.73311" lon="7.34903">
        <ele>272.724854</ele>
        <time>2010-06-26T12:27:37Z</time>
      </trkpt>
      <trkpt lat="48.73319" lon="7.34887">
        <ele>274.545166</ele>
        <time>2010-06-26T12:27:43Z</time>
      </trkpt>
      <trkpt lat="48.73327" lon="7.34871">
        <ele>277.888916</ele>
        <time>2010-06-26T12:27:49Z</time>
      </trkpt>
      <trkpt lat="48.73336" lon="7.34855">
        <ele>281.701416</ele>
        <time>2010-06-26T12:27:57Z</time>
      </trkpt>
      <trkpt lat="48.73343" lon="7.34836">
        <ele>284.904541</ele>
        <time>2010-06-26T12:28:04Z</time>
      </trkpt>
      <trkpt lat="48.73348" lon="7.34816">
        <ele>288.115479</ele>
        <time>2010-06-26T12:28:11Z</time>
      </trkpt>
      <trkpt lat="48.7336" lon="7.3481">
        <ele>281.677979</ele>
        <time>2010-06-26T12:30:34Z</time>
      </trkpt>
      <trkpt lat="48.73369" lon="7.34793">
        <ele>281.818604</ele>
        <time>2010-06-26T12:31:24Z</time>
      </trkpt>
      <trkpt lat="48.73362" lon="7.34773">
        <ele>282.170166</ele>
        <time>2010-06-26T12:31:35Z</time>
      </trkpt>
      <trkpt lat="48.73352" lon="7.34758">
        <ele>281.201416</ele>
        <time>2010-06-26T12:31:45Z</time>
      </trkpt>
      <trkpt lat="48.73342" lon="7.34743">
        <ele>280.842041</ele>
        <time>2010-06-26T12:31:55Z</time>
      </trkpt>
      <trkpt lat="48.73332" lon="7.34726">
        <ele>281.162354</ele>
        <time>2010-06-26T12:32:04Z</time>
      </trkpt>
      <trkpt lat="48.73323" lon="7.3471">
        <ele>284.717041</ele>
        <time>2010-06-26T12:32:12Z</time>
      </trkpt>
      <trkpt lat="48.73314" lon="7.34693">
        <ele>286.052979</ele>
        <time>2010-06-26T12:32:18Z</time>
      </trkpt>
      <trkpt lat="48.73304" lon="7.34677">
        <ele>286.474854</ele>
        <time>2010-06-26T12:32:24Z</time>
      </trkpt>
      <trkpt lat="48.73295" lon="7.34662">
        <ele>285.967041</ele>
        <time>2010-06-26T12:32:30Z</time>
      </trkpt>
      <trkpt lat="48.73284" lon="7.34646">
        <ele>286.724854</ele>
        <time>2010-06-26T12:32:36Z</time>
      </trkpt>
      <trkpt lat="48.73275" lon="7.3463">
        <ele>288.302979</ele>
        <time>2010-06-26T12:32:42Z</time>
      </trkpt>
      <trkpt lat="48.73268" lon="7.34611">
        <ele>294.006104</ele>
        <time>2010-06-26T12:32:49Z</time>
      </trkpt>
      <trkpt lat="48.73259" lon="7.34594">
        <ele>294.349854</ele>
        <time>2010-06-26T12:32:55Z</time>
      </trkpt>
      <trkpt lat="48.73248" lon="7.34576">
        <ele>294.537354</ele>
        <time>2010-06-26T12:33:02Z</time>
      </trkpt>
      <trkpt lat="48.73238" lon="7.34559">
        <ele>293.224854</ele>
        <time>2010-06-26T12:33:08Z</time>
      </trkpt>
      <trkpt lat="48.73225" lon="7.34543">
        <ele>291.177979</ele>
        <time>2010-06-26T12:33:14Z</time>
      </trkpt>
      <trkpt lat="48.73217" lon="7.34525">
        <ele>294.295166</ele>
        <time>2010-06-26T12:33:20Z</time>
      </trkpt>
      <trkpt lat="48.73206" lon="7.34507">
        <ele>294.498291</ele>
        <time>2010-06-26T12:33:26Z</time>
      </trkpt>
      <trkpt lat="48.73195" lon="7.3449">
        <ele>296.373291</ele>
        <time>2010-06-26T12:33:32Z</time>
      </trkpt>
      <trkpt lat="48.73184" lon="7.34473">
        <ele>298.576416</ele>
        <time>2010-06-26T12:33:38Z</time>
      </trkpt>
      <trkpt lat="48.73172" lon="7.34457">
        <ele>300.302979</ele>
        <time>2010-06-26T12:33:44Z</time>
      </trkpt>
      <trkpt lat="48.7316" lon="7.34443">
        <ele>300.888916</ele>
        <time>2010-06-26T12:33:50Z</time>
      </trkpt>
      <trkpt lat="48.73149" lon="7.34429">
        <ele>301.990479</ele>
        <time>2010-06-26T12:33:55Z</time>
      </trkpt>
      <trkpt lat="48.73137" lon="7.34413">
        <ele>302.920166</ele>
        <time>2010-06-26T12:34:01Z</time>
      </trkpt>
      <trkpt lat="48.73126" lon="7.34399">
        <ele>303.076416</ele>
        <time>2010-06-26T12:34:07Z</time>
      </trkpt>
      <trkpt lat="48.73114" lon="7.34387">
        <ele>302.826416</ele>
        <time>2010-06-26T12:34:13Z</time>
      </trkpt>
      <trkpt lat="48.73102" lon="7.34376">
        <ele>302.967041</ele>
        <time>2010-06-26T12:34:19Z</time>
      </trkpt>
      <trkpt lat="48.73089" lon="7.34364">
        <ele>304.115479</ele>
        <time>2010-06-26T12:34:25Z</time>
      </trkpt>
      <trkpt lat="48.73076" lon="7.34351">
        <ele>306.373291</ele>
        <time>2010-06-26T12:34:31Z</time>
      </trkpt>
      <trkpt lat="48.73063" lon="7.34342">
        <ele>304.435791</ele>
        <time>2010-06-26T12:34:36Z</time>
      </trkpt>
      <trkpt lat="48.73049" lon="7.3433">
        <ele>306.029541</ele>
        <time>2010-06-26T12:34:42Z</time>
      </trkpt>
      <trkpt lat="48.73038" lon="7.34319">
        <ele>307.967041</ele>
        <time>2010-06-26T12:34:47Z</time>
      </trkpt>
      <trkpt lat="48.73026" lon="7.34308">
        <ele>310.467041</ele>
        <time>2010-06-26T12:34:52Z</time>
      </trkpt>
      <trkpt lat="48.73012" lon="7.34296">
        <ele>310.748291</ele>
        <time>2010-06-26T12:34:58Z</time>
      </trkpt>
      <trkpt lat="48.73" lon="7.34286">
        <ele>309.943604</ele>
        <time>2010-06-26T12:35:03Z</time>
      </trkpt>
      <trkpt lat="48.72989" lon="7.34274">
        <ele>312.646729</ele>
        <time>2010-06-26T12:35:08Z</time>
      </trkpt>
      <trkpt lat="48.72977" lon="7.3426">
        <ele>314.912354</ele>
        <time>2010-06-26T12:35:14Z</time>
      </trkpt>
      <trkpt lat="48.72966" lon="7.34245">
        <ele>315.240479</ele>
        <time>2010-06-26T12:35:19Z</time>
      </trkpt>
      <trkpt lat="48.72956" lon="7.34231">
        <ele>316.506104</ele>
        <time>2010-06-26T12:35:24Z</time>
      </trkpt>
      <trkpt lat="48.72945" lon="7.34215">
        <ele>316.599854</ele>
        <time>2010-06-26T12:35:29Z</time>
      </trkpt>
      <trkpt lat="48.72934" lon="7.34199">
        <ele>317.451416</ele>
        <time>2010-06-26T12:35:34Z</time>
      </trkpt>
      <trkpt lat="48.72925" lon="7.34184">
        <ele>318.912354</ele>
        <time>2010-06-26T12:35:39Z</time>
      </trkpt>
      <trkpt lat="48.72916" lon="7.34169">
        <ele>319.568604</ele>
        <time>2010-06-26T12:35:44Z</time>
      </trkpt>
      <trkpt lat="48.72907" lon="7.34153">
        <ele>320.131104</ele>
        <time>2010-06-26T12:35:49Z</time>
      </trkpt>
      <trkpt lat="48.72897" lon="7.34133">
        <ele>321.506104</ele>
        <time>2010-06-26T12:35:55Z</time>
      </trkpt>
      <trkpt lat="48.72889" lon="7.34117">
        <ele>322.467041</ele>
        <time>2010-06-26T12:36:00Z</time>
      </trkpt>
      <trkpt lat="48.7288" lon="7.34101">
        <ele>323.490479</ele>
        <time>2010-06-26T12:36:05Z</time>
      </trkpt>
      <trkpt lat="48.72872" lon="7.34081">
        <ele>325.240479</ele>
        <time>2010-06-26T12:36:11Z</time>
      </trkpt>
      <trkpt lat="48.72864" lon="7.3406">
        <ele>328.045166</ele>
        <time>2010-06-26T12:36:17Z</time>
      </trkpt>
      <trkpt lat="48.72858" lon="7.34041">
        <ele>328.623291</ele>
        <time>2010-06-26T12:36:22Z</time>
      </trkpt>
      <trkpt lat="48.72851" lon="7.34021">
        <ele>329.498291</ele>
        <time>2010-06-26T12:36:27Z</time>
      </trkpt>
      <trkpt lat="48.72843" lon="7.34001">
        <ele>330.646729</ele>
        <time>2010-06-26T12:36:32Z</time>
      </trkpt>
      <trkpt lat="48.72836" lon="7.33981">
        <ele>331.724854</ele>
        <time>2010-06-26T12:36:37Z</time>
      </trkpt>
      <trkpt lat="48.72829" lon="7.33961">
        <ele>332.662354</ele>
        <time>2010-06-26T12:36:42Z</time>
      </trkpt>
      <trkpt lat="48.72821" lon="7.33942">
        <ele>333.209229</ele>
        <time>2010-06-26T12:36:47Z</time>
      </trkpt>
      <trkpt lat="48.72815" lon="7.33924">
        <ele>334.021729</ele>
        <time>2010-06-26T12:36:52Z</time>
      </trkpt>
      <trkpt lat="48.72808" lon="7.33905">
        <ele>334.584229</ele>
        <time>2010-06-26T12:36:57Z</time>
      </trkpt>
      <trkpt lat="48.72801" lon="7.33886">
        <ele>336.224854</ele>
        <time>2010-06-26T12:37:02Z</time>
      </trkpt>
      <trkpt lat="48.72792" lon="7.33867">
        <ele>336.756104</ele>
        <time>2010-06-26T12:37:07Z</time>
      </trkpt>
      <trkpt lat="48.72785" lon="7.33849">
        <ele>337.459229</ele>
        <time>2010-06-26T12:37:12Z</time>
      </trkpt>
      <trkpt lat="48.72776" lon="7.33832">
        <ele>338.623291</ele>
        <time>2010-06-26T12:37:17Z</time>
      </trkpt>
      <trkpt lat="48.72767" lon="7.33816">
        <ele>339.154541</ele>
        <time>2010-06-26T12:37:22Z</time>
      </trkpt>
      <trkpt lat="48.72758" lon="7.338">
        <ele>340.459229</ele>
        <time>2010-06-26T12:37:27Z</time>
      </trkpt>
      <trkpt lat="48.72747" lon="7.33784">
        <ele>341.404541</ele>
        <time>2010-06-26T12:37:32Z</time>
      </trkpt>
      <trkpt lat="48.72737" lon="7.3377">
        <ele>341.951416</ele>
        <time>2010-06-26T12:37:37Z</time>
      </trkpt>
      <trkpt lat="48.72727" lon="7.33756">
        <ele>342.373291</ele>
        <time>2010-06-26T12:37:42Z</time>
      </trkpt>
      <trkpt lat="48.72715" lon="7.3374">
        <ele>342.701416</ele>
        <time>2010-06-26T12:37:48Z</time>
      </trkpt>
      <trkpt lat="48.72705" lon="7.33727">
        <ele>343.420166</ele>
        <time>2010-06-26T12:37:53Z</time>
      </trkpt>
      <trkpt lat="48.72694" lon="7.33713">
        <ele>344.326416</ele>
        <time>2010-06-26T12:37:58Z</time>
      </trkpt>
      <trkpt lat="48.72682" lon="7.337">
        <ele>345.131104</ele>
        <time>2010-06-26T12:38:03Z</time>
      </trkpt>
      <trkpt lat="48.72671" lon="7.33686">
        <ele>346.115479</ele>
        <time>2010-06-26T12:38:08Z</time>
      </trkpt>
      <trkpt lat="48.7266" lon="7.33673">
        <ele>346.842041</ele>
        <time>2010-06-26T12:38:13Z</time>
      </trkpt>
      <trkpt lat="48.72648" lon="7.33661">
        <ele>347.881104</ele>
        <time>2010-06-26T12:38:18Z</time>
      </trkpt>
      <trkpt lat="48.72635" lon="7.3365">
        <ele>348.943604</ele>
        <time>2010-06-26T12:38:23Z</time>
      </trkpt>
      <trkpt lat="48.72621" lon="7.33638">
        <ele>349.646729</ele>
        <time>2010-06-26T12:38:28Z</time>
      </trkpt>
      <trkpt lat="48.72609" lon="7.33627">
        <ele>350.209229</ele>
        <time>2010-06-26T12:38:33Z</time>
      </trkpt>
      <trkpt lat="48.72596" lon="7.33616">
        <ele>350.834229</ele>
        <time>2010-06-26T12:38:38Z</time>
      </trkpt>
      <trkpt lat="48.72583" lon="7.33606">
        <ele>350.521729</ele>
        <time>2010-06-26T12:38:43Z</time>
      </trkpt>
      <trkpt lat="48.7257" lon="7.33597">
        <ele>350.615479</ele>
        <time>2010-06-26T12:38:48Z</time>
      </trkpt>
      <trkpt lat="48.72557" lon="7.3359">
        <ele>349.709229</ele>
        <time>2010-06-26T12:38:53Z</time>
      </trkpt>
      <trkpt lat="48.72544" lon="7.33581">
        <ele>349.084229</ele>
        <time>2010-06-26T12:38:58Z</time>
      </trkpt>
      <trkpt lat="48.72531" lon="7.33573">
        <ele>349.529541</ele>
        <time>2010-06-26T12:39:04Z</time>
      </trkpt>
      <trkpt lat="48.72517" lon="7.33565">
        <ele>350.513916</ele>
        <time>2010-06-26T12:39:10Z</time>
      </trkpt>
      <trkpt lat="48.72503" lon="7.33558">
        <ele>351.201416</ele>
        <time>2010-06-26T12:39:16Z</time>
      </trkpt>
      <trkpt lat="48.72488" lon="7.33551">
        <ele>351.631104</ele>
        <time>2010-06-26T12:39:22Z</time>
      </trkpt>
      <trkpt lat="48.72474" lon="7.33544">
        <ele>352.506104</ele>
        <time>2010-06-26T12:39:28Z</time>
      </trkpt>
      <trkpt lat="48.72459" lon="7.33536">
        <ele>353.318604</ele>
        <time>2010-06-26T12:39:34Z</time>
      </trkpt>
      <trkpt lat="48.72446" lon="7.33527">
        <ele>353.529541</ele>
        <time>2010-06-26T12:39:39Z</time>
      </trkpt>
      <trkpt lat="48.72432" lon="7.3352">
        <ele>352.771729</ele>
        <time>2010-06-26T12:39:44Z</time>
      </trkpt>
      <trkpt lat="48.72419" lon="7.3351">
        <ele>353.521729</ele>
        <time>2010-06-26T12:39:49Z</time>
      </trkpt>
      <trkpt lat="48.72405" lon="7.33501">
        <ele>355.506104</ele>
        <time>2010-06-26T12:39:55Z</time>
      </trkpt>
      <trkpt lat="48.72393" lon="7.33492">
        <ele>357.670166</ele>
        <time>2010-06-26T12:40:01Z</time>
      </trkpt>
      <trkpt lat="48.72378" lon="7.33482">
        <ele>355.279541</ele>
        <time>2010-06-26T12:40:07Z</time>
      </trkpt>
      <trkpt lat="48.72364" lon="7.33472">
        <ele>354.177979</ele>
        <time>2010-06-26T12:40:13Z</time>
      </trkpt>
      <trkpt lat="48.72352" lon="7.33462">
        <ele>354.974854</ele>
        <time>2010-06-26T12:40:19Z</time>
      </trkpt>
      <trkpt lat="48.72337" lon="7.33451">
        <ele>354.865479</ele>
        <time>2010-06-26T12:40:24Z</time>
      </trkpt>
      <trkpt lat="48.72324" lon="7.3344">
        <ele>355.045166</ele>
        <time>2010-06-26T12:40:29Z</time>
      </trkpt>
      <trkpt lat="48.72312" lon="7.3343">
        <ele>357.342041</ele>
        <time>2010-06-26T12:40:34Z</time>
      </trkpt>
      <trkpt lat="48.72299" lon="7.33422">
        <ele>356.724854</ele>
        <time>2010-06-26T12:40:39Z</time>
      </trkpt>
      <trkpt lat="48.72284" lon="7.33416">
        <ele>354.959229</ele>
        <time>2010-06-26T12:40:44Z</time>
      </trkpt>
      <trkpt lat="48.72269" lon="7.33412">
        <ele>351.318604</ele>
        <time>2010-06-26T12:40:49Z</time>
      </trkpt>
      <trkpt lat="48.72255" lon="7.33408">
        <ele>350.326416</ele>
        <time>2010-06-26T12:40:54Z</time>
      </trkpt>
      <trkpt lat="48.7224" lon="7.33405">
        <ele>347.467041</ele>
        <time>2010-06-26T12:40:59Z</time>
      </trkpt>
      <trkpt lat="48.72226" lon="7.33402">
        <ele>346.467041</ele>
        <time>2010-06-26T12:41:04Z</time>
      </trkpt>
      <trkpt lat="48.72212" lon="7.334">
        <ele>345.060791</ele>
        <time>2010-06-26T12:41:09Z</time>
      </trkpt>
      <trkpt lat="48.72196" lon="7.33397">
        <ele>345.279541</ele>
        <time>2010-06-26T12:41:15Z</time>
      </trkpt>
      <trkpt lat="48.72182" lon="7.33396">
        <ele>344.545166</ele>
        <time>2010-06-26T12:41:20Z</time>
      </trkpt>
      <trkpt lat="48.72168" lon="7.3339">
        <ele>349.404541</ele>
        <time>2010-06-26T12:41:26Z</time>
      </trkpt>
      <trkpt lat="48.72153" lon="7.33381">
        <ele>351.029541</ele>
        <time>2010-06-26T12:41:32Z</time>
      </trkpt>
      <trkpt lat="48.72139" lon="7.33372">
        <ele>354.435791</ele>
        <time>2010-06-26T12:41:38Z</time>
      </trkpt>
      <trkpt lat="48.72128" lon="7.33362">
        <ele>355.373291</ele>
        <time>2010-06-26T12:41:44Z</time>
      </trkpt>
      <trkpt lat="48.72115" lon="7.33353">
        <ele>350.920166</ele>
        <time>2010-06-26T12:41:49Z</time>
      </trkpt>
      <trkpt lat="48.72104" lon="7.33339">
        <ele>356.310791</ele>
        <time>2010-06-26T12:41:54Z</time>
      </trkpt>
      <trkpt lat="48.72094" lon="7.33323">
        <ele>360.146729</ele>
        <time>2010-06-26T12:42:00Z</time>
      </trkpt>
      <trkpt lat="48.72084" lon="7.3331">
        <ele>363.279541</ele>
        <time>2010-06-26T12:42:06Z</time>
      </trkpt>
      <trkpt lat="48.72075" lon="7.33295">
        <ele>366.740479</ele>
        <time>2010-06-26T12:42:12Z</time>
      </trkpt>
      <trkpt lat="48.72066" lon="7.33279">
        <ele>368.873291</ele>
        <time>2010-06-26T12:42:18Z</time>
      </trkpt>
      <trkpt lat="48.72058" lon="7.33264">
        <ele>372.959229</ele>
        <time>2010-06-26T12:44:25Z</time>
      </trkpt>
      <trkpt lat="48.72055" lon="7.33243">
        <ele>374.498291</ele>
        <time>2010-06-26T12:44:41Z</time>
      </trkpt>
      <trkpt lat="48.72055" lon="7.33219">
        <ele>373.646729</ele>
        <time>2010-06-26T12:44:46Z</time>
      </trkpt>
      <trkpt lat="48.72057" lon="7.33196">
        <ele>372.412354</ele>
        <time>2010-06-26T12:44:50Z</time>
      </trkpt>
      <trkpt lat="48.72059" lon="7.33171">
        <ele>371.545166</ele>
        <time>2010-06-26T12:44:54Z</time>
      </trkpt>
      <trkpt lat="48.72062" lon="7.33148">
        <ele>371.209229</ele>
        <time>2010-06-26T12:44:58Z</time>
      </trkpt>
      <trkpt lat="48.72063" lon="7.33126">
        <ele>371.967041</ele>
        <time>2010-06-26T12:45:02Z</time>
      </trkpt>
      <trkpt lat="48.72067" lon="7.33107">
        <ele>370.631104</ele>
        <time>2010-06-26T12:45:07Z</time>
      </trkpt>
      <trkpt lat="48.72071" lon="7.33084">
        <ele>366.467041</ele>
        <time>2010-06-26T12:45:12Z</time>
      </trkpt>
      <trkpt lat="48.72075" lon="7.33064">
        <ele>363.756104</ele>
        <time>2010-06-26T12:45:15Z</time>
      </trkpt>
      <trkpt lat="48.72078" lon="7.3304">
        <ele>361.818604</ele>
        <time>2010-06-26T12:45:18Z</time>
      </trkpt>
      <trkpt lat="48.72084" lon="7.33014">
        <ele>360.685791</ele>
        <time>2010-06-26T12:45:21Z</time>
      </trkpt>
      <trkpt lat="48.72088" lon="7.32988">
        <ele>358.013916</ele>
        <time>2010-06-26T12:45:25Z</time>
      </trkpt>
      <trkpt lat="48.72092" lon="7.32967">
        <ele>356.099854</ele>
        <time>2010-06-26T12:45:29Z</time>
      </trkpt>
      <trkpt lat="48.72096" lon="7.32945">
        <ele>355.240479</ele>
        <time>2010-06-26T12:45:33Z</time>
      </trkpt>
      <trkpt lat="48.72101" lon="7.32921">
        <ele>354.967041</ele>
        <time>2010-06-26T12:45:37Z</time>
      </trkpt>
      <trkpt lat="48.72105" lon="7.32899">
        <ele>351.584229</ele>
        <time>2010-06-26T12:45:41Z</time>
      </trkpt>
      <trkpt lat="48.72107" lon="7.32878">
        <ele>349.170166</ele>
        <time>2010-06-26T12:45:46Z</time>
      </trkpt>
      <trkpt lat="48.72105" lon="7.32858">
        <ele>348.795166</ele>
        <time>2010-06-26T12:45:50Z</time>
      </trkpt>
      <trkpt lat="48.72105" lon="7.32838">
        <ele>347.748291</ele>
        <time>2010-06-26T12:45:53Z</time>
      </trkpt>
      <trkpt lat="48.72102" lon="7.32818">
        <ele>343.662354</ele>
        <time>2010-06-26T12:45:56Z</time>
      </trkpt>
      <trkpt lat="48.72099" lon="7.32797">
        <ele>340.052979</ele>
        <time>2010-06-26T12:45:59Z</time>
      </trkpt>
      <trkpt lat="48.72092" lon="7.3278">
        <ele>338.256104</ele>
        <time>2010-06-26T12:46:04Z</time>
      </trkpt>
      <trkpt lat="48.72084" lon="7.32758">
        <ele>338.888916</ele>
        <time>2010-06-26T12:46:10Z</time>
      </trkpt>
      <trkpt lat="48.72092" lon="7.32775">
        <ele>340.818604</ele>
        <time>2010-06-26T12:48:24Z</time>
      </trkpt>
      <trkpt lat="48.72102" lon="7.32788">
        <ele>343.115479</ele>
        <time>2010-06-26T12:48:35Z</time>
      </trkpt>
      <trkpt lat="48.72098" lon="7.32808">
        <ele>341.795166</ele>
        <time>2010-06-26T12:48:56Z</time>
      </trkpt>
      <trkpt lat="48.72097" lon="7.32829">
        <ele>342.920166</ele>
        <time>2010-06-26T12:49:11Z</time>
      </trkpt>
      <trkpt lat="48.72092" lon="7.32849">
        <ele>342.029541</ele>
        <time>2010-06-26T12:49:27Z</time>
      </trkpt>
      <trkpt lat="48.72093" lon="7.3287">
        <ele>339.974854</ele>
        <time>2010-06-26T12:49:35Z</time>
      </trkpt>
      <trkpt lat="48.72098" lon="7.3289">
        <ele>340.904541</ele>
        <time>2010-06-26T12:49:44Z</time>
      </trkpt>
      <trkpt lat="48.72095" lon="7.32911">
        <ele>341.162354</ele>
        <time>2010-06-26T12:49:53Z</time>
      </trkpt>
      <trkpt lat="48.72106" lon="7.32898">
        <ele>349.826416</ele>
        <time>2010-06-26T12:50:18Z</time>
      </trkpt>
      <trkpt lat="48.7211" lon="7.3288">
        <ele>354.631104</ele>
        <time>2010-06-26T12:50:29Z</time>
      </trkpt>
      <trkpt lat="48.72111" lon="7.3286">
        <ele>358.756104</ele>
        <time>2010-06-26T12:50:39Z</time>
      </trkpt>
      <trkpt lat="48.72112" lon="7.32836">
        <ele>360.724854</ele>
        <time>2010-06-26T12:50:48Z</time>
      </trkpt>
      <trkpt lat="48.72111" lon="7.32813">
        <ele>359.685791</ele>
        <time>2010-06-26T12:50:56Z</time>
      </trkpt>
      <trkpt lat="48.7211" lon="7.32793">
        <ele>359.052979</ele>
        <time>2010-06-26T12:51:03Z</time>
      </trkpt>
      <trkpt lat="48.72105" lon="7.32771">
        <ele>358.318604</ele>
        <time>2010-06-26T12:51:14Z</time>
      </trkpt>
      <trkpt lat="48.72094" lon="7.32761">
        <ele>353.521729</ele>
        <time>2010-06-26T12:51:23Z</time>
      </trkpt>
      <trkpt lat="48.72087" lon="7.32745">
        <ele>346.295166</ele>
        <time>2010-06-26T12:52:33Z</time>
      </trkpt>
      <trkpt lat="48.72081" lon="7.32725">
        <ele>342.092041</ele>
        <time>2010-06-26T12:52:36Z</time>
      </trkpt>
      <trkpt lat="48.72072" lon="7.32706">
        <ele>338.920166</ele>
        <time>2010-06-26T12:52:39Z</time>
      </trkpt>
      <trkpt lat="48.72063" lon="7.3269">
        <ele>334.490479</ele>
        <time>2010-06-26T12:52:44Z</time>
      </trkpt>
      <trkpt lat="48.72054" lon="7.32673">
        <ele>332.537354</ele>
        <time>2010-06-26T12:52:47Z</time>
      </trkpt>
      <trkpt lat="48.72041" lon="7.32657">
        <ele>331.373291</ele>
        <time>2010-06-26T12:52:50Z</time>
      </trkpt>
      <trkpt lat="48.72028" lon="7.32641">
        <ele>329.560791</ele>
        <time>2010-06-26T12:52:54Z</time>
      </trkpt>
      <trkpt lat="48.72016" lon="7.32628">
        <ele>327.802979</ele>
        <time>2010-06-26T12:52:59Z</time>
      </trkpt>
      <trkpt lat="48.72004" lon="7.32618">
        <ele>326.084229</ele>
        <time>2010-06-26T12:53:04Z</time>
      </trkpt>
      <trkpt lat="48.71991" lon="7.3261">
        <ele>325.631104</ele>
        <time>2010-06-26T12:53:08Z</time>
      </trkpt>
      <trkpt lat="48.71982" lon="7.32595">
        <ele>322.068604</ele>
        <time>2010-06-26T12:53:13Z</time>
      </trkpt>
      <trkpt lat="48.71967" lon="7.32593">
        <ele>319.045166</ele>
        <time>2010-06-26T12:53:18Z</time>
      </trkpt>
      <trkpt lat="48.7195" lon="7.32582">
        <ele>316.115479</ele>
        <time>2010-06-26T12:53:22Z</time>
      </trkpt>
      <trkpt lat="48.71936" lon="7.32576">
        <ele>313.662354</ele>
        <time>2010-06-26T12:53:25Z</time>
      </trkpt>
      <trkpt lat="48.7192" lon="7.32573">
        <ele>311.677979</ele>
        <time>2010-06-26T12:53:28Z</time>
      </trkpt>
      <trkpt lat="48.71904" lon="7.32573">
        <ele>307.349854</ele>
        <time>2010-06-26T12:53:31Z</time>
      </trkpt>
      <trkpt lat="48.7189" lon="7.32574">
        <ele>305.498291</ele>
        <time>2010-06-26T12:53:34Z</time>
      </trkpt>
      <trkpt lat="48.71874" lon="7.32578">
        <ele>304.318604</ele>
        <time>2010-06-26T12:53:37Z</time>
      </trkpt>
      <trkpt lat="48.71861" lon="7.32582">
        <ele>300.646729</ele>
        <time>2010-06-26T12:53:40Z</time>
      </trkpt>
      <trkpt lat="48.71842" lon="7.32592">
        <ele>297.529541</ele>
        <time>2010-06-26T12:53:44Z</time>
      </trkpt>
      <trkpt lat="48.71828" lon="7.32607">
        <ele>293.592041</ele>
        <time>2010-06-26T12:53:48Z</time>
      </trkpt>
      <trkpt lat="48.71817" lon="7.32621">
        <ele>292.177979</ele>
        <time>2010-06-26T12:53:52Z</time>
      </trkpt>
      <trkpt lat="48.718" lon="7.32615">
        <ele>292.209229</ele>
        <time>2010-06-26T12:53:57Z</time>
      </trkpt>
      <trkpt lat="48.71788" lon="7.32602">
        <ele>291.318604</ele>
        <time>2010-06-26T12:54:01Z</time>
      </trkpt>
      <trkpt lat="48.71778" lon="7.32586">
        <ele>290.013916</ele>
        <time>2010-06-26T12:54:06Z</time>
      </trkpt>
      <trkpt lat="48.71768" lon="7.3257">
        <ele>291.545166</ele>
        <time>2010-06-26T12:54:10Z</time>
      </trkpt>
      <trkpt lat="48.71753" lon="7.32551">
        <ele>289.615479</ele>
        <time>2010-06-26T12:54:15Z</time>
      </trkpt>
      <trkpt lat="48.71738" lon="7.32538">
        <ele>287.099854</ele>
        <time>2010-06-26T12:54:18Z</time>
      </trkpt>
      <trkpt lat="48.71721" lon="7.3253">
        <ele>287.771729</ele>
        <time>2010-06-26T12:54:22Z</time>
      </trkpt>
      <trkpt lat="48.71701" lon="7.32522">
        <ele>287.084229</ele>
        <time>2010-06-26T12:54:26Z</time>
      </trkpt>
      <trkpt lat="48.71682" lon="7.32525">
        <ele>286.092041</ele>
        <time>2010-06-26T12:54:29Z</time>
      </trkpt>
      <trkpt lat="48.71664" lon="7.3252">
        <ele>284.701416</ele>
        <time>2010-06-26T12:54:32Z</time>
      </trkpt>
      <trkpt lat="48.71645" lon="7.32517">
        <ele>282.568604</ele>
        <time>2010-06-26T12:54:35Z</time>
      </trkpt>
      <trkpt lat="48.71633" lon="7.32506">
        <ele>280.592041</ele>
        <time>2010-06-26T12:54:37Z</time>
      </trkpt>
      <trkpt lat="48.71616" lon="7.32494">
        <ele>278.146729</ele>
        <time>2010-06-26T12:54:40Z</time>
      </trkpt>
      <trkpt lat="48.716" lon="7.3249">
        <ele>275.185791</ele>
        <time>2010-06-26T12:54:45Z</time>
      </trkpt>
      <trkpt lat="48.71587" lon="7.32496">
        <ele>270.060791</ele>
        <time>2010-06-26T12:55:19Z</time>
      </trkpt>
      <trkpt lat="48.71571" lon="7.32502">
        <ele>266.779541</ele>
        <time>2010-06-26T12:55:24Z</time>
      </trkpt>
      <trkpt lat="48.71555" lon="7.32509">
        <ele>264.943604</ele>
        <time>2010-06-26T12:55:27Z</time>
      </trkpt>
      <trkpt lat="48.71541" lon="7.32514">
        <ele>263.584229</ele>
        <time>2010-06-26T12:55:30Z</time>
      </trkpt>
      <trkpt lat="48.71526" lon="7.32514">
        <ele>262.224854</ele>
        <time>2010-06-26T12:55:34Z</time>
      </trkpt>
      <trkpt lat="48.71521" lon="7.32495">
        <ele>261.271729</ele>
        <time>2010-06-26T12:55:37Z</time>
      </trkpt>
      <trkpt lat="48.71532" lon="7.3248">
        <ele>258.943604</ele>
        <time>2010-06-26T12:55:40Z</time>
      </trkpt>
      <trkpt lat="48.7155" lon="7.32473">
        <ele>257.849854</ele>
        <time>2010-06-26T12:55:43Z</time>
      </trkpt>
      <trkpt lat="48.71564" lon="7.32469">
        <ele>257.537354</ele>
        <time>2010-06-26T12:55:45Z</time>
      </trkpt>
      <trkpt lat="48.71578" lon="7.32466">
        <ele>256.357666</ele>
        <time>2010-06-26T12:55:47Z</time>
      </trkpt>
      <trkpt lat="48.71597" lon="7.32458">
        <ele>254.444458</ele>
        <time>2010-06-26T12:55:50Z</time>
      </trkpt>
      <trkpt lat="48.71614" lon="7.32454">
        <ele>251.647583</ele>
        <time>2010-06-26T12:55:53Z</time>
      </trkpt>
      <trkpt lat="48.7163" lon="7.3245">
        <ele>248.608521</ele>
        <time>2010-06-26T12:55:56Z</time>
      </trkpt>
      <trkpt lat="48.71644" lon="7.32444">
        <ele>247.038208</ele>
        <time>2010-06-26T12:55:58Z</time>
      </trkpt>
      <trkpt lat="48.71663" lon="7.32439">
        <ele>246.124146</ele>
        <time>2010-06-26T12:56:00Z</time>
      </trkpt>
      <trkpt lat="48.71681" lon="7.32434">
        <ele>244.827271</ele>
        <time>2010-06-26T12:56:02Z</time>
      </trkpt>
      <trkpt lat="48.71708" lon="7.32429">
        <ele>242.889771</ele>
        <time>2010-06-26T12:56:04Z</time>
      </trkpt>
      <trkpt lat="48.71724" lon="7.32423">
        <ele>241.870239</ele>
        <time>2010-06-26T12:56:06Z</time>
      </trkpt>
      <trkpt lat="48.71738" lon="7.32414">
        <ele>241.167114</ele>
        <time>2010-06-26T12:56:08Z</time>
      </trkpt>
      <trkpt lat="48.71752" lon="7.32403">
        <ele>239.936646</ele>
        <time>2010-06-26T12:56:10Z</time>
      </trkpt>
      <trkpt lat="48.71768" lon="7.32392">
        <ele>238.202271</ele>
        <time>2010-06-26T12:56:12Z</time>
      </trkpt>
      <trkpt lat="48.71783" lon="7.32377">
        <ele>237.022583</ele>
        <time>2010-06-26T12:56:14Z</time>
      </trkpt>
      <trkpt lat="48.71789" lon="7.32359">
        <ele>235.737427</ele>
        <time>2010-06-26T12:56:17Z</time>
      </trkpt>
      <trkpt lat="48.71795" lon="7.32339">
        <ele>234.542114</ele>
        <time>2010-06-26T12:56:21Z</time>
      </trkpt>
      <trkpt lat="48.71803" lon="7.32314">
        <ele>233.542114</ele>
        <time>2010-06-26T12:56:25Z</time>
      </trkpt>
      <trkpt lat="48.71814" lon="7.32298">
        <ele>231.807739</ele>
        <time>2010-06-26T12:56:28Z</time>
      </trkpt>
      <trkpt lat="48.71826" lon="7.32287">
        <ele>231.393677</ele>
        <time>2010-06-26T12:56:31Z</time>
      </trkpt>
      <trkpt lat="48.71837" lon="7.32268">
        <ele>230.850708</ele>
        <time>2010-06-26T12:56:35Z</time>
      </trkpt>
      <trkpt lat="48.71845" lon="7.3225">
        <ele>229.663208</ele>
        <time>2010-06-26T12:56:39Z</time>
      </trkpt>
      <trkpt lat="48.71854" lon="7.32235">
        <ele>229.721802</ele>
        <time>2010-06-26T12:56:43Z</time>
      </trkpt>
      <trkpt lat="48.71866" lon="7.3222">
        <ele>229.760864</ele>
        <time>2010-06-26T12:56:47Z</time>
      </trkpt>
      <trkpt lat="48.71877" lon="7.32206">
        <ele>232.725708</ele>
        <time>2010-06-26T12:56:51Z</time>
      </trkpt>
      <trkpt lat="48.7189" lon="7.32192">
        <ele>235.296021</ele>
        <time>2010-06-26T12:56:56Z</time>
      </trkpt>
      <trkpt lat="48.71903" lon="7.32182">
        <ele>236.608521</ele>
        <time>2010-06-26T12:57:00Z</time>
      </trkpt>
      <trkpt lat="48.71915" lon="7.3217">
        <ele>238.499146</ele>
        <time>2010-06-26T12:57:05Z</time>
      </trkpt>
      <trkpt lat="48.71927" lon="7.32155">
        <ele>239.174927</ele>
        <time>2010-06-26T12:57:09Z</time>
      </trkpt>
      <trkpt lat="48.71934" lon="7.32138">
        <ele>235.221802</ele>
        <time>2010-06-26T12:57:13Z</time>
      </trkpt>
      <trkpt lat="48.71944" lon="7.32119">
        <ele>235.753052</ele>
        <time>2010-06-26T12:57:17Z</time>
      </trkpt>
      <trkpt lat="48.71953" lon="7.32102">
        <ele>236.893677</ele>
        <time>2010-06-26T12:57:21Z</time>
      </trkpt>
      <trkpt lat="48.71963" lon="7.32087">
        <ele>237.921021</ele>
        <time>2010-06-26T12:57:26Z</time>
      </trkpt>
      <trkpt lat="48.71976" lon="7.32073">
        <ele>238.592896</ele>
        <time>2010-06-26T12:57:31Z</time>
      </trkpt>
      <trkpt lat="48.71987" lon="7.32058">
        <ele>239.846802</ele>
        <time>2010-06-26T12:57:38Z</time>
      </trkpt>
      <trkpt lat="48.71995" lon="7.32039">
        <ele>243.530396</ele>
        <time>2010-06-26T12:58:55Z</time>
      </trkpt>
      <trkpt lat="48.72005" lon="7.32021">
        <ele>241.643677</ele>
        <time>2010-06-26T12:59:01Z</time>
      </trkpt>
      <trkpt lat="48.72014" lon="7.32003">
        <ele>239.069458</ele>
        <time>2010-06-26T12:59:04Z</time>
      </trkpt>
      <trkpt lat="48.72018" lon="7.31979">
        <ele>236.249146</ele>
        <time>2010-06-26T12:59:08Z</time>
      </trkpt>
      <trkpt lat="48.72022" lon="7.31959">
        <ele>234.600708</ele>
        <time>2010-06-26T12:59:11Z</time>
      </trkpt>
      <trkpt lat="48.72024" lon="7.31934">
        <ele>232.549927</ele>
        <time>2010-06-26T12:59:14Z</time>
      </trkpt>
      <trkpt lat="48.72026" lon="7.3191">
        <ele>233.030396</ele>
        <time>2010-06-26T12:59:18Z</time>
      </trkpt>
      <trkpt lat="48.72028" lon="7.31884">
        <ele>231.217896</ele>
        <time>2010-06-26T12:59:22Z</time>
      </trkpt>
      <trkpt lat="48.72032" lon="7.31864">
        <ele>230.026489</ele>
        <time>2010-06-26T12:59:26Z</time>
      </trkpt>
      <trkpt lat="48.72034" lon="7.31844">
        <ele>228.881958</ele>
        <time>2010-06-26T12:59:29Z</time>
      </trkpt>
      <trkpt lat="48.7203" lon="7.31817">
        <ele>227.272583</ele>
        <time>2010-06-26T12:59:32Z</time>
      </trkpt>
      <trkpt lat="48.72028" lon="7.31792">
        <ele>225.975708</ele>
        <time>2010-06-26T12:59:35Z</time>
      </trkpt>
      <trkpt lat="48.7203" lon="7.3177">
        <ele>225.092896</ele>
        <time>2010-06-26T12:59:37Z</time>
      </trkpt>
      <trkpt lat="48.72028" lon="7.31741">
        <ele>223.237427</ele>
        <time>2010-06-26T12:59:40Z</time>
      </trkpt>
      <trkpt lat="48.72027" lon="7.31717">
        <ele>220.815552</ele>
        <time>2010-06-26T12:59:43Z</time>
      </trkpt>
      <trkpt lat="48.72027" lon="7.31691">
        <ele>222.643677</ele>
        <time>2010-06-26T12:59:46Z</time>
      </trkpt>
      <trkpt lat="48.72025" lon="7.31667">
        <ele>220.581177</ele>
        <time>2010-06-26T12:59:49Z</time>
      </trkpt>
      <trkpt lat="48.72025" lon="7.31647">
        <ele>218.370239</ele>
        <time>2010-06-26T12:59:52Z</time>
      </trkpt>
      <trkpt lat="48.72025" lon="7.31619">
        <ele>217.717896</ele>
        <time>2010-06-26T12:59:55Z</time>
      </trkpt>
      <trkpt lat="48.72019" lon="7.31598">
        <ele>217.319458</ele>
        <time>2010-06-26T12:59:57Z</time>
      </trkpt>
      <trkpt lat="48.72012" lon="7.31576">
        <ele>215.979614</ele>
        <time>2010-06-26T12:59:59Z</time>
      </trkpt>
      <trkpt lat="48.72005" lon="7.31556">
        <ele>215.034302</ele>
        <time>2010-06-26T13:00:01Z</time>
      </trkpt>
      <trkpt lat="48.72" lon="7.31533">
        <ele>216.952271</ele>
        <time>2010-06-26T13:00:03Z</time>
      </trkpt>
      <trkpt lat="48.71995" lon="7.3151">
        <ele>214.311646</ele>
        <time>2010-06-26T13:00:05Z</time>
      </trkpt>
      <trkpt lat="48.71989" lon="7.31489">
        <ele>211.932739</ele>
        <time>2010-06-26T13:00:07Z</time>
      </trkpt>
      <trkpt lat="48.71982" lon="7.31467">
        <ele>210.378052</ele>
        <time>2010-06-26T13:00:09Z</time>
      </trkpt>
      <trkpt lat="48.71974" lon="7.31441">
        <ele>207.702271</ele>
        <time>2010-06-26T13:00:12Z</time>
      </trkpt>
      <trkpt lat="48.71959" lon="7.31423">
        <ele>205.698364</ele>
        <time>2010-06-26T13:00:14Z</time>
      </trkpt>
      <trkpt lat="48.71943" lon="7.31415">
        <ele>204.932739</ele>
        <time>2010-06-26T13:00:16Z</time>
      </trkpt>
      <trkpt lat="48.71928" lon="7.31421">
        <ele>202.885864</ele>
        <time>2010-06-26T13:00:18Z</time>
      </trkpt>
      <trkpt lat="48.71914" lon="7.31439">
        <ele>200.354614</ele>
        <time>2010-06-26T13:00:21Z</time>
      </trkpt>
      <trkpt lat="48.71902" lon="7.31454">
        <ele>198.315552</ele>
        <time>2010-06-26T13:00:23Z</time>
      </trkpt>
      <trkpt lat="48.7189" lon="7.31468">
        <ele>195.772583</ele>
        <time>2010-06-26T13:00:25Z</time>
      </trkpt>
      <trkpt lat="48.71879" lon="7.31487">
        <ele>192.870239</ele>
        <time>2010-06-26T13:00:28Z</time>
      </trkpt>
      <trkpt lat="48.71865" lon="7.31492">
        <ele>192.194458</ele>
        <time>2010-06-26T13:00:31Z</time>
      </trkpt>
      <trkpt lat="48.71853" lon="7.31483">
        <ele>196.299927</ele>
        <time>2010-06-26T13:00:58Z</time>
      </trkpt>
      <trkpt lat="48.7185" lon="7.31462">
        <ele>198.034302</ele>
        <time>2010-06-26T13:01:09Z</time>
      </trkpt>
      <trkpt lat="48.71837" lon="7.31456">
        <ele>199.280396</ele>
        <time>2010-06-26T13:01:20Z</time>
      </trkpt>
      <trkpt lat="48.71823" lon="7.31461">
        <ele>199.768677</ele>
        <time>2010-06-26T13:01:28Z</time>
      </trkpt>
      <trkpt lat="48.71809" lon="7.31465">
        <ele>200.100708</ele>
        <time>2010-06-26T13:01:35Z</time>
      </trkpt>
      <trkpt lat="48.71794" lon="7.31467">
        <ele>202.483521</ele>
        <time>2010-06-26T13:01:42Z</time>
      </trkpt>
      <trkpt lat="48.71779" lon="7.3146">
        <ele>203.944458</ele>
        <time>2010-06-26T13:01:47Z</time>
      </trkpt>
      <trkpt lat="48.71763" lon="7.31458">
        <ele>205.768677</ele>
        <time>2010-06-26T13:01:53Z</time>
      </trkpt>
      <trkpt lat="48.71748" lon="7.31454">
        <ele>205.772583</ele>
        <time>2010-06-26T13:01:58Z</time>
      </trkpt>
      <trkpt lat="48.71735" lon="7.31448">
        <ele>205.788208</ele>
        <time>2010-06-26T13:02:03Z</time>
      </trkpt>
      <trkpt lat="48.71722" lon="7.31441">
        <ele>206.717896</ele>
        <time>2010-06-26T13:02:08Z</time>
      </trkpt>
      <trkpt lat="48.71709" lon="7.31432">
        <ele>205.885864</ele>
        <time>2010-06-26T13:02:14Z</time>
      </trkpt>
      <trkpt lat="48.71695" lon="7.31417">
        <ele>204.686646</ele>
        <time>2010-06-26T13:02:19Z</time>
      </trkpt>
      <trkpt lat="48.71684" lon="7.31402">
        <ele>205.557739</ele>
        <time>2010-06-26T13:02:24Z</time>
      </trkpt>
      <trkpt lat="48.71674" lon="7.31386">
        <ele>207.268677</ele>
        <time>2010-06-26T13:02:29Z</time>
      </trkpt>
      <trkpt lat="48.71663" lon="7.31368">
        <ele>209.335083</ele>
        <time>2010-06-26T13:02:34Z</time>
      </trkpt>
      <trkpt lat="48.71656" lon="7.31351">
        <ele>211.276489</ele>
        <time>2010-06-26T13:02:38Z</time>
      </trkpt>
      <trkpt lat="48.71647" lon="7.31333">
        <ele>212.182739</ele>
        <time>2010-06-26T13:02:42Z</time>
      </trkpt>
      <trkpt lat="48.71637" lon="7.31314">
        <ele>215.249146</ele>
        <time>2010-06-26T13:02:47Z</time>
      </trkpt>
      <trkpt lat="48.71627" lon="7.31296">
        <ele>217.151489</ele>
        <time>2010-06-26T13:02:52Z</time>
      </trkpt>
      <trkpt lat="48.71619" lon="7.31277">
        <ele>219.182739</ele>
        <time>2010-06-26T13:02:57Z</time>
      </trkpt>
      <trkpt lat="48.71614" lon="7.31257">
        <ele>221.733521</ele>
        <time>2010-06-26T13:03:02Z</time>
      </trkpt>
      <trkpt lat="48.71604" lon="7.31241">
        <ele>224.874146</ele>
        <time>2010-06-26T13:03:08Z</time>
      </trkpt>
      <trkpt lat="48.71589" lon="7.31227">
        <ele>226.624146</ele>
        <time>2010-06-26T13:03:12Z</time>
      </trkpt>
      <trkpt lat="48.71575" lon="7.31218">
        <ele>228.288208</ele>
        <time>2010-06-26T13:03:16Z</time>
      </trkpt>
      <trkpt lat="48.71563" lon="7.31209">
        <ele>230.749146</ele>
        <time>2010-06-26T13:03:20Z</time>
      </trkpt>
      <trkpt lat="48.71551" lon="7.31195">
        <ele>233.499146</ele>
        <time>2010-06-26T13:03:24Z</time>
      </trkpt>
      <trkpt lat="48.71538" lon="7.31184">
        <ele>236.940552</ele>
        <time>2010-06-26T13:03:29Z</time>
      </trkpt>
      <trkpt lat="48.71524" lon="7.31181">
        <ele>239.866333</ele>
        <time>2010-06-26T13:03:32Z</time>
      </trkpt>
      <trkpt lat="48.7151" lon="7.31178">
        <ele>242.831177</ele>
        <time>2010-06-26T13:03:35Z</time>
      </trkpt>
      <trkpt lat="48.71497" lon="7.31168">
        <ele>246.436646</ele>
        <time>2010-06-26T13:03:41Z</time>
      </trkpt>
      <trkpt lat="48.71483" lon="7.31159">
        <ele>248.213989</ele>
        <time>2010-06-26T13:03:45Z</time>
      </trkpt>
      <trkpt lat="48.71465" lon="7.31155">
        <ele>249.342896</ele>
        <time>2010-06-26T13:03:49Z</time>
      </trkpt>
      <trkpt lat="48.71452" lon="7.31151">
        <ele>249.741333</ele>
        <time>2010-06-26T13:03:52Z</time>
      </trkpt>
      <trkpt lat="48.71436" lon="7.3115">
        <ele>248.772583</ele>
        <time>2010-06-26T13:03:55Z</time>
      </trkpt>
      <trkpt lat="48.71421" lon="7.31148">
        <ele>249.073364</ele>
        <time>2010-06-26T13:03:58Z</time>
      </trkpt>
      <trkpt lat="48.71408" lon="7.31133">
        <ele>248.674927</ele>
        <time>2010-06-26T13:04:02Z</time>
      </trkpt>
      <trkpt lat="48.71396" lon="7.31116">
        <ele>250.014771</ele>
        <time>2010-06-26T13:04:07Z</time>
      </trkpt>
      <trkpt lat="48.71389" lon="7.31097">
        <ele>250.323364</ele>
        <time>2010-06-26T13:04:11Z</time>
      </trkpt>
      <trkpt lat="48.71381" lon="7.3108">
        <ele>252.331177</ele>
        <time>2010-06-26T13:04:15Z</time>
      </trkpt>
      <trkpt lat="48.71371" lon="7.31065">
        <ele>253.631958</ele>
        <time>2010-06-26T13:04:19Z</time>
      </trkpt>
      <trkpt lat="48.7136" lon="7.3105">
        <ele>255.733521</ele>
        <time>2010-06-26T13:04:23Z</time>
      </trkpt>
      <trkpt lat="48.71352" lon="7.31028">
        <ele>257.115479</ele>
        <time>2010-06-26T13:04:27Z</time>
      </trkpt>
      <trkpt lat="48.71339" lon="7.31012">
        <ele>258.646729</ele>
        <time>2010-06-26T13:04:31Z</time>
      </trkpt>
      <trkpt lat="48.71328" lon="7.30997">
        <ele>260.295166</ele>
        <time>2010-06-26T13:04:35Z</time>
      </trkpt>
      <trkpt lat="48.71315" lon="7.3098">
        <ele>261.748291</ele>
        <time>2010-06-26T13:04:39Z</time>
      </trkpt>
      <trkpt lat="48.71306" lon="7.30961">
        <ele>263.662354</ele>
        <time>2010-06-26T13:04:43Z</time>
      </trkpt>
      <trkpt lat="48.71295" lon="7.30943">
        <ele>264.037354</ele>
        <time>2010-06-26T13:04:47Z</time>
      </trkpt>
      <trkpt lat="48.71282" lon="7.30926">
        <ele>265.701416</ele>
        <time>2010-06-26T13:04:51Z</time>
      </trkpt>
      <trkpt lat="48.71268" lon="7.30915">
        <ele>262.935791</ele>
        <time>2010-06-26T13:04:55Z</time>
      </trkpt>
      <trkpt lat="48.71257" lon="7.30901">
        <ele>258.810791</ele>
        <time>2010-06-26T13:04:59Z</time>
      </trkpt>
      <trkpt lat="48.71244" lon="7.30889">
        <ele>253.409302</ele>
        <time>2010-06-26T13:05:04Z</time>
      </trkpt>
      <trkpt lat="48.71233" lon="7.30874">
        <ele>249.960083</ele>
        <time>2010-06-26T13:05:09Z</time>
      </trkpt>
      <trkpt lat="48.71221" lon="7.30863">
        <ele>247.698364</ele>
        <time>2010-06-26T13:05:15Z</time>
      </trkpt>
      <trkpt lat="48.71208" lon="7.30854">
        <ele>244.756958</ele>
        <time>2010-06-26T13:05:20Z</time>
      </trkpt>
      <trkpt lat="48.71197" lon="7.30839">
        <ele>241.206177</ele>
        <time>2010-06-26T13:05:27Z</time>
      </trkpt>
      <trkpt lat="48.71184" lon="7.30831">
        <ele>241.827271</ele>
        <time>2010-06-26T13:05:34Z</time>
      </trkpt>
      <trkpt lat="48.7117" lon="7.30822">
        <ele>239.983521</ele>
        <time>2010-06-26T13:05:40Z</time>
      </trkpt>
      <trkpt lat="48.71156" lon="7.30817">
        <ele>240.124146</ele>
        <time>2010-06-26T13:05:46Z</time>
      </trkpt>
      <trkpt lat="48.71141" lon="7.30807">
        <ele>239.171021</ele>
        <time>2010-06-26T13:05:52Z</time>
      </trkpt>
      <trkpt lat="48.71128" lon="7.30799">
        <ele>234.741333</ele>
        <time>2010-06-26T13:05:56Z</time>
      </trkpt>
      <trkpt lat="48.71114" lon="7.30793">
        <ele>232.643677</ele>
        <time>2010-06-26T13:06:00Z</time>
      </trkpt>
      <trkpt lat="48.71101" lon="7.30787">
        <ele>231.667114</ele>
        <time>2010-06-26T13:06:04Z</time>
      </trkpt>
      <trkpt lat="48.71088" lon="7.30782">
        <ele>229.510864</ele>
        <time>2010-06-26T13:06:08Z</time>
      </trkpt>
      <trkpt lat="48.71075" lon="7.30778">
        <ele>224.268677</ele>
        <time>2010-06-26T13:06:11Z</time>
      </trkpt>
      <trkpt lat="48.71062" lon="7.3078">
        <ele>219.112427</ele>
        <time>2010-06-26T13:06:14Z</time>
      </trkpt>
      <trkpt lat="48.71047" lon="7.30784">
        <ele>219.444458</ele>
        <time>2010-06-26T13:06:17Z</time>
      </trkpt>
      <trkpt lat="48.71029" lon="7.30793">
        <ele>216.475708</ele>
        <time>2010-06-26T13:06:20Z</time>
      </trkpt>
      <trkpt lat="48.71016" lon="7.308">
        <ele>215.803833</ele>
        <time>2010-06-26T13:06:22Z</time>
      </trkpt>
      <trkpt lat="48.71003" lon="7.30809">
        <ele>215.100708</ele>
        <time>2010-06-26T13:06:24Z</time>
      </trkpt>
      <trkpt lat="48.70989" lon="7.30818">
        <ele>214.393677</ele>
        <time>2010-06-26T13:06:27Z</time>
      </trkpt>
      <trkpt lat="48.70974" lon="7.30812">
        <ele>216.686646</ele>
        <time>2010-06-26T13:06:32Z</time>
      </trkpt>
      <trkpt lat="48.70967" lon="7.30793">
        <ele>215.924927</ele>
        <time>2010-06-26T13:06:36Z</time>
      </trkpt>
      <trkpt lat="48.70965" lon="7.3077">
        <ele>214.249146</ele>
        <time>2010-06-26T13:06:42Z</time>
      </trkpt>
      <trkpt lat="48.7097" lon="7.30751">
        <ele>214.112427</ele>
        <time>2010-06-26T13:06:46Z</time>
      </trkpt>
      <trkpt lat="48.70975" lon="7.3073">
        <ele>212.639771</ele>
        <time>2010-06-26T13:06:50Z</time>
      </trkpt>
      <trkpt lat="48.70981" lon="7.3071">
        <ele>213.167114</ele>
        <time>2010-06-26T13:06:54Z</time>
      </trkpt>
      <trkpt lat="48.70987" lon="7.30688">
        <ele>215.628052</ele>
        <time>2010-06-26T13:06:58Z</time>
      </trkpt>
      <trkpt lat="48.70992" lon="7.30667">
        <ele>217.905396</ele>
        <time>2010-06-26T13:07:02Z</time>
      </trkpt>
      <trkpt lat="48.70997" lon="7.30649">
        <ele>222.905396</ele>
        <time>2010-06-26T13:07:06Z</time>
      </trkpt>
      <trkpt lat="48.71001" lon="7.30629">
        <ele>221.237427</ele>
        <time>2010-06-26T13:07:36Z</time>
      </trkpt>
      <trkpt lat="48.71005" lon="7.30609">
        <ele>223.065552</ele>
        <time>2010-06-26T13:07:57Z</time>
      </trkpt>
      <trkpt lat="48.71008" lon="7.3059">
        <ele>228.284302</ele>
        <time>2010-06-26T13:08:27Z</time>
      </trkpt>
      <trkpt lat="48.7101" lon="7.30569">
        <ele>229.862427</ele>
        <time>2010-06-26T13:08:36Z</time>
      </trkpt>
      <trkpt lat="48.71016" lon="7.3055">
        <ele>234.014771</ele>
        <time>2010-06-26T13:08:46Z</time>
      </trkpt>
      <trkpt lat="48.7101" lon="7.3053">
        <ele>231.792114</ele>
        <time>2010-06-26T13:09:10Z</time>
      </trkpt>
      <trkpt lat="48.7101" lon="7.30509">
        <ele>232.378052</ele>
        <time>2010-06-26T13:09:24Z</time>
      </trkpt>
      <trkpt lat="48.7101" lon="7.30488">
        <ele>235.428833</ele>
        <time>2010-06-26T13:09:32Z</time>
      </trkpt>
      <trkpt lat="48.71005" lon="7.3047">
        <ele>239.335083</ele>
        <time>2010-06-26T13:09:44Z</time>
      </trkpt>
      <trkpt lat="48.71002" lon="7.30448">
        <ele>242.401489</ele>
        <time>2010-06-26T13:10:00Z</time>
      </trkpt>
      <trkpt lat="48.70999" lon="7.30427">
        <ele>240.803833</ele>
        <time>2010-06-26T13:10:06Z</time>
      </trkpt>
      <trkpt lat="48.70994" lon="7.30403">
        <ele>239.331177</ele>
        <time>2010-06-26T13:10:12Z</time>
      </trkpt>
      <trkpt lat="48.70988" lon="7.30381">
        <ele>240.389771</ele>
        <time>2010-06-26T13:10:17Z</time>
      </trkpt>
      <trkpt lat="48.70985" lon="7.30359">
        <ele>242.608521</ele>
        <time>2010-06-26T13:10:23Z</time>
      </trkpt>
      <trkpt lat="48.70987" lon="7.30336">
        <ele>243.889771</ele>
        <time>2010-06-26T13:10:27Z</time>
      </trkpt>
      <trkpt lat="48.70994" lon="7.30313">
        <ele>247.202271</ele>
        <time>2010-06-26T13:10:30Z</time>
      </trkpt>
      <trkpt lat="48.71" lon="7.30292">
        <ele>248.424927</ele>
        <time>2010-06-26T13:10:34Z</time>
      </trkpt>
      <trkpt lat="48.71003" lon="7.30271">
        <ele>253.057739</ele>
        <time>2010-06-26T13:10:41Z</time>
      </trkpt>
      <trkpt lat="48.71005" lon="7.30248">
        <ele>252.053833</ele>
        <time>2010-06-26T13:10:45Z</time>
      </trkpt>
      <trkpt lat="48.71001" lon="7.30227">
        <ele>251.475708</ele>
        <time>2010-06-26T13:10:49Z</time>
      </trkpt>
      <trkpt lat="48.71009" lon="7.30212">
        <ele>257.146729</ele>
        <time>2010-06-26T13:10:53Z</time>
      </trkpt>
      <trkpt lat="48.71016" lon="7.30195">
        <ele>266.724854</ele>
        <time>2010-06-26T13:11:01Z</time>
      </trkpt>
      <trkpt lat="48.71014" lon="7.30169">
        <ele>271.998291</ele>
        <time>2010-06-26T13:11:04Z</time>
      </trkpt>
      <trkpt lat="48.7101" lon="7.30149">
        <ele>271.701416</ele>
        <time>2010-06-26T13:11:17Z</time>
      </trkpt>
      <trkpt lat="48.71011" lon="7.30125">
        <ele>273.435791</ele>
        <time>2010-06-26T13:11:23Z</time>
      </trkpt>
      <trkpt lat="48.71008" lon="7.30104">
        <ele>274.256104</ele>
        <time>2010-06-26T13:11:30Z</time>
      </trkpt>
      <trkpt lat="48.71008" lon="7.30083">
        <ele>277.685791</ele>
        <time>2010-06-26T13:11:38Z</time>
      </trkpt>
      <trkpt lat="48.71007" lon="7.30063">
        <ele>281.474854</ele>
        <time>2010-06-26T13:11:47Z</time>
      </trkpt>
      <trkpt lat="48.71002" lon="7.30044">
        <ele>286.092041</ele>
        <time>2010-06-26T13:12:04Z</time>
      </trkpt>
      <trkpt lat="48.70993" lon="7.30028">
        <ele>285.248291</ele>
        <time>2010-06-26T13:12:33Z</time>
      </trkpt>
      <trkpt lat="48.70985" lon="7.30007">
        <ele>285.279541</ele>
        <time>2010-06-26T13:12:39Z</time>
      </trkpt>
      <trkpt lat="48.70973" lon="7.29995">
        <ele>285.029541</ele>
        <time>2010-06-26T13:12:44Z</time>
      </trkpt>
      <trkpt lat="48.70961" lon="7.29981">
        <ele>284.646729</ele>
        <time>2010-06-26T13:12:49Z</time>
      </trkpt>
      <trkpt lat="48.70948" lon="7.29972">
        <ele>285.123291</ele>
        <time>2010-06-26T13:12:53Z</time>
      </trkpt>
      <trkpt lat="48.7094" lon="7.29954">
        <ele>283.342041</ele>
        <time>2010-06-26T13:12:57Z</time>
      </trkpt>
      <trkpt lat="48.7093" lon="7.29938">
        <ele>283.092041</ele>
        <time>2010-06-26T13:13:02Z</time>
      </trkpt>
      <trkpt lat="48.70917" lon="7.29929">
        <ele>286.881104</ele>
        <time>2010-06-26T13:13:09Z</time>
      </trkpt>
      <trkpt lat="48.7091" lon="7.29911">
        <ele>285.131104</ele>
        <time>2010-06-26T13:13:31Z</time>
      </trkpt>
      <trkpt lat="48.70896" lon="7.29909">
        <ele>285.631104</ele>
        <time>2010-06-26T13:13:40Z</time>
      </trkpt>
      <trkpt lat="48.70884" lon="7.29893">
        <ele>284.740479</ele>
        <time>2010-06-26T13:13:47Z</time>
      </trkpt>
      <trkpt lat="48.70873" lon="7.29877">
        <ele>284.677979</ele>
        <time>2010-06-26T13:13:52Z</time>
      </trkpt>
      <trkpt lat="48.70869" lon="7.29855">
        <ele>284.084229</ele>
        <time>2010-06-26T13:13:56Z</time>
      </trkpt>
      <trkpt lat="48.70867" lon="7.2983">
        <ele>280.990479</ele>
        <time>2010-06-26T13:14:01Z</time>
      </trkpt>
      <trkpt lat="48.70865" lon="7.29808">
        <ele>280.795166</ele>
        <time>2010-06-26T13:14:05Z</time>
      </trkpt>
      <trkpt lat="48.70861" lon="7.29788">
        <ele>282.842041</ele>
        <time>2010-06-26T13:14:12Z</time>
      </trkpt>
      <trkpt lat="48.70855" lon="7.29767">
        <ele>283.654541</ele>
        <time>2010-06-26T13:14:17Z</time>
      </trkpt>
      <trkpt lat="48.70852" lon="7.29743">
        <ele>284.709229</ele>
        <time>2010-06-26T13:14:23Z</time>
      </trkpt>
      <trkpt lat="48.70846" lon="7.29721">
        <ele>285.756104</ele>
        <time>2010-06-26T13:14:27Z</time>
      </trkpt>
      <trkpt lat="48.70839" lon="7.297">
        <ele>287.123291</ele>
        <time>2010-06-26T13:14:33Z</time>
      </trkpt>
      <trkpt lat="48.70837" lon="7.29676">
        <ele>287.256104</ele>
        <time>2010-06-26T13:14:36Z</time>
      </trkpt>
      <trkpt lat="48.70831" lon="7.29657">
        <ele>287.435791</ele>
        <time>2010-06-26T13:14:39Z</time>
      </trkpt>
      <trkpt lat="48.70824" lon="7.2964">
        <ele>289.193604</ele>
        <time>2010-06-26T13:14:42Z</time>
      </trkpt>
      <trkpt lat="48.7081" lon="7.29623">
        <ele>290.029541</ele>
        <time>2010-06-26T13:14:46Z</time>
      </trkpt>
      <trkpt lat="48.70796" lon="7.29608">
        <ele>290.084229</ele>
        <time>2010-06-26T13:14:49Z</time>
      </trkpt>
      <trkpt lat="48.70783" lon="7.29597">
        <ele>289.185791</ele>
        <time>2010-06-26T13:14:52Z</time>
      </trkpt>
      <trkpt lat="48.70769" lon="7.29589">
        <ele>291.021729</ele>
        <time>2010-06-26T13:14:58Z</time>
      </trkpt>
      <trkpt lat="48.70755" lon="7.29584">
        <ele>291.638916</ele>
        <time>2010-06-26T13:15:03Z</time>
      </trkpt>
      <trkpt lat="48.70742" lon="7.29577">
        <ele>292.998291</ele>
        <time>2010-06-26T13:15:09Z</time>
      </trkpt>
      <trkpt lat="48.70726" lon="7.29573">
        <ele>291.217041</ele>
        <time>2010-06-26T13:15:17Z</time>
      </trkpt>
      <trkpt lat="48.70712" lon="7.29572">
        <ele>287.459229</ele>
        <time>2010-06-26T13:15:22Z</time>
      </trkpt>
      <trkpt lat="48.70699" lon="7.29573">
        <ele>283.427979</ele>
        <time>2010-06-26T13:15:28Z</time>
      </trkpt>
      <trkpt lat="48.70689" lon="7.29561">
        <ele>277.732666</ele>
        <time>2010-06-26T13:15:35Z</time>
      </trkpt>
      <trkpt lat="48.70675" lon="7.29562">
        <ele>273.865479</ele>
        <time>2010-06-26T13:15:41Z</time>
      </trkpt>
      <trkpt lat="48.70663" lon="7.29558">
        <ele>264.842041</ele>
        <time>2010-06-26T13:15:48Z</time>
      </trkpt>
      <trkpt lat="48.70655" lon="7.29542">
        <ele>259.646729</ele>
        <time>2010-06-26T13:15:56Z</time>
      </trkpt>
      <trkpt lat="48.70648" lon="7.29522">
        <ele>258.717041</ele>
        <time>2010-06-26T13:16:02Z</time>
      </trkpt>
      <trkpt lat="48.70647" lon="7.29498">
        <ele>257.521729</ele>
        <time>2010-06-26T13:16:06Z</time>
      </trkpt>
      <trkpt lat="48.70647" lon="7.29475">
        <ele>256.943604</ele>
        <time>2010-06-26T13:16:10Z</time>
      </trkpt>
      <trkpt lat="48.70651" lon="7.29451">
        <ele>254.702271</ele>
        <time>2010-06-26T13:16:13Z</time>
      </trkpt>
      <trkpt lat="48.70659" lon="7.29429">
        <ele>254.971802</ele>
        <time>2010-06-26T13:16:18Z</time>
      </trkpt>
      <trkpt lat="48.70665" lon="7.29405">
        <ele>254.307739</ele>
        <time>2010-06-26T13:16:21Z</time>
      </trkpt>
      <trkpt lat="48.70668" lon="7.29385">
        <ele>253.280396</ele>
        <time>2010-06-26T13:16:25Z</time>
      </trkpt>
      <trkpt lat="48.70669" lon="7.29361">
        <ele>254.417114</ele>
        <time>2010-06-26T13:16:28Z</time>
      </trkpt>
      <trkpt lat="48.7067" lon="7.29336">
        <ele>255.835083</ele>
        <time>2010-06-26T13:16:32Z</time>
      </trkpt>
      <trkpt lat="48.70664" lon="7.29311">
        <ele>257.248291</ele>
        <time>2010-06-26T13:16:36Z</time>
      </trkpt>
      <trkpt lat="48.70662" lon="7.29289">
        <ele>257.638916</ele>
        <time>2010-06-26T13:16:40Z</time>
      </trkpt>
      <trkpt lat="48.70656" lon="7.29269">
        <ele>257.974854</ele>
        <time>2010-06-26T13:16:44Z</time>
      </trkpt>
      <trkpt lat="48.7065" lon="7.2925">
        <ele>256.349854</ele>
        <time>2010-06-26T13:16:49Z</time>
      </trkpt>
      <trkpt lat="48.70637" lon="7.29238">
        <ele>257.709229</ele>
        <time>2010-06-26T13:17:02Z</time>
      </trkpt>
      <trkpt lat="48.70625" lon="7.29224">
        <ele>258.381104</ele>
        <time>2010-06-26T13:17:06Z</time>
      </trkpt>
      <trkpt lat="48.70612" lon="7.29211">
        <ele>259.474854</ele>
        <time>2010-06-26T13:17:10Z</time>
      </trkpt>
      <trkpt lat="48.70599" lon="7.29207">
        <ele>264.474854</ele>
        <time>2010-06-26T13:19:44Z</time>
      </trkpt>
      <trkpt lat="48.70591" lon="7.2919">
        <ele>264.209229</ele>
        <time>2010-06-26T13:19:56Z</time>
      </trkpt>
      <trkpt lat="48.70576" lon="7.29182">
        <ele>263.037354</ele>
        <time>2010-06-26T13:20:01Z</time>
      </trkpt>
      <trkpt lat="48.70567" lon="7.29164">
        <ele>261.842041</ele>
        <time>2010-06-26T13:20:05Z</time>
      </trkpt>
      <trkpt lat="48.70557" lon="7.2915">
        <ele>260.849854</ele>
        <time>2010-06-26T13:20:09Z</time>
      </trkpt>
      <trkpt lat="48.70552" lon="7.29127">
        <ele>259.802979</ele>
        <time>2010-06-26T13:20:12Z</time>
      </trkpt>
      <trkpt lat="48.70547" lon="7.29108">
        <ele>259.435791</ele>
        <time>2010-06-26T13:20:16Z</time>
      </trkpt>
      <trkpt lat="48.7054" lon="7.29087">
        <ele>259.873291</ele>
        <time>2010-06-26T13:20:20Z</time>
      </trkpt>
      <trkpt lat="48.70533" lon="7.29069">
        <ele>259.990479</ele>
        <time>2010-06-26T13:20:23Z</time>
      </trkpt>
      <trkpt lat="48.70529" lon="7.29046">
        <ele>260.099854</ele>
        <time>2010-06-26T13:20:27Z</time>
      </trkpt>
      <trkpt lat="48.70528" lon="7.29024">
        <ele>259.584229</ele>
        <time>2010-06-26T13:20:32Z</time>
      </trkpt>
      <trkpt lat="48.70523" lon="7.28999">
        <ele>259.334229</ele>
        <time>2010-06-26T13:20:37Z</time>
      </trkpt>
      <trkpt lat="48.70519" lon="7.28979">
        <ele>258.795166</ele>
        <time>2010-06-26T13:20:40Z</time>
      </trkpt>
      <trkpt lat="48.70515" lon="7.28958">
        <ele>259.045166</ele>
        <time>2010-06-26T13:20:44Z</time>
      </trkpt>
      <trkpt lat="48.70517" lon="7.28928">
        <ele>259.045166</ele>
        <time>2010-06-26T13:20:48Z</time>
      </trkpt>
      <trkpt lat="48.70515" lon="7.28908">
        <ele>259.592041</ele>
        <time>2010-06-26T13:20:52Z</time>
      </trkpt>
      <trkpt lat="48.70512" lon="7.28887">
        <ele>259.068604</ele>
        <time>2010-06-26T13:20:57Z</time>
      </trkpt>
      <trkpt lat="48.70508" lon="7.28867">
        <ele>259.677979</ele>
        <time>2010-06-26T13:21:01Z</time>
      </trkpt>
      <trkpt lat="48.70502" lon="7.28844">
        <ele>257.732666</ele>
        <time>2010-06-26T13:21:06Z</time>
      </trkpt>
      <trkpt lat="48.705" lon="7.28822">
        <ele>256.662354</ele>
        <time>2010-06-26T13:21:12Z</time>
      </trkpt>
      <trkpt lat="48.70496" lon="7.28802">
        <ele>255.467896</ele>
        <time>2010-06-26T13:21:16Z</time>
      </trkpt>
      <trkpt lat="48.70491" lon="7.28781">
        <ele>253.928833</ele>
        <time>2010-06-26T13:21:21Z</time>
      </trkpt>
      <trkpt lat="48.70485" lon="7.28762">
        <ele>255.932739</ele>
        <time>2010-06-26T13:21:27Z</time>
      </trkpt>
      <trkpt lat="48.70485" lon="7.28739">
        <ele>258.302979</ele>
        <time>2010-06-26T13:21:35Z</time>
      </trkpt>
      <trkpt lat="48.7048" lon="7.28717">
        <ele>259.506104</ele>
        <time>2010-06-26T13:21:42Z</time>
      </trkpt>
      <trkpt lat="48.70478" lon="7.28696">
        <ele>262.295166</ele>
        <time>2010-06-26T13:21:49Z</time>
      </trkpt>
      <trkpt lat="48.70473" lon="7.28677">
        <ele>264.849854</ele>
        <time>2010-06-26T13:21:55Z</time>
      </trkpt>
      <trkpt lat="48.70467" lon="7.28659">
        <ele>266.131104</ele>
        <time>2010-06-26T13:22:00Z</time>
      </trkpt>
      <trkpt lat="48.70464" lon="7.28637">
        <ele>269.170166</ele>
        <time>2010-06-26T13:22:05Z</time>
      </trkpt>
      <trkpt lat="48.70458" lon="7.28614">
        <ele>271.865479</ele>
        <time>2010-06-26T13:22:12Z</time>
      </trkpt>
      <trkpt lat="48.70463" lon="7.28584">
        <ele>277.271729</ele>
        <time>2010-06-26T13:22:18Z</time>
      </trkpt>
      <trkpt lat="48.70464" lon="7.28561">
        <ele>281.443604</ele>
        <time>2010-06-26T13:22:23Z</time>
      </trkpt>
      <trkpt lat="48.70458" lon="7.2854">
        <ele>284.052979</ele>
        <time>2010-06-26T13:22:26Z</time>
      </trkpt>
      <trkpt lat="48.70459" lon="7.28517">
        <ele>289.256104</ele>
        <time>2010-06-26T13:22:31Z</time>
      </trkpt>
      <trkpt lat="48.70459" lon="7.2849">
        <ele>294.881104</ele>
        <time>2010-06-26T13:22:37Z</time>
      </trkpt>
      <trkpt lat="48.70452" lon="7.28473">
        <ele>298.435791</ele>
        <time>2010-06-26T13:22:42Z</time>
      </trkpt>
      <trkpt lat="48.70445" lon="7.28452">
        <ele>301.107666</ele>
        <time>2010-06-26T13:22:50Z</time>
      </trkpt>
      <trkpt lat="48.70446" lon="7.28429">
        <ele>303.881104</ele>
        <time>2010-06-26T13:22:56Z</time>
      </trkpt>
      <trkpt lat="48.70444" lon="7.28407">
        <ele>305.138916</ele>
        <time>2010-06-26T13:23:04Z</time>
      </trkpt>
      <trkpt lat="48.70435" lon="7.28387">
        <ele>304.849854</ele>
        <time>2010-06-26T13:23:09Z</time>
      </trkpt>
      <trkpt lat="48.70435" lon="7.28367">
        <ele>300.404541</ele>
        <time>2010-06-26T13:23:15Z</time>
      </trkpt>
      <trkpt lat="48.70435" lon="7.28344">
        <ele>297.318604</ele>
        <time>2010-06-26T13:23:21Z</time>
      </trkpt>
      <trkpt lat="48.70431" lon="7.28324">
        <ele>292.420166</ele>
        <time>2010-06-26T13:23:25Z</time>
      </trkpt>
      <trkpt lat="48.70427" lon="7.28303">
        <ele>288.201416</ele>
        <time>2010-06-26T13:23:33Z</time>
      </trkpt>
      <trkpt lat="48.70433" lon="7.28285">
        <ele>283.084229</ele>
        <time>2010-06-26T13:23:39Z</time>
      </trkpt>
      <trkpt lat="48.70419" lon="7.28287">
        <ele>274.631104</ele>
        <time>2010-06-26T13:23:50Z</time>
      </trkpt>
      <trkpt lat="48.70404" lon="7.28278">
        <ele>269.404541</ele>
        <time>2010-06-26T13:23:56Z</time>
      </trkpt>
      <trkpt lat="48.70391" lon="7.28278">
        <ele>266.943604</ele>
        <time>2010-06-26T13:23:59Z</time>
      </trkpt>
      <trkpt lat="48.70377" lon="7.28279">
        <ele>265.037354</ele>
        <time>2010-06-26T13:24:05Z</time>
      </trkpt>
      <trkpt lat="48.70364" lon="7.28279">
        <ele>263.412354</ele>
        <time>2010-06-26T13:24:41Z</time>
      </trkpt>
      <trkpt lat="48.70377" lon="7.28272">
        <ele>263.545166</ele>
        <time>2010-06-26T13:25:54Z</time>
      </trkpt>
      <trkpt lat="48.70374" lon="7.2825">
        <ele>267.810791</ele>
        <time>2010-06-26T13:26:21Z</time>
      </trkpt>
      <trkpt lat="48.70375" lon="7.28227">
        <ele>268.810791</ele>
        <time>2010-06-26T13:26:26Z</time>
      </trkpt>
      <trkpt lat="48.70363" lon="7.28211">
        <ele>270.865479</ele>
        <time>2010-06-26T13:26:32Z</time>
      </trkpt>
      <trkpt lat="48.70358" lon="7.28192">
        <ele>274.279541</ele>
        <time>2010-06-26T13:26:38Z</time>
      </trkpt>
      <trkpt lat="48.70355" lon="7.28169">
        <ele>277.482666</ele>
        <time>2010-06-26T13:26:47Z</time>
      </trkpt>
      <trkpt lat="48.70352" lon="7.2815">
        <ele>281.193604</ele>
        <time>2010-06-26T13:26:58Z</time>
      </trkpt>
      <trkpt lat="48.70343" lon="7.28135">
        <ele>283.904541</ele>
        <time>2010-06-26T13:27:07Z</time>
      </trkpt>
      <trkpt lat="48.70335" lon="7.28116">
        <ele>288.912354</ele>
        <time>2010-06-26T13:27:18Z</time>
      </trkpt>
      <trkpt lat="48.70331" lon="7.28097">
        <ele>292.060791</ele>
        <time>2010-06-26T13:27:26Z</time>
      </trkpt>
      <trkpt lat="48.70321" lon="7.2808">
        <ele>293.717041</ele>
        <time>2010-06-26T13:27:36Z</time>
      </trkpt>
      <trkpt lat="48.70315" lon="7.28058">
        <ele>297.357666</ele>
        <time>2010-06-26T13:27:47Z</time>
      </trkpt>
      <trkpt lat="48.70308" lon="7.2804">
        <ele>300.748291</ele>
        <time>2010-06-26T13:27:56Z</time>
      </trkpt>
      <trkpt lat="48.703" lon="7.28023">
        <ele>304.482666</ele>
        <time>2010-06-26T13:28:18Z</time>
      </trkpt>
      <trkpt lat="48.70288" lon="7.28008">
        <ele>304.545166</ele>
        <time>2010-06-26T13:28:26Z</time>
      </trkpt>
      <trkpt lat="48.70279" lon="7.2799">
        <ele>304.388916</ele>
        <time>2010-06-26T13:28:30Z</time>
      </trkpt>
      <trkpt lat="48.70272" lon="7.2797">
        <ele>304.092041</ele>
        <time>2010-06-26T13:28:35Z</time>
      </trkpt>
      <trkpt lat="48.70261" lon="7.2795">
        <ele>303.302979</ele>
        <time>2010-06-26T13:28:40Z</time>
      </trkpt>
      <trkpt lat="48.7025" lon="7.27933">
        <ele>302.677979</ele>
        <time>2010-06-26T13:28:44Z</time>
      </trkpt>
      <trkpt lat="48.70237" lon="7.2792">
        <ele>301.654541</ele>
        <time>2010-06-26T13:28:47Z</time>
      </trkpt>
      <trkpt lat="48.70224" lon="7.27902">
        <ele>300.959229</ele>
        <time>2010-06-26T13:28:51Z</time>
      </trkpt>
      <trkpt lat="48.70214" lon="7.27882">
        <ele>300.709229</ele>
        <time>2010-06-26T13:28:55Z</time>
      </trkpt>
      <trkpt lat="48.70201" lon="7.27863">
        <ele>300.834229</ele>
        <time>2010-06-26T13:28:59Z</time>
      </trkpt>
      <trkpt lat="48.7019" lon="7.27847">
        <ele>300.701416</ele>
        <time>2010-06-26T13:29:02Z</time>
      </trkpt>
      <trkpt lat="48.70181" lon="7.2783">
        <ele>299.584229</ele>
        <time>2010-06-26T13:29:06Z</time>
      </trkpt>
      <trkpt lat="48.7017" lon="7.27813">
        <ele>299.123291</ele>
        <time>2010-06-26T13:29:09Z</time>
      </trkpt>
      <trkpt lat="48.70158" lon="7.27799">
        <ele>299.162354</ele>
        <time>2010-06-26T13:29:12Z</time>
      </trkpt>
      <trkpt lat="48.70146" lon="7.27787">
        <ele>298.545166</ele>
        <time>2010-06-26T13:29:15Z</time>
      </trkpt>
      <trkpt lat="48.70132" lon="7.27771">
        <ele>297.506104</ele>
        <time>2010-06-26T13:29:18Z</time>
      </trkpt>
      <trkpt lat="48.7011" lon="7.27756">
        <ele>295.623291</ele>
        <time>2010-06-26T13:29:21Z</time>
      </trkpt>
      <trkpt lat="48.70095" lon="7.27739">
        <ele>293.029541</ele>
        <time>2010-06-26T13:29:25Z</time>
      </trkpt>
      <trkpt lat="48.70083" lon="7.27718">
        <ele>285.021729</ele>
        <time>2010-06-26T13:29:27Z</time>
      </trkpt>
      <trkpt lat="48.7007" lon="7.27707">
        <ele>282.920166</ele>
        <time>2010-06-26T13:29:30Z</time>
      </trkpt>
      <trkpt lat="48.7006" lon="7.27693">
        <ele>279.115479</ele>
        <time>2010-06-26T13:29:34Z</time>
      </trkpt>
      <trkpt lat="48.70055" lon="7.27673">
        <ele>277.240479</ele>
        <time>2010-06-26T13:29:41Z</time>
      </trkpt>
      <trkpt lat="48.70049" lon="7.27653">
        <ele>276.451416</ele>
        <time>2010-06-26T13:29:48Z</time>
      </trkpt>
      <trkpt lat="48.70043" lon="7.27631">
        <ele>273.631104</ele>
        <time>2010-06-26T13:29:54Z</time>
      </trkpt>
      <trkpt lat="48.70033" lon="7.27617">
        <ele>271.123291</ele>
        <time>2010-06-26T13:29:58Z</time>
      </trkpt>
      <trkpt lat="48.70024" lon="7.27597">
        <ele>270.092041</ele>
        <time>2010-06-26T13:30:03Z</time>
      </trkpt>
      <trkpt lat="48.70017" lon="7.27578">
        <ele>269.131104</ele>
        <time>2010-06-26T13:30:07Z</time>
      </trkpt>
      <trkpt lat="48.70012" lon="7.27558">
        <ele>267.974854</ele>
        <time>2010-06-26T13:30:25Z</time>
      </trkpt>
      <trkpt lat="48.70005" lon="7.27541">
        <ele>271.162354</ele>
        <time>2010-06-26T13:30:52Z</time>
      </trkpt>
      <trkpt lat="48.69994" lon="7.27528">
        <ele>270.482666</ele>
        <time>2010-06-26T13:31:01Z</time>
      </trkpt>
      <trkpt lat="48.69982" lon="7.27521">
        <ele>270.146729</ele>
        <time>2010-06-26T13:31:06Z</time>
      </trkpt>
      <trkpt lat="48.69969" lon="7.27508">
        <ele>270.638916</ele>
        <time>2010-06-26T13:31:12Z</time>
      </trkpt>
      <trkpt lat="48.69955" lon="7.27506">
        <ele>271.052979</ele>
        <time>2010-06-26T13:31:18Z</time>
      </trkpt>
      <trkpt lat="48.69941" lon="7.27505">
        <ele>273.177979</ele>
        <time>2010-06-26T13:31:23Z</time>
      </trkpt>
      <trkpt lat="48.69927" lon="7.27505">
        <ele>273.818604</ele>
        <time>2010-06-26T13:31:28Z</time>
      </trkpt>
      <trkpt lat="48.69913" lon="7.2751">
        <ele>274.193604</ele>
        <time>2010-06-26T13:31:33Z</time>
      </trkpt>
      <trkpt lat="48.69899" lon="7.27513">
        <ele>275.967041</ele>
        <time>2010-06-26T13:31:44Z</time>
      </trkpt>
      <trkpt lat="48.69885" lon="7.27515">
        <ele>276.732666</ele>
        <time>2010-06-26T13:32:04Z</time>
      </trkpt>
      <trkpt lat="48.69872" lon="7.27521">
        <ele>275.490479</ele>
        <time>2010-06-26T13:32:16Z</time>
      </trkpt>
      <trkpt lat="48.69858" lon="7.27512">
        <ele>273.052979</ele>
        <time>2010-06-26T13:32:41Z</time>
      </trkpt>
      <trkpt lat="48.69843" lon="7.27516">
        <ele>274.912354</ele>
        <time>2010-06-26T13:32:50Z</time>
      </trkpt>
      <trkpt lat="48.69828" lon="7.27514">
        <ele>273.763916</ele>
        <time>2010-06-26T13:32:56Z</time>
      </trkpt>
      <trkpt lat="48.69815" lon="7.27506">
        <ele>274.021729</ele>
        <time>2010-06-26T13:33:02Z</time>
      </trkpt>
      <trkpt lat="48.69801" lon="7.27498">
        <ele>275.974854</ele>
        <time>2010-06-26T13:33:09Z</time>
      </trkpt>
      <trkpt lat="48.69788" lon="7.27493">
        <ele>278.482666</ele>
        <time>2010-06-26T13:33:16Z</time>
      </trkpt>
      <trkpt lat="48.69775" lon="7.27484">
        <ele>280.107666</ele>
        <time>2010-06-26T13:33:27Z</time>
      </trkpt>
      <trkpt lat="48.69764" lon="7.27472">
        <ele>282.967041</ele>
        <time>2010-06-26T13:33:34Z</time>
      </trkpt>
      <trkpt lat="48.69749" lon="7.27466">
        <ele>287.060791</ele>
        <time>2010-06-26T13:33:42Z</time>
      </trkpt>
      <trkpt lat="48.69736" lon="7.27455">
        <ele>289.295166</ele>
        <time>2010-06-26T13:33:49Z</time>
      </trkpt>
      <trkpt lat="48.69722" lon="7.27447">
        <ele>293.224854</ele>
        <time>2010-06-26T13:33:58Z</time>
      </trkpt>
      <trkpt lat="48.69709" lon="7.27446">
        <ele>293.724854</ele>
        <time>2010-06-26T13:34:04Z</time>
      </trkpt>
      <trkpt lat="48.69701" lon="7.27426">
        <ele>295.146729</ele>
        <time>2010-06-26T13:34:11Z</time>
      </trkpt>
      <trkpt lat="48.69688" lon="7.27419">
        <ele>295.959229</ele>
        <time>2010-06-26T13:34:16Z</time>
      </trkpt>
      <trkpt lat="48.69675" lon="7.2741">
        <ele>295.935791</ele>
        <time>2010-06-26T13:34:21Z</time>
      </trkpt>
      <trkpt lat="48.69664" lon="7.27397">
        <ele>295.560791</ele>
        <time>2010-06-26T13:34:27Z</time>
      </trkpt>
      <trkpt lat="48.69653" lon="7.27383">
        <ele>292.670166</ele>
        <time>2010-06-26T13:34:34Z</time>
      </trkpt>
      <trkpt lat="48.69644" lon="7.27367">
        <ele>290.849854</ele>
        <time>2010-06-26T13:34:47Z</time>
      </trkpt>
      <trkpt lat="48.6963" lon="7.27358">
        <ele>289.318604</ele>
        <time>2010-06-26T13:34:57Z</time>
      </trkpt>
      <trkpt lat="48.69616" lon="7.2735">
        <ele>284.834229</ele>
        <time>2010-06-26T13:35:03Z</time>
      </trkpt>
      <trkpt lat="48.69601" lon="7.27351">
        <ele>285.240479</ele>
        <time>2010-06-26T13:35:07Z</time>
      </trkpt>
      <trkpt lat="48.69584" lon="7.27352">
        <ele>284.420166</ele>
        <time>2010-06-26T13:35:10Z</time>
      </trkpt>
      <trkpt lat="48.69571" lon="7.27342">
        <ele>282.052979</ele>
        <time>2010-06-26T13:35:15Z</time>
      </trkpt>
      <trkpt lat="48.69557" lon="7.27341">
        <ele>281.795166</ele>
        <time>2010-06-26T13:35:21Z</time>
      </trkpt>
      <trkpt lat="48.69543" lon="7.27333">
        <ele>282.185791</ele>
        <time>2010-06-26T13:35:44Z</time>
      </trkpt>
      <trkpt lat="48.6953" lon="7.27327">
        <ele>285.982666</ele>
        <time>2010-06-26T13:36:01Z</time>
      </trkpt>
      <trkpt lat="48.69519" lon="7.27315">
        <ele>289.310791</ele>
        <time>2010-06-26T13:36:13Z</time>
      </trkpt>
      <trkpt lat="48.69506" lon="7.27307">
        <ele>289.123291</ele>
        <time>2010-06-26T13:36:19Z</time>
      </trkpt>
      <trkpt lat="48.69493" lon="7.27298">
        <ele>288.943604</ele>
        <time>2010-06-26T13:36:26Z</time>
      </trkpt>
      <trkpt lat="48.69481" lon="7.27284">
        <ele>289.654541</ele>
        <time>2010-06-26T13:36:35Z</time>
      </trkpt>
      <trkpt lat="48.69467" lon="7.27276">
        <ele>290.513916</ele>
        <time>2010-06-26T13:36:42Z</time>
      </trkpt>
      <trkpt lat="48.69455" lon="7.27267">
        <ele>290.967041</ele>
        <time>2010-06-26T13:36:53Z</time>
      </trkpt>
      <trkpt lat="48.69441" lon="7.27259">
        <ele>290.224854</ele>
        <time>2010-06-26T13:36:58Z</time>
      </trkpt>
      <trkpt lat="48.69426" lon="7.27252">
        <ele>291.138916</ele>
        <time>2010-06-26T13:37:04Z</time>
      </trkpt>
      <trkpt lat="48.69416" lon="7.27238">
        <ele>292.052979</ele>
        <time>2010-06-26T13:37:26Z</time>
      </trkpt>
      <trkpt lat="48.69405" lon="7.27226">
        <ele>292.545166</ele>
        <time>2010-06-26T13:37:43Z</time>
      </trkpt>
      <trkpt lat="48.69391" lon="7.27219">
        <ele>292.545166</ele>
        <time>2010-06-26T13:37:49Z</time>
      </trkpt>
      <trkpt lat="48.69379" lon="7.27203">
        <ele>294.873291</ele>
        <time>2010-06-26T13:37:58Z</time>
      </trkpt>
      <trkpt lat="48.69366" lon="7.27195">
        <ele>296.006104</ele>
        <time>2010-06-26T13:38:03Z</time>
      </trkpt>
      <trkpt lat="48.69355" lon="7.27177">
        <ele>298.029541</ele>
        <time>2010-06-26T13:38:11Z</time>
      </trkpt>
      <trkpt lat="48.69344" lon="7.27164">
        <ele>297.818604</ele>
        <time>2010-06-26T13:38:18Z</time>
      </trkpt>
      <trkpt lat="48.69333" lon="7.27152">
        <ele>298.404541</ele>
        <time>2010-06-26T13:38:25Z</time>
      </trkpt>
      <trkpt lat="48.6932" lon="7.27142">
        <ele>299.849854</ele>
        <time>2010-06-26T13:38:34Z</time>
      </trkpt>
      <trkpt lat="48.6931" lon="7.27128">
        <ele>298.607666</ele>
        <time>2010-06-26T13:38:42Z</time>
      </trkpt>
      <trkpt lat="48.69295" lon="7.27121">
        <ele>296.592041</ele>
        <time>2010-06-26T13:38:47Z</time>
      </trkpt>
      <trkpt lat="48.69281" lon="7.27116">
        <ele>295.467041</ele>
        <time>2010-06-26T13:38:50Z</time>
      </trkpt>
      <trkpt lat="48.69265" lon="7.27115">
        <ele>291.029541</ele>
        <time>2010-06-26T13:38:54Z</time>
      </trkpt>
      <trkpt lat="48.69255" lon="7.27127">
        <ele>295.967041</ele>
        <time>2010-06-26T13:40:01Z</time>
      </trkpt>
      <trkpt lat="48.69252" lon="7.27107">
        <ele>294.201416</ele>
        <time>2010-06-26T13:40:55Z</time>
      </trkpt>
      <trkpt lat="48.69251" lon="7.27083">
        <ele>294.076416</ele>
        <time>2010-06-26T13:41:00Z</time>
      </trkpt>
      <trkpt lat="48.69249" lon="7.27059">
        <ele>292.834229</ele>
        <time>2010-06-26T13:41:05Z</time>
      </trkpt>
      <trkpt lat="48.69247" lon="7.27036">
        <ele>294.670166</ele>
        <time>2010-06-26T13:41:10Z</time>
      </trkpt>
      <trkpt lat="48.69244" lon="7.27014">
        <ele>296.334229</ele>
        <time>2010-06-26T13:41:15Z</time>
      </trkpt>
      <trkpt lat="48.69246" lon="7.26993">
        <ele>297.576416</ele>
        <time>2010-06-26T13:41:20Z</time>
      </trkpt>
      <trkpt lat="48.69247" lon="7.26971">
        <ele>300.310791</ele>
        <time>2010-06-26T13:41:25Z</time>
      </trkpt>
      <trkpt lat="48.69249" lon="7.26949">
        <ele>304.013916</ele>
        <time>2010-06-26T13:41:31Z</time>
      </trkpt>
      <trkpt lat="48.69249" lon="7.26928">
        <ele>307.888916</ele>
        <time>2010-06-26T13:41:37Z</time>
      </trkpt>
      <trkpt lat="48.69241" lon="7.2691">
        <ele>309.248291</ele>
        <time>2010-06-26T13:41:43Z</time>
      </trkpt>
      <trkpt lat="48.69228" lon="7.26899">
        <ele>306.365479</ele>
        <time>2010-06-26T13:42:25Z</time>
      </trkpt>
      <trkpt lat="48.69215" lon="7.26892">
        <ele>304.302979</ele>
        <time>2010-06-26T13:42:51Z</time>
      </trkpt>
      <trkpt lat="48.69204" lon="7.26879">
        <ele>304.084229</ele>
        <time>2010-06-26T13:43:03Z</time>
      </trkpt>
      <trkpt lat="48.69196" lon="7.26861">
        <ele>306.115479</ele>
        <time>2010-06-26T13:43:18Z</time>
      </trkpt>
      <trkpt lat="48.69191" lon="7.26842">
        <ele>311.670166</ele>
        <time>2010-06-26T13:43:40Z</time>
      </trkpt>
      <trkpt lat="48.69177" lon="7.26832">
        <ele>314.177979</ele>
        <time>2010-06-26T13:43:49Z</time>
      </trkpt>
      <trkpt lat="48.69168" lon="7.26815">
        <ele>316.107666</ele>
        <time>2010-06-26T13:44:01Z</time>
      </trkpt>
      <trkpt lat="48.69157" lon="7.26804">
        <ele>315.451416</ele>
        <time>2010-06-26T13:44:11Z</time>
      </trkpt>
      <trkpt lat="48.69146" lon="7.26787">
        <ele>315.029541</ele>
        <time>2010-06-26T13:44:23Z</time>
      </trkpt>
      <trkpt lat="48.69137" lon="7.26771">
        <ele>318.021729</ele>
        <time>2010-06-26T13:44:38Z</time>
      </trkpt>
      <trkpt lat="48.69125" lon="7.26764">
        <ele>323.131104</ele>
        <time>2010-06-26T13:44:49Z</time>
      </trkpt>
      <trkpt lat="48.69111" lon="7.26755">
        <ele>325.529541</ele>
        <time>2010-06-26T13:44:59Z</time>
      </trkpt>
      <trkpt lat="48.691" lon="7.26743">
        <ele>329.951416</ele>
        <time>2010-06-26T13:45:09Z</time>
      </trkpt>
      <trkpt lat="48.69088" lon="7.2673">
        <ele>331.865479</ele>
        <time>2010-06-26T13:45:20Z</time>
      </trkpt>
      <trkpt lat="48.69079" lon="7.26715">
        <ele>333.287354</ele>
        <time>2010-06-26T13:45:30Z</time>
      </trkpt>
      <trkpt lat="48.6907" lon="7.26699">
        <ele>333.810791</ele>
        <time>2010-06-26T13:45:40Z</time>
      </trkpt>
      <trkpt lat="48.69061" lon="7.26683">
        <ele>337.381104</ele>
        <time>2010-06-26T13:45:53Z</time>
      </trkpt>
      <trkpt lat="48.69048" lon="7.26673">
        <ele>338.162354</ele>
        <time>2010-06-26T13:45:59Z</time>
      </trkpt>
      <trkpt lat="48.69033" lon="7.26664">
        <ele>339.482666</ele>
        <time>2010-06-26T13:46:09Z</time>
      </trkpt>
      <trkpt lat="48.69021" lon="7.26652">
        <ele>338.826416</ele>
        <time>2010-06-26T13:46:22Z</time>
      </trkpt>
      <trkpt lat="48.6901" lon="7.2664">
        <ele>341.818604</ele>
        <time>2010-06-26T13:46:35Z</time>
      </trkpt>
      <trkpt lat="48.68997" lon="7.26633">
        <ele>344.412354</ele>
        <time>2010-06-26T13:46:49Z</time>
      </trkpt>
      <trkpt lat="48.68984" lon="7.26622">
        <ele>342.373291</ele>
        <time>2010-06-26T13:47:02Z</time>
      </trkpt>
      <trkpt lat="48.6897" lon="7.26621">
        <ele>340.701416</ele>
        <time>2010-06-26T13:47:10Z</time>
      </trkpt>
      <trkpt lat="48.68956" lon="7.26617">
        <ele>339.810791</ele>
        <time>2010-06-26T13:47:18Z</time>
      </trkpt>
      <trkpt lat="48.68944" lon="7.26607">
        <ele>344.701416</ele>
        <time>2010-06-26T13:47:30Z</time>
      </trkpt>
      <trkpt lat="48.68931" lon="7.26601">
        <ele>348.373291</ele>
        <time>2010-06-26T13:47:40Z</time>
      </trkpt>
      <trkpt lat="48.68919" lon="7.2659">
        <ele>348.560791</ele>
        <time>2010-06-26T13:47:52Z</time>
      </trkpt>
      <trkpt lat="48.68906" lon="7.26583">
        <ele>348.763916</ele>
        <time>2010-06-26T13:48:02Z</time>
      </trkpt>
      <trkpt lat="48.68894" lon="7.26575">
        <ele>347.568604</ele>
        <time>2010-06-26T13:48:15Z</time>
      </trkpt>
      <trkpt lat="48.6888" lon="7.2657">
        <ele>348.545166</ele>
        <time>2010-06-26T13:48:25Z</time>
      </trkpt>
      <trkpt lat="48.68868" lon="7.2656">
        <ele>349.709229</ele>
        <time>2010-06-26T13:48:38Z</time>
      </trkpt>
      <trkpt lat="48.68855" lon="7.26552">
        <ele>351.599854</ele>
        <time>2010-06-26T13:48:53Z</time>
      </trkpt>
      <trkpt lat="48.6884" lon="7.26548">
        <ele>350.506104</ele>
        <time>2010-06-26T13:49:03Z</time>
      </trkpt>
      <trkpt lat="48.68827" lon="7.26542">
        <ele>352.779541</ele>
        <time>2010-06-26T13:49:14Z</time>
      </trkpt>
      <trkpt lat="48.68815" lon="7.26535">
        <ele>357.693604</ele>
        <time>2010-06-26T13:49:26Z</time>
      </trkpt>
      <trkpt lat="48.68802" lon="7.26531">
        <ele>359.795166</ele>
        <time>2010-06-26T13:49:40Z</time>
      </trkpt>
      <trkpt lat="48.68787" lon="7.26528">
        <ele>359.607666</ele>
        <time>2010-06-26T13:50:35Z</time>
      </trkpt>
      <trkpt lat="48.68773" lon="7.26523">
        <ele>360.349854</ele>
        <time>2010-06-26T13:50:41Z</time>
      </trkpt>
      <trkpt lat="48.68761" lon="7.26515">
        <ele>362.584229</ele>
        <time>2010-06-26T13:50:51Z</time>
      </trkpt>
      <trkpt lat="48.68744" lon="7.26507">
        <ele>363.529541</ele>
        <time>2010-06-26T13:51:01Z</time>
      </trkpt>
      <trkpt lat="48.6873" lon="7.26499">
        <ele>364.787354</ele>
        <time>2010-06-26T13:51:10Z</time>
      </trkpt>
      <trkpt lat="48.68715" lon="7.26493">
        <ele>367.170166</ele>
        <time>2010-06-26T13:51:19Z</time>
      </trkpt>
      <trkpt lat="48.68701" lon="7.26482">
        <ele>369.232666</ele>
        <time>2010-06-26T13:51:25Z</time>
      </trkpt>
      <trkpt lat="48.68689" lon="7.26473">
        <ele>372.685791</ele>
        <time>2010-06-26T13:51:34Z</time>
      </trkpt>
      <trkpt lat="48.68672" lon="7.26469">
        <ele>374.326416</ele>
        <time>2010-06-26T13:51:40Z</time>
      </trkpt>
      <trkpt lat="48.68656" lon="7.26463">
        <ele>375.654541</ele>
        <time>2010-06-26T13:51:45Z</time>
      </trkpt>
      <trkpt lat="48.68642" lon="7.26458">
        <ele>374.115479</ele>
        <time>2010-06-26T13:51:52Z</time>
      </trkpt>
      <trkpt lat="48.68627" lon="7.26455">
        <ele>373.123291</ele>
        <time>2010-06-26T13:51:59Z</time>
      </trkpt>
      <trkpt lat="48.68612" lon="7.26452">
        <ele>370.342041</ele>
        <time>2010-06-26T13:53:23Z</time>
      </trkpt>
      <trkpt lat="48.68597" lon="7.26449">
        <ele>369.787354</ele>
        <time>2010-06-26T13:53:34Z</time>
      </trkpt>
      <trkpt lat="48.68584" lon="7.26445">
        <ele>370.334229</ele>
        <time>2010-06-26T13:53:42Z</time>
      </trkpt>
      <trkpt lat="48.6857" lon="7.26442">
        <ele>372.521729</ele>
        <time>2010-06-26T13:53:50Z</time>
      </trkpt>
      <trkpt lat="48.68557" lon="7.26432">
        <ele>372.310791</ele>
        <time>2010-06-26T13:53:58Z</time>
      </trkpt>
      <trkpt lat="48.68545" lon="7.26423">
        <ele>375.256104</ele>
        <time>2010-06-26T13:54:06Z</time>
      </trkpt>
      <trkpt lat="48.68531" lon="7.26424">
        <ele>375.146729</ele>
        <time>2010-06-26T13:54:11Z</time>
      </trkpt>
      <trkpt lat="48.68518" lon="7.26422">
        <ele>375.162354</ele>
        <time>2010-06-26T13:54:17Z</time>
      </trkpt>
      <trkpt lat="48.685" lon="7.26419">
        <ele>375.834229</ele>
        <time>2010-06-26T13:54:24Z</time>
      </trkpt>
      <trkpt lat="48.68485" lon="7.26411">
        <ele>377.482666</ele>
        <time>2010-06-26T13:54:31Z</time>
      </trkpt>
      <trkpt lat="48.68471" lon="7.26412">
        <ele>379.279541</ele>
        <time>2010-06-26T13:54:41Z</time>
      </trkpt>
      <trkpt lat="48.68456" lon="7.26413">
        <ele>379.935791</ele>
        <time>2010-06-26T13:54:47Z</time>
      </trkpt>
      <trkpt lat="48.68439" lon="7.26415">
        <ele>379.287354</ele>
        <time>2010-06-26T13:54:55Z</time>
      </trkpt>
      <trkpt lat="48.68426" lon="7.26415">
        <ele>380.865479</ele>
        <time>2010-06-26T13:55:04Z</time>
      </trkpt>
      <trkpt lat="48.68411" lon="7.26416">
        <ele>380.935791</ele>
        <time>2010-06-26T13:55:10Z</time>
      </trkpt>
      <trkpt lat="48.68398" lon="7.26421">
        <ele>380.427979</ele>
        <time>2010-06-26T13:55:18Z</time>
      </trkpt>
      <trkpt lat="48.68385" lon="7.26426">
        <ele>381.021729</ele>
        <time>2010-06-26T13:55:24Z</time>
      </trkpt>
      <trkpt lat="48.68372" lon="7.26433">
        <ele>379.904541</ele>
        <time>2010-06-26T13:55:31Z</time>
      </trkpt>
      <trkpt lat="48.68357" lon="7.26437">
        <ele>379.943604</ele>
        <time>2010-06-26T13:55:39Z</time>
      </trkpt>
      <trkpt lat="48.68344" lon="7.26442">
        <ele>380.357666</ele>
        <time>2010-06-26T13:55:48Z</time>
      </trkpt>
      <trkpt lat="48.6833" lon="7.26444">
        <ele>381.420166</ele>
        <time>2010-06-26T13:55:54Z</time>
      </trkpt>
      <trkpt lat="48.68316" lon="7.26448">
        <ele>381.943604</ele>
        <time>2010-06-26T13:56:01Z</time>
      </trkpt>
      <trkpt lat="48.68302" lon="7.26447">
        <ele>384.388916</ele>
        <time>2010-06-26T13:56:09Z</time>
      </trkpt>
      <trkpt lat="48.68288" lon="7.26446">
        <ele>387.756104</ele>
        <time>2010-06-26T13:56:14Z</time>
      </trkpt>
      <trkpt lat="48.68274" lon="7.26447">
        <ele>389.599854</ele>
        <time>2010-06-26T13:56:21Z</time>
      </trkpt>
      <trkpt lat="48.6826" lon="7.26453">
        <ele>390.834229</ele>
        <time>2010-06-26T13:56:28Z</time>
      </trkpt>
      <trkpt lat="48.68247" lon="7.26455">
        <ele>393.248291</ele>
        <time>2010-06-26T13:56:35Z</time>
      </trkpt>
      <trkpt lat="48.68233" lon="7.26448">
        <ele>395.709229</ele>
        <time>2010-06-26T13:56:42Z</time>
      </trkpt>
      <trkpt lat="48.68219" lon="7.26451">
        <ele>396.404541</ele>
        <time>2010-06-26T13:56:48Z</time>
      </trkpt>
      <trkpt lat="48.68204" lon="7.2645">
        <ele>397.256104</ele>
        <time>2010-06-26T13:56:55Z</time>
      </trkpt>
      <trkpt lat="48.6819" lon="7.26454">
        <ele>398.646729</ele>
        <time>2010-06-26T13:57:04Z</time>
      </trkpt>
      <trkpt lat="48.68176" lon="7.26455">
        <ele>398.646729</ele>
        <time>2010-06-26T13:57:10Z</time>
      </trkpt>
      <trkpt lat="48.68162" lon="7.26458">
        <ele>398.974854</ele>
        <time>2010-06-26T13:57:19Z</time>
      </trkpt>
      <trkpt lat="48.68147" lon="7.26462">
        <ele>399.857666</ele>
        <time>2010-06-26T13:57:29Z</time>
      </trkpt>
      <trkpt lat="48.68133" lon="7.26465">
        <ele>399.935791</ele>
        <time>2010-06-26T13:57:35Z</time>
      </trkpt>
      <trkpt lat="48.68119" lon="7.2647">
        <ele>400.435791</ele>
        <time>2010-06-26T13:57:44Z</time>
      </trkpt>
      <trkpt lat="48.68104" lon="7.26473">
        <ele>400.967041</ele>
        <time>2010-06-26T13:57:52Z</time>
      </trkpt>
      <trkpt lat="48.6809" lon="7.26476">
        <ele>402.545166</ele>
        <time>2010-06-26T13:58:00Z</time>
      </trkpt>
      <trkpt lat="48.68077" lon="7.2647">
        <ele>405.404541</ele>
        <time>2010-06-26T13:58:10Z</time>
      </trkpt>
      <trkpt lat="48.68062" lon="7.2647">
        <ele>407.529541</ele>
        <time>2010-06-26T13:58:17Z</time>
      </trkpt>
      <trkpt lat="48.68049" lon="7.26466">
        <ele>410.427979</ele>
        <time>2010-06-26T13:58:27Z</time>
      </trkpt>
      <trkpt lat="48.68034" lon="7.26462">
        <ele>411.927979</ele>
        <time>2010-06-26T13:58:35Z</time>
      </trkpt>
      <trkpt lat="48.6802" lon="7.26465">
        <ele>412.490479</ele>
        <time>2010-06-26T13:58:43Z</time>
      </trkpt>
      <trkpt lat="48.68005" lon="7.26465">
        <ele>413.873291</ele>
        <time>2010-06-26T13:58:49Z</time>
      </trkpt>
      <trkpt lat="48.67992" lon="7.26461">
        <ele>415.927979</ele>
        <time>2010-06-26T13:58:58Z</time>
      </trkpt>
      <trkpt lat="48.67977" lon="7.26461">
        <ele>417.310791</ele>
        <time>2010-06-26T13:59:07Z</time>
      </trkpt>
      <trkpt lat="48.67963" lon="7.2646">
        <ele>418.826416</ele>
        <time>2010-06-26T13:59:14Z</time>
      </trkpt>
      <trkpt lat="48.6795" lon="7.26461">
        <ele>419.701416</ele>
        <time>2010-06-26T13:59:23Z</time>
      </trkpt>
      <trkpt lat="48.67935" lon="7.26458">
        <ele>421.193604</ele>
        <time>2010-06-26T13:59:33Z</time>
      </trkpt>
      <trkpt lat="48.67921" lon="7.26456">
        <ele>422.529541</ele>
        <time>2010-06-26T13:59:41Z</time>
      </trkpt>
      <trkpt lat="48.67907" lon="7.26449">
        <ele>424.779541</ele>
        <time>2010-06-26T13:59:52Z</time>
      </trkpt>
      <trkpt lat="48.67893" lon="7.26447">
        <ele>424.810791</ele>
        <time>2010-06-26T13:59:58Z</time>
      </trkpt>
      <trkpt lat="48.6788" lon="7.26441">
        <ele>424.654541</ele>
        <time>2010-06-26T14:00:07Z</time>
      </trkpt>
      <trkpt lat="48.67865" lon="7.26438">
        <ele>426.740479</ele>
        <time>2010-06-26T14:00:16Z</time>
      </trkpt>
      <trkpt lat="48.67852" lon="7.26434">
        <ele>428.607666</ele>
        <time>2010-06-26T14:00:26Z</time>
      </trkpt>
      <trkpt lat="48.67838" lon="7.26424">
        <ele>430.482666</ele>
        <time>2010-06-26T14:00:40Z</time>
      </trkpt>
      <trkpt lat="48.67824" lon="7.26417">
        <ele>429.599854</ele>
        <time>2010-06-26T14:00:45Z</time>
      </trkpt>
      <trkpt lat="48.67812" lon="7.26409">
        <ele>434.724854</ele>
        <time>2010-06-26T14:00:55Z</time>
      </trkpt>
      <trkpt lat="48.67797" lon="7.26403">
        <ele>437.623291</ele>
        <time>2010-06-26T14:01:04Z</time>
      </trkpt>
      <trkpt lat="48.67783" lon="7.26393">
        <ele>438.068604</ele>
        <time>2010-06-26T14:01:11Z</time>
      </trkpt>
      <trkpt lat="48.67769" lon="7.26389">
        <ele>437.904541</ele>
        <time>2010-06-26T14:01:18Z</time>
      </trkpt>
      <trkpt lat="48.67756" lon="7.26383">
        <ele>438.865479</ele>
        <time>2010-06-26T14:01:25Z</time>
      </trkpt>
      <trkpt lat="48.67743" lon="7.26371">
        <ele>441.560791</ele>
        <time>2010-06-26T14:01:34Z</time>
      </trkpt>
      <trkpt lat="48.67733" lon="7.26357">
        <ele>444.998291</ele>
        <time>2010-06-26T14:01:41Z</time>
      </trkpt>
      <trkpt lat="48.67719" lon="7.26347">
        <ele>446.685791</ele>
        <time>2010-06-26T14:01:49Z</time>
      </trkpt>
      <trkpt lat="48.67707" lon="7.26332">
        <ele>446.365479</ele>
        <time>2010-06-26T14:01:57Z</time>
      </trkpt>
      <trkpt lat="48.67695" lon="7.26323">
        <ele>446.365479</ele>
        <time>2010-06-26T14:02:04Z</time>
      </trkpt>
      <trkpt lat="48.67685" lon="7.26309">
        <ele>447.912354</ele>
        <time>2010-06-26T14:02:13Z</time>
      </trkpt>
      <trkpt lat="48.67674" lon="7.26295">
        <ele>448.638916</ele>
        <time>2010-06-26T14:02:23Z</time>
      </trkpt>
      <trkpt lat="48.67662" lon="7.26282">
        <ele>449.467041</ele>
        <time>2010-06-26T14:02:31Z</time>
      </trkpt>
      <trkpt lat="48.67654" lon="7.26262">
        <ele>451.193604</ele>
        <time>2010-06-26T14:02:44Z</time>
      </trkpt>
      <trkpt lat="48.67643" lon="7.26251">
        <ele>453.138916</ele>
        <time>2010-06-26T14:02:52Z</time>
      </trkpt>
      <trkpt lat="48.67635" lon="7.26231">
        <ele>455.904541</ele>
        <time>2010-06-26T14:03:02Z</time>
      </trkpt>
      <trkpt lat="48.67624" lon="7.26217">
        <ele>456.162354</ele>
        <time>2010-06-26T14:03:08Z</time>
      </trkpt>
      <trkpt lat="48.67617" lon="7.26202">
        <ele>462.021729</ele>
        <time>2010-06-26T14:03:18Z</time>
      </trkpt>
      <trkpt lat="48.67612" lon="7.2618">
        <ele>464.123291</ele>
        <time>2010-06-26T14:03:30Z</time>
      </trkpt>
      <trkpt lat="48.67602" lon="7.26167">
        <ele>460.677979</ele>
        <time>2010-06-26T14:03:46Z</time>
      </trkpt>
      <trkpt lat="48.67613" lon="7.26154">
        <ele>461.334229</ele>
        <time>2010-06-26T14:04:26Z</time>
      </trkpt>
      <trkpt lat="48.676" lon="7.26154">
        <ele>457.326416</ele>
        <time>2010-06-26T14:04:43Z</time>
      </trkpt>
      <trkpt lat="48.67585" lon="7.26141">
        <ele>461.873291</ele>
        <time>2010-06-26T14:05:02Z</time>
      </trkpt>
      <trkpt lat="48.6757" lon="7.26143">
        <ele>463.240479</ele>
        <time>2010-06-26T14:05:17Z</time>
      </trkpt>
      <trkpt lat="48.67569" lon="7.26165">
        <ele>459.677979</ele>
        <time>2010-06-26T14:08:02Z</time>
      </trkpt>
      <trkpt lat="48.67571" lon="7.26188">
        <ele>458.849854</ele>
        <time>2010-06-26T14:08:08Z</time>
      </trkpt>
      <trkpt lat="48.67574" lon="7.26209">
        <ele>457.342041</ele>
        <time>2010-06-26T14:08:12Z</time>
      </trkpt>
      <trkpt lat="48.67581" lon="7.26228">
        <ele>457.513916</ele>
        <time>2010-06-26T14:08:16Z</time>
      </trkpt>
      <trkpt lat="48.67592" lon="7.26247">
        <ele>458.388916</ele>
        <time>2010-06-26T14:08:20Z</time>
      </trkpt>
      <trkpt lat="48.67603" lon="7.26266">
        <ele>462.131104</ele>
        <time>2010-06-26T14:08:24Z</time>
      </trkpt>
      <trkpt lat="48.67613" lon="7.26282">
        <ele>462.818604</ele>
        <time>2010-06-26T14:08:27Z</time>
      </trkpt>
      <trkpt lat="48.67624" lon="7.26299">
        <ele>461.373291</ele>
        <time>2010-06-26T14:08:30Z</time>
      </trkpt>
      <trkpt lat="48.67636" lon="7.26317">
        <ele>461.701416</ele>
        <time>2010-06-26T14:08:33Z</time>
      </trkpt>
      <trkpt lat="48.67648" lon="7.26333">
        <ele>462.896729</ele>
        <time>2010-06-26T14:08:36Z</time>
      </trkpt>
      <trkpt lat="48.67659" lon="7.26348">
        <ele>460.599854</ele>
        <time>2010-06-26T14:08:38Z</time>
      </trkpt>
      <trkpt lat="48.67671" lon="7.26359">
        <ele>461.193604</ele>
        <time>2010-06-26T14:08:40Z</time>
      </trkpt>
      <trkpt lat="48.67682" lon="7.26375">
        <ele>457.982666</ele>
        <time>2010-06-26T14:08:42Z</time>
      </trkpt>
      <trkpt lat="48.67697" lon="7.26381">
        <ele>459.631104</ele>
        <time>2010-06-26T14:08:44Z</time>
      </trkpt>
      <trkpt lat="48.67711" lon="7.26391">
        <ele>458.795166</ele>
        <time>2010-06-26T14:08:46Z</time>
      </trkpt>
      <trkpt lat="48.67724" lon="7.26407">
        <ele>456.248291</ele>
        <time>2010-06-26T14:08:48Z</time>
      </trkpt>
      <trkpt lat="48.67735" lon="7.2642">
        <ele>455.670166</ele>
        <time>2010-06-26T14:08:50Z</time>
      </trkpt>
      <trkpt lat="48.67748" lon="7.26435">
        <ele>453.052979</ele>
        <time>2010-06-26T14:08:52Z</time>
      </trkpt>
      <trkpt lat="48.67761" lon="7.26448">
        <ele>451.920166</ele>
        <time>2010-06-26T14:08:54Z</time>
      </trkpt>
      <trkpt lat="48.67773" lon="7.26458">
        <ele>451.943604</ele>
        <time>2010-06-26T14:08:56Z</time>
      </trkpt>
      <trkpt lat="48.67785" lon="7.26468">
        <ele>451.779541</ele>
        <time>2010-06-26T14:08:58Z</time>
      </trkpt>
      <trkpt lat="48.67798" lon="7.26479">
        <ele>450.935791</ele>
        <time>2010-06-26T14:09:00Z</time>
      </trkpt>
      <trkpt lat="48.67811" lon="7.26492">
        <ele>450.099854</ele>
        <time>2010-06-26T14:09:02Z</time>
      </trkpt>
      <trkpt lat="48.67823" lon="7.26503">
        <ele>449.568604</ele>
        <time>2010-06-26T14:09:04Z</time>
      </trkpt>
      <trkpt lat="48.67836" lon="7.26513">
        <ele>448.615479</ele>
        <time>2010-06-26T14:09:07Z</time>
      </trkpt>
      <trkpt lat="48.67849" lon="7.26522">
        <ele>447.490479</ele>
        <time>2010-06-26T14:09:10Z</time>
      </trkpt>
      <trkpt lat="48.67867" lon="7.2653">
        <ele>445.881104</ele>
        <time>2010-06-26T14:09:14Z</time>
      </trkpt>
      <trkpt lat="48.67882" lon="7.26536">
        <ele>444.857666</ele>
        <time>2010-06-26T14:09:17Z</time>
      </trkpt>
      <trkpt lat="48.67899" lon="7.26543">
        <ele>443.193604</ele>
        <time>2010-06-26T14:09:20Z</time>
      </trkpt>
      <trkpt lat="48.67916" lon="7.26548">
        <ele>442.045166</ele>
        <time>2010-06-26T14:09:23Z</time>
      </trkpt>
      <trkpt lat="48.67934" lon="7.26553">
        <ele>441.920166</ele>
        <time>2010-06-26T14:09:26Z</time>
      </trkpt>
      <trkpt lat="48.67951" lon="7.26558">
        <ele>439.951416</ele>
        <time>2010-06-26T14:09:29Z</time>
      </trkpt>
      <trkpt lat="48.6797" lon="7.26563">
        <ele>440.670166</ele>
        <time>2010-06-26T14:09:32Z</time>
      </trkpt>
      <trkpt lat="48.67989" lon="7.26569">
        <ele>439.959229</ele>
        <time>2010-06-26T14:09:35Z</time>
      </trkpt>
      <trkpt lat="48.68008" lon="7.26574">
        <ele>438.670166</ele>
        <time>2010-06-26T14:09:38Z</time>
      </trkpt>
      <trkpt lat="48.68021" lon="7.26579">
        <ele>437.763916</ele>
        <time>2010-06-26T14:09:40Z</time>
      </trkpt>
      <trkpt lat="48.68035" lon="7.26581">
        <ele>436.506104</ele>
        <time>2010-06-26T14:09:42Z</time>
      </trkpt>
      <trkpt lat="48.68049" lon="7.26584">
        <ele>435.467041</ele>
        <time>2010-06-26T14:09:44Z</time>
      </trkpt>
      <trkpt lat="48.68063" lon="7.26586">
        <ele>434.654541</ele>
        <time>2010-06-26T14:09:46Z</time>
      </trkpt>
      <trkpt lat="48.68076" lon="7.26588">
        <ele>434.357666</ele>
        <time>2010-06-26T14:09:48Z</time>
      </trkpt>
      <trkpt lat="48.6809" lon="7.2659">
        <ele>433.092041</ele>
        <time>2010-06-26T14:09:50Z</time>
      </trkpt>
      <trkpt lat="48.68105" lon="7.26592">
        <ele>432.318604</ele>
        <time>2010-06-26T14:09:52Z</time>
      </trkpt>
      <trkpt lat="48.68118" lon="7.26593">
        <ele>431.849854</ele>
        <time>2010-06-26T14:09:54Z</time>
      </trkpt>
      <trkpt lat="48.68133" lon="7.26593">
        <ele>430.677979</ele>
        <time>2010-06-26T14:09:56Z</time>
      </trkpt>
      <trkpt lat="48.68148" lon="7.26594">
        <ele>429.771729</ele>
        <time>2010-06-26T14:09:58Z</time>
      </trkpt>
      <trkpt lat="48.68163" lon="7.26594">
        <ele>428.552979</ele>
        <time>2010-06-26T14:10:00Z</time>
      </trkpt>
      <trkpt lat="48.68177" lon="7.26591">
        <ele>427.631104</ele>
        <time>2010-06-26T14:10:02Z</time>
      </trkpt>
      <trkpt lat="48.68192" lon="7.2659">
        <ele>427.013916</ele>
        <time>2010-06-26T14:10:04Z</time>
      </trkpt>
      <trkpt lat="48.68207" lon="7.2659">
        <ele>426.701416</ele>
        <time>2010-06-26T14:10:06Z</time>
      </trkpt>
      <trkpt lat="48.68222" lon="7.26589">
        <ele>425.935791</ele>
        <time>2010-06-26T14:10:08Z</time>
      </trkpt>
      <trkpt lat="48.68237" lon="7.26587">
        <ele>424.810791</ele>
        <time>2010-06-26T14:10:10Z</time>
      </trkpt>
      <trkpt lat="48.68251" lon="7.26586">
        <ele>423.920166</ele>
        <time>2010-06-26T14:10:12Z</time>
      </trkpt>
      <trkpt lat="48.68266" lon="7.26585">
        <ele>423.334229</ele>
        <time>2010-06-26T14:10:14Z</time>
      </trkpt>
      <trkpt lat="48.68281" lon="7.26583">
        <ele>423.068604</ele>
        <time>2010-06-26T14:10:16Z</time>
      </trkpt>
      <trkpt lat="48.68296" lon="7.26581">
        <ele>422.779541</ele>
        <time>2010-06-26T14:10:18Z</time>
      </trkpt>
      <trkpt lat="48.6831" lon="7.26578">
        <ele>423.013916</ele>
        <time>2010-06-26T14:10:20Z</time>
      </trkpt>
      <trkpt lat="48.68325" lon="7.26577">
        <ele>422.263916</ele>
        <time>2010-06-26T14:10:22Z</time>
      </trkpt>
      <trkpt lat="48.68339" lon="7.26575">
        <ele>421.771729</ele>
        <time>2010-06-26T14:10:24Z</time>
      </trkpt>
      <trkpt lat="48.68353" lon="7.26574">
        <ele>421.279541</ele>
        <time>2010-06-26T14:10:26Z</time>
      </trkpt>
      <trkpt lat="48.68368" lon="7.26573">
        <ele>421.771729</ele>
        <time>2010-06-26T14:10:28Z</time>
      </trkpt>
      <trkpt lat="48.68382" lon="7.26574">
        <ele>420.662354</ele>
        <time>2010-06-26T14:10:30Z</time>
      </trkpt>
      <trkpt lat="48.68396" lon="7.26573">
        <ele>421.287354</ele>
        <time>2010-06-26T14:10:32Z</time>
      </trkpt>
      <trkpt lat="48.68411" lon="7.26572">
        <ele>420.967041</ele>
        <time>2010-06-26T14:10:34Z</time>
      </trkpt>
      <trkpt lat="48.68425" lon="7.26572">
        <ele>421.748291</ele>
        <time>2010-06-26T14:10:36Z</time>
      </trkpt>
      <trkpt lat="48.6844" lon="7.26571">
        <ele>421.951416</ele>
        <time>2010-06-26T14:10:38Z</time>
      </trkpt>
      <trkpt lat="48.68457" lon="7.26574">
        <ele>418.232666</ele>
        <time>2010-06-26T14:10:40Z</time>
      </trkpt>
      <trkpt lat="48.68472" lon="7.26578">
        <ele>417.224854</ele>
        <time>2010-06-26T14:10:42Z</time>
      </trkpt>
      <trkpt lat="48.68488" lon="7.26584">
        <ele>415.474854</ele>
        <time>2010-06-26T14:10:44Z</time>
      </trkpt>
      <trkpt lat="48.68504" lon="7.26588">
        <ele>414.592041</ele>
        <time>2010-06-26T14:10:46Z</time>
      </trkpt>
      <trkpt lat="48.6852" lon="7.26593">
        <ele>414.295166</ele>
        <time>2010-06-26T14:10:48Z</time>
      </trkpt>
      <trkpt lat="48.68535" lon="7.26599">
        <ele>413.217041</ele>
        <time>2010-06-26T14:10:50Z</time>
      </trkpt>
      <trkpt lat="48.68551" lon="7.26606">
        <ele>412.240479</ele>
        <time>2010-06-26T14:10:52Z</time>
      </trkpt>
      <trkpt lat="48.68566" lon="7.26613">
        <ele>411.552979</ele>
        <time>2010-06-26T14:10:54Z</time>
      </trkpt>
      <trkpt lat="48.68579" lon="7.26621">
        <ele>411.467041</ele>
        <time>2010-06-26T14:10:56Z</time>
      </trkpt>
      <trkpt lat="48.68592" lon="7.26629">
        <ele>411.115479</ele>
        <time>2010-06-26T14:10:58Z</time>
      </trkpt>
      <trkpt lat="48.68605" lon="7.2664">
        <ele>410.638916</ele>
        <time>2010-06-26T14:11:00Z</time>
      </trkpt>
      <trkpt lat="48.68619" lon="7.26651">
        <ele>409.779541</ele>
        <time>2010-06-26T14:11:02Z</time>
      </trkpt>
      <trkpt lat="48.68634" lon="7.26663">
        <ele>408.599854</ele>
        <time>2010-06-26T14:11:04Z</time>
      </trkpt>
      <trkpt lat="48.68647" lon="7.26676">
        <ele>407.357666</ele>
        <time>2010-06-26T14:11:06Z</time>
      </trkpt>
      <trkpt lat="48.6866" lon="7.26689">
        <ele>405.943604</ele>
        <time>2010-06-26T14:11:08Z</time>
      </trkpt>
      <trkpt lat="48.68673" lon="7.26704">
        <ele>405.568604</ele>
        <time>2010-06-26T14:11:10Z</time>
      </trkpt>
      <trkpt lat="48.68685" lon="7.26719">
        <ele>404.318604</ele>
        <time>2010-06-26T14:11:12Z</time>
      </trkpt>
      <trkpt lat="48.68697" lon="7.26734">
        <ele>404.506104</ele>
        <time>2010-06-26T14:11:14Z</time>
      </trkpt>
      <trkpt lat="48.68708" lon="7.26752">
        <ele>404.717041</ele>
        <time>2010-06-26T14:11:16Z</time>
      </trkpt>
      <trkpt lat="48.68721" lon="7.26771">
        <ele>402.998291</ele>
        <time>2010-06-26T14:11:18Z</time>
      </trkpt>
      <trkpt lat="48.68732" lon="7.2679">
        <ele>402.037354</ele>
        <time>2010-06-26T14:11:20Z</time>
      </trkpt>
      <trkpt lat="48.68742" lon="7.26806">
        <ele>401.349854</ele>
        <time>2010-06-26T14:11:22Z</time>
      </trkpt>
      <trkpt lat="48.68751" lon="7.26822">
        <ele>400.170166</ele>
        <time>2010-06-26T14:11:24Z</time>
      </trkpt>
      <trkpt lat="48.6876" lon="7.26838">
        <ele>399.443604</ele>
        <time>2010-06-26T14:11:26Z</time>
      </trkpt>
      <trkpt lat="48.68772" lon="7.26852">
        <ele>399.474854</ele>
        <time>2010-06-26T14:11:29Z</time>
      </trkpt>
      <trkpt lat="48.68786" lon="7.2686">
        <ele>398.592041</ele>
        <time>2010-06-26T14:11:32Z</time>
      </trkpt>
      <trkpt lat="48.68792" lon="7.2688">
        <ele>398.146729</ele>
        <time>2010-06-26T14:11:36Z</time>
      </trkpt>
      <trkpt lat="48.68794" lon="7.26901">
        <ele>396.998291</ele>
        <time>2010-06-26T14:11:40Z</time>
      </trkpt>
      <trkpt lat="48.68792" lon="7.26921">
        <ele>396.990479</ele>
        <time>2010-06-26T14:11:44Z</time>
      </trkpt>
      <trkpt lat="48.68787" lon="7.26941">
        <ele>399.935791</ele>
        <time>2010-06-26T14:11:51Z</time>
      </trkpt>
      <trkpt lat="48.68785" lon="7.26962">
        <ele>400.888916</ele>
        <time>2010-06-26T14:12:00Z</time>
      </trkpt>
      <trkpt lat="48.6878" lon="7.26982">
        <ele>401.748291</ele>
        <time>2010-06-26T14:12:06Z</time>
      </trkpt>
      <trkpt lat="48.6877" lon="7.26999">
        <ele>402.568604</ele>
        <time>2010-06-26T14:12:13Z</time>
      </trkpt>
      <trkpt lat="48.68758" lon="7.27008">
        <ele>407.138916</ele>
        <time>2010-06-26T14:12:21Z</time>
      </trkpt>
      <trkpt lat="48.68744" lon="7.2701">
        <ele>409.490479</ele>
        <time>2010-06-26T14:12:26Z</time>
      </trkpt>
      <trkpt lat="48.68728" lon="7.27011">
        <ele>410.412354</ele>
        <time>2010-06-26T14:12:31Z</time>
      </trkpt>
      <trkpt lat="48.68715" lon="7.27007">
        <ele>414.701416</ele>
        <time>2010-06-26T14:12:37Z</time>
      </trkpt>
      <trkpt lat="48.687" lon="7.27005">
        <ele>417.506104</ele>
        <time>2010-06-26T14:12:43Z</time>
      </trkpt>
      <trkpt lat="48.68686" lon="7.27004">
        <ele>418.396729</ele>
        <time>2010-06-26T14:12:48Z</time>
      </trkpt>
      <trkpt lat="48.6867" lon="7.27001">
        <ele>420.084229</ele>
        <time>2010-06-26T14:12:52Z</time>
      </trkpt>
      <trkpt lat="48.68654" lon="7.27002">
        <ele>418.506104</ele>
        <time>2010-06-26T14:12:56Z</time>
      </trkpt>
      <trkpt lat="48.68638" lon="7.27004">
        <ele>418.459229</ele>
        <time>2010-06-26T14:13:01Z</time>
      </trkpt>
      <trkpt lat="48.68624" lon="7.2701">
        <ele>416.740479</ele>
        <time>2010-06-26T14:13:06Z</time>
      </trkpt>
      <trkpt lat="48.68609" lon="7.27014">
        <ele>418.998291</ele>
        <time>2010-06-26T14:13:14Z</time>
      </trkpt>
      <trkpt lat="48.68595" lon="7.27021">
        <ele>420.943604</ele>
        <time>2010-06-26T14:13:22Z</time>
      </trkpt>
      <trkpt lat="48.68584" lon="7.27033">
        <ele>422.240479</ele>
        <time>2010-06-26T14:13:27Z</time>
      </trkpt>
      <trkpt lat="48.68571" lon="7.27038">
        <ele>424.029541</ele>
        <time>2010-06-26T14:13:32Z</time>
      </trkpt>
      <trkpt lat="48.68564" lon="7.27056">
        <ele>426.849854</ele>
        <time>2010-06-26T14:13:35Z</time>
      </trkpt>
      <trkpt lat="48.68557" lon="7.27077">
        <ele>428.302979</ele>
        <time>2010-06-26T14:13:40Z</time>
      </trkpt>
      <trkpt lat="48.68548" lon="7.27094">
        <ele>431.076416</ele>
        <time>2010-06-26T14:13:46Z</time>
      </trkpt>
      <trkpt lat="48.6854" lon="7.27113">
        <ele>432.513916</ele>
        <time>2010-06-26T14:13:51Z</time>
      </trkpt>
      <trkpt lat="48.68533" lon="7.27136">
        <ele>430.857666</ele>
        <time>2010-06-26T14:13:55Z</time>
      </trkpt>
      <trkpt lat="48.68526" lon="7.27155">
        <ele>426.998291</ele>
        <time>2010-06-26T14:13:58Z</time>
      </trkpt>
      <trkpt lat="48.68519" lon="7.27173">
        <ele>425.435791</ele>
        <time>2010-06-26T14:14:02Z</time>
      </trkpt>
      <trkpt lat="48.68504" lon="7.27183">
        <ele>421.592041</ele>
        <time>2010-06-26T14:14:05Z</time>
      </trkpt>
      <trkpt lat="48.68491" lon="7.27197">
        <ele>419.685791</ele>
        <time>2010-06-26T14:14:09Z</time>
      </trkpt>
      <trkpt lat="48.68478" lon="7.27206">
        <ele>417.490479</ele>
        <time>2010-06-26T14:14:13Z</time>
      </trkpt>
      <trkpt lat="48.68464" lon="7.2721">
        <ele>416.818604</ele>
        <time>2010-06-26T14:14:18Z</time>
      </trkpt>
      <trkpt lat="48.68451" lon="7.27208">
        <ele>418.232666</ele>
        <time>2010-06-26T14:14:24Z</time>
      </trkpt>
      <trkpt lat="48.68439" lon="7.27199">
        <ele>419.748291</ele>
        <time>2010-06-26T14:14:29Z</time>
      </trkpt>
      <trkpt lat="48.68425" lon="7.27197">
        <ele>420.396729</ele>
        <time>2010-06-26T14:14:33Z</time>
      </trkpt>
      <trkpt lat="48.6841" lon="7.27196">
        <ele>420.115479</ele>
        <time>2010-06-26T14:14:38Z</time>
      </trkpt>
      <trkpt lat="48.68395" lon="7.27198">
        <ele>420.217041</ele>
        <time>2010-06-26T14:14:42Z</time>
      </trkpt>
      <trkpt lat="48.68381" lon="7.27195">
        <ele>421.552979</ele>
        <time>2010-06-26T14:14:47Z</time>
      </trkpt>
      <trkpt lat="48.68367" lon="7.27191">
        <ele>422.404541</ele>
        <time>2010-06-26T14:14:53Z</time>
      </trkpt>
      <trkpt lat="48.68352" lon="7.27195">
        <ele>422.576416</ele>
        <time>2010-06-26T14:14:59Z</time>
      </trkpt>
      <trkpt lat="48.68335" lon="7.27195">
        <ele>422.318604</ele>
        <time>2010-06-26T14:15:04Z</time>
      </trkpt>
      <trkpt lat="48.6832" lon="7.27199">
        <ele>422.099854</ele>
        <time>2010-06-26T14:15:09Z</time>
      </trkpt>
      <trkpt lat="48.68306" lon="7.27201">
        <ele>422.802979</ele>
        <time>2010-06-26T14:15:14Z</time>
      </trkpt>
      <trkpt lat="48.68291" lon="7.27197">
        <ele>423.443604</ele>
        <time>2010-06-26T14:15:22Z</time>
      </trkpt>
      <trkpt lat="48.68277" lon="7.27194">
        <ele>425.826416</ele>
        <time>2010-06-26T14:15:27Z</time>
      </trkpt>
      <trkpt lat="48.68263" lon="7.27192">
        <ele>426.326416</ele>
        <time>2010-06-26T14:15:31Z</time>
      </trkpt>
      <trkpt lat="48.68246" lon="7.2719">
        <ele>425.521729</ele>
        <time>2010-06-26T14:15:35Z</time>
      </trkpt>
      <trkpt lat="48.68227" lon="7.27188">
        <ele>424.802979</ele>
        <time>2010-06-26T14:15:38Z</time>
      </trkpt>
      <trkpt lat="48.68212" lon="7.27184">
        <ele>424.912354</ele>
        <time>2010-06-26T14:15:42Z</time>
      </trkpt>
      <trkpt lat="48.682" lon="7.2717">
        <ele>425.904541</ele>
        <time>2010-06-26T14:15:47Z</time>
      </trkpt>
      <trkpt lat="48.68185" lon="7.27163">
        <ele>429.287354</ele>
        <time>2010-06-26T14:15:52Z</time>
      </trkpt>
      <trkpt lat="48.68174" lon="7.27146">
        <ele>430.326416</ele>
        <time>2010-06-26T14:15:56Z</time>
      </trkpt>
      <trkpt lat="48.6816" lon="7.27138">
        <ele>432.967041</ele>
        <time>2010-06-26T14:16:01Z</time>
      </trkpt>
      <trkpt lat="48.68147" lon="7.27122">
        <ele>434.974854</ele>
        <time>2010-06-26T14:16:07Z</time>
      </trkpt>
      <trkpt lat="48.68136" lon="7.27108">
        <ele>437.506104</ele>
        <time>2010-06-26T14:16:12Z</time>
      </trkpt>
      <trkpt lat="48.68127" lon="7.27092">
        <ele>438.529541</ele>
        <time>2010-06-26T14:16:17Z</time>
      </trkpt>
      <trkpt lat="48.68112" lon="7.27085">
        <ele>439.787354</ele>
        <time>2010-06-26T14:16:22Z</time>
      </trkpt>
      <trkpt lat="48.68099" lon="7.27072">
        <ele>443.927979</ele>
        <time>2010-06-26T14:16:29Z</time>
      </trkpt>
      <trkpt lat="48.68095" lon="7.27049">
        <ele>443.537354</ele>
        <time>2010-06-26T14:16:33Z</time>
      </trkpt>
      <trkpt lat="48.68081" lon="7.27044">
        <ele>445.052979</ele>
        <time>2010-06-26T14:16:39Z</time>
      </trkpt>
      <trkpt lat="48.68066" lon="7.27041">
        <ele>444.029541</ele>
        <time>2010-06-26T14:16:45Z</time>
      </trkpt>
      <trkpt lat="48.68054" lon="7.27029">
        <ele>445.092041</ele>
        <time>2010-06-26T14:16:53Z</time>
      </trkpt>
      <trkpt lat="48.68038" lon="7.27023">
        <ele>446.943604</ele>
        <time>2010-06-26T14:17:01Z</time>
      </trkpt>
      <trkpt lat="48.68025" lon="7.27016">
        <ele>447.568604</ele>
        <time>2010-06-26T14:17:07Z</time>
      </trkpt>
      <trkpt lat="48.68011" lon="7.27017">
        <ele>446.849854</ele>
        <time>2010-06-26T14:17:13Z</time>
      </trkpt>
      <trkpt lat="48.67995" lon="7.27008">
        <ele>445.138916</ele>
        <time>2010-06-26T14:17:18Z</time>
      </trkpt>
      <trkpt lat="48.6798" lon="7.27003">
        <ele>446.365479</ele>
        <time>2010-06-26T14:17:23Z</time>
      </trkpt>
      <trkpt lat="48.67967" lon="7.26994">
        <ele>447.209229</ele>
        <time>2010-06-26T14:17:29Z</time>
      </trkpt>
      <trkpt lat="48.6795" lon="7.26995">
        <ele>447.724854</ele>
        <time>2010-06-26T14:17:35Z</time>
      </trkpt>
      <trkpt lat="48.67936" lon="7.26998">
        <ele>447.115479</ele>
        <time>2010-06-26T14:17:40Z</time>
      </trkpt>
      <trkpt lat="48.67924" lon="7.26988">
        <ele>447.084229</ele>
        <time>2010-06-26T14:17:45Z</time>
      </trkpt>
      <trkpt lat="48.67915" lon="7.26971">
        <ele>446.349854</ele>
        <time>2010-06-26T14:17:51Z</time>
      </trkpt>
      <trkpt lat="48.67903" lon="7.2696">
        <ele>445.138916</ele>
        <time>2010-06-26T14:17:57Z</time>
      </trkpt>
      <trkpt lat="48.67889" lon="7.26954">
        <ele>443.123291</ele>
        <time>2010-06-26T14:18:04Z</time>
      </trkpt>
      <trkpt lat="48.67878" lon="7.26941">
        <ele>443.154541</ele>
        <time>2010-06-26T14:18:12Z</time>
      </trkpt>
      <trkpt lat="48.67872" lon="7.2692">
        <ele>441.529541</ele>
        <time>2010-06-26T14:18:19Z</time>
      </trkpt>
      <trkpt lat="48.67859" lon="7.26911">
        <ele>441.904541</ele>
        <time>2010-06-26T14:18:26Z</time>
      </trkpt>
      <trkpt lat="48.67847" lon="7.26901">
        <ele>445.334229</ele>
        <time>2010-06-26T14:18:34Z</time>
      </trkpt>
      <trkpt lat="48.67834" lon="7.26891">
        <ele>449.217041</ele>
        <time>2010-06-26T14:18:40Z</time>
      </trkpt>
      <trkpt lat="48.67823" lon="7.26876">
        <ele>451.498291</ele>
        <time>2010-06-26T14:18:46Z</time>
      </trkpt>
      <trkpt lat="48.67809" lon="7.2687">
        <ele>455.873291</ele>
        <time>2010-06-26T14:18:54Z</time>
      </trkpt>
      <trkpt lat="48.67796" lon="7.2686">
        <ele>459.365479</ele>
        <time>2010-06-26T14:19:01Z</time>
      </trkpt>
      <trkpt lat="48.67787" lon="7.26847">
        <ele>464.693604</ele>
        <time>2010-06-26T14:19:07Z</time>
      </trkpt>
      <trkpt lat="48.67774" lon="7.26839">
        <ele>467.896729</ele>
        <time>2010-06-26T14:19:15Z</time>
      </trkpt>
      <trkpt lat="48.67761" lon="7.2683">
        <ele>469.404541</ele>
        <time>2010-06-26T14:20:41Z</time>
      </trkpt>
      <trkpt lat="48.67746" lon="7.26818">
        <ele>467.920166</ele>
        <time>2010-06-26T14:20:50Z</time>
      </trkpt>
      <trkpt lat="48.6773" lon="7.26808">
        <ele>466.592041</ele>
        <time>2010-06-26T14:20:55Z</time>
      </trkpt>
      <trkpt lat="48.67716" lon="7.26803">
        <ele>465.060791</ele>
        <time>2010-06-26T14:21:00Z</time>
      </trkpt>
      <trkpt lat="48.67702" lon="7.26803">
        <ele>463.849854</ele>
        <time>2010-06-26T14:21:06Z</time>
      </trkpt>
      <trkpt lat="48.67689" lon="7.26795">
        <ele>463.342041</ele>
        <time>2010-06-26T14:21:13Z</time>
      </trkpt>
      <trkpt lat="48.67675" lon="7.26789">
        <ele>463.474854</ele>
        <time>2010-06-26T14:21:21Z</time>
      </trkpt>
      <trkpt lat="48.67661" lon="7.2679">
        <ele>461.381104</ele>
        <time>2010-06-26T14:21:26Z</time>
      </trkpt>
      <trkpt lat="48.67646" lon="7.26788">
        <ele>459.888916</ele>
        <time>2010-06-26T14:21:30Z</time>
      </trkpt>
      <trkpt lat="48.67631" lon="7.26783">
        <ele>459.037354</ele>
        <time>2010-06-26T14:21:36Z</time>
      </trkpt>
      <trkpt lat="48.67617" lon="7.2678">
        <ele>458.560791</ele>
        <time>2010-06-26T14:21:41Z</time>
      </trkpt>
      <trkpt lat="48.67602" lon="7.26782">
        <ele>459.506104</ele>
        <time>2010-06-26T14:21:46Z</time>
      </trkpt>
      <trkpt lat="48.67587" lon="7.26784">
        <ele>460.154541</ele>
        <time>2010-06-26T14:21:51Z</time>
      </trkpt>
      <trkpt lat="48.67576" lon="7.26773">
        <ele>458.420166</ele>
        <time>2010-06-26T14:21:56Z</time>
      </trkpt>
      <trkpt lat="48.67563" lon="7.26778">
        <ele>457.529541</ele>
        <time>2010-06-26T14:22:01Z</time>
      </trkpt>
      <trkpt lat="48.67549" lon="7.26782">
        <ele>455.404541</ele>
        <time>2010-06-26T14:22:08Z</time>
      </trkpt>
      <trkpt lat="48.67535" lon="7.26775">
        <ele>453.084229</ele>
        <time>2010-06-26T14:22:15Z</time>
      </trkpt>
      <trkpt lat="48.67521" lon="7.26777">
        <ele>452.748291</ele>
        <time>2010-06-26T14:22:21Z</time>
      </trkpt>
      <trkpt lat="48.67506" lon="7.2678">
        <ele>455.420166</ele>
        <time>2010-06-26T14:22:28Z</time>
      </trkpt>
      <trkpt lat="48.6749" lon="7.26783">
        <ele>454.537354</ele>
        <time>2010-06-26T14:22:35Z</time>
      </trkpt>
      <trkpt lat="48.67476" lon="7.26774">
        <ele>452.006104</ele>
        <time>2010-06-26T14:22:42Z</time>
      </trkpt>
      <trkpt lat="48.67468" lon="7.26753">
        <ele>445.576416</ele>
        <time>2010-06-26T14:22:50Z</time>
      </trkpt>
      <trkpt lat="48.67463" lon="7.26735">
        <ele>441.060791</ele>
        <time>2010-06-26T14:22:55Z</time>
      </trkpt>
      <trkpt lat="48.67458" lon="7.26712">
        <ele>435.834229</ele>
        <time>2010-06-26T14:23:00Z</time>
      </trkpt>
      <trkpt lat="48.67444" lon="7.26702">
        <ele>432.693604</ele>
        <time>2010-06-26T14:23:05Z</time>
      </trkpt>
      <trkpt lat="48.67432" lon="7.26692">
        <ele>430.623291</ele>
        <time>2010-06-26T14:23:11Z</time>
      </trkpt>
      <trkpt lat="48.67424" lon="7.26674">
        <ele>427.701416</ele>
        <time>2010-06-26T14:23:17Z</time>
      </trkpt>
      <trkpt lat="48.67413" lon="7.2666">
        <ele>426.717041</ele>
        <time>2010-06-26T14:23:23Z</time>
      </trkpt>
      <trkpt lat="48.67403" lon="7.26646">
        <ele>425.677979</ele>
        <time>2010-06-26T14:23:29Z</time>
      </trkpt>
      <trkpt lat="48.67394" lon="7.26633">
        <ele>422.670166</ele>
        <time>2010-06-26T14:23:37Z</time>
      </trkpt>
      <trkpt lat="48.67389" lon="7.26611">
        <ele>419.881104</ele>
        <time>2010-06-26T14:23:43Z</time>
      </trkpt>
      <trkpt lat="48.67377" lon="7.26604">
        <ele>414.834229</ele>
        <time>2010-06-26T14:23:46Z</time>
      </trkpt>
      <trkpt lat="48.67372" lon="7.26586">
        <ele>411.302979</ele>
        <time>2010-06-26T14:23:52Z</time>
      </trkpt>
      <trkpt lat="48.6736" lon="7.26578">
        <ele>410.154541</ele>
        <time>2010-06-26T14:24:00Z</time>
      </trkpt>
      <trkpt lat="48.67343" lon="7.26577">
        <ele>410.115479</ele>
        <time>2010-06-26T14:24:05Z</time>
      </trkpt>
      <trkpt lat="48.67327" lon="7.26578">
        <ele>409.842041</ele>
        <time>2010-06-26T14:24:10Z</time>
      </trkpt>
      <trkpt lat="48.67311" lon="7.2658">
        <ele>407.584229</ele>
        <time>2010-06-26T14:24:15Z</time>
      </trkpt>
      <trkpt lat="48.67296" lon="7.26579">
        <ele>406.404541</ele>
        <time>2010-06-26T14:24:19Z</time>
      </trkpt>
      <trkpt lat="48.67282" lon="7.26581">
        <ele>404.263916</ele>
        <time>2010-06-26T14:24:22Z</time>
      </trkpt>
      <trkpt lat="48.67263" lon="7.26577">
        <ele>402.763916</ele>
        <time>2010-06-26T14:24:28Z</time>
      </trkpt>
      <trkpt lat="48.67249" lon="7.2658">
        <ele>401.232666</ele>
        <time>2010-06-26T14:24:30Z</time>
      </trkpt>
      <trkpt lat="48.67233" lon="7.26578">
        <ele>398.818604</ele>
        <time>2010-06-26T14:24:34Z</time>
      </trkpt>
      <trkpt lat="48.67218" lon="7.26576">
        <ele>397.170166</ele>
        <time>2010-06-26T14:24:38Z</time>
      </trkpt>
      <trkpt lat="48.67205" lon="7.26565">
        <ele>397.959229</ele>
        <time>2010-06-26T14:24:43Z</time>
      </trkpt>
      <trkpt lat="48.67193" lon="7.26556">
        <ele>397.615479</ele>
        <time>2010-06-26T14:24:47Z</time>
      </trkpt>
      <trkpt lat="48.67177" lon="7.26552">
        <ele>397.506104</ele>
        <time>2010-06-26T14:24:49Z</time>
      </trkpt>
      <trkpt lat="48.67162" lon="7.26542">
        <ele>397.740479</ele>
        <time>2010-06-26T14:24:53Z</time>
      </trkpt>
      <trkpt lat="48.67146" lon="7.26536">
        <ele>397.545166</ele>
        <time>2010-06-26T14:24:56Z</time>
      </trkpt>
      <trkpt lat="48.67132" lon="7.26531">
        <ele>402.748291</ele>
        <time>2010-06-26T14:25:00Z</time>
      </trkpt>
      <trkpt lat="48.67118" lon="7.26517">
        <ele>401.420166</ele>
        <time>2010-06-26T14:25:05Z</time>
      </trkpt>
      <trkpt lat="48.67106" lon="7.265">
        <ele>402.052979</ele>
        <time>2010-06-26T14:25:09Z</time>
      </trkpt>
      <trkpt lat="48.67094" lon="7.26486">
        <ele>404.248291</ele>
        <time>2010-06-26T14:25:13Z</time>
      </trkpt>
      <trkpt lat="48.67082" lon="7.26473">
        <ele>406.935791</ele>
        <time>2010-06-26T14:25:17Z</time>
      </trkpt>
      <trkpt lat="48.67072" lon="7.26456">
        <ele>409.693604</ele>
        <time>2010-06-26T14:25:21Z</time>
      </trkpt>
      <trkpt lat="48.67061" lon="7.26439">
        <ele>410.084229</ele>
        <time>2010-06-26T14:25:25Z</time>
      </trkpt>
      <trkpt lat="48.67049" lon="7.26423">
        <ele>410.170166</ele>
        <time>2010-06-26T14:25:29Z</time>
      </trkpt>
      <trkpt lat="48.67035" lon="7.2641">
        <ele>411.201416</ele>
        <time>2010-06-26T14:25:34Z</time>
      </trkpt>
      <trkpt lat="48.67019" lon="7.26406">
        <ele>411.959229</ele>
        <time>2010-06-26T14:25:38Z</time>
      </trkpt>
      <trkpt lat="48.67" lon="7.26412">
        <ele>413.592041</ele>
        <time>2010-06-26T14:25:42Z</time>
      </trkpt>
      <trkpt lat="48.66988" lon="7.26422">
        <ele>413.967041</ele>
        <time>2010-06-26T14:25:45Z</time>
      </trkpt>
      <trkpt lat="48.66974" lon="7.26433">
        <ele>415.451416</ele>
        <time>2010-06-26T14:25:49Z</time>
      </trkpt>
      <trkpt lat="48.66962" lon="7.26441">
        <ele>417.888916</ele>
        <time>2010-06-26T14:25:55Z</time>
      </trkpt>
      <trkpt lat="48.66947" lon="7.2645">
        <ele>419.545166</ele>
        <time>2010-06-26T14:26:02Z</time>
      </trkpt>
      <trkpt lat="48.66935" lon="7.2646">
        <ele>421.146729</ele>
        <time>2010-06-26T14:26:07Z</time>
      </trkpt>
      <trkpt lat="48.66922" lon="7.26471">
        <ele>420.974854</ele>
        <time>2010-06-26T14:26:11Z</time>
      </trkpt>
      <trkpt lat="48.66909" lon="7.26478">
        <ele>422.131104</ele>
        <time>2010-06-26T14:26:16Z</time>
      </trkpt>
      <trkpt lat="48.66895" lon="7.26483">
        <ele>423.615479</ele>
        <time>2010-06-26T14:26:21Z</time>
      </trkpt>
      <trkpt lat="48.66879" lon="7.26485">
        <ele>425.138916</ele>
        <time>2010-06-26T14:26:27Z</time>
      </trkpt>
      <trkpt lat="48.66864" lon="7.26487">
        <ele>423.201416</ele>
        <time>2010-06-26T14:26:31Z</time>
      </trkpt>
      <trkpt lat="48.66851" lon="7.26489">
        <ele>423.263916</ele>
        <time>2010-06-26T14:26:35Z</time>
      </trkpt>
      <trkpt lat="48.66835" lon="7.26486">
        <ele>423.974854</ele>
        <time>2010-06-26T14:26:39Z</time>
      </trkpt>
      <trkpt lat="48.66816" lon="7.26482">
        <ele>425.365479</ele>
        <time>2010-06-26T14:26:43Z</time>
      </trkpt>
      <trkpt lat="48.668" lon="7.26483">
        <ele>427.904541</ele>
        <time>2010-06-26T14:26:47Z</time>
      </trkpt>
      <trkpt lat="48.66786" lon="7.26474">
        <ele>429.123291</ele>
        <time>2010-06-26T14:26:51Z</time>
      </trkpt>
      <trkpt lat="48.66774" lon="7.26462">
        <ele>433.537354</ele>
        <time>2010-06-26T14:26:58Z</time>
      </trkpt>
      <trkpt lat="48.66759" lon="7.26473">
        <ele>436.521729</ele>
        <time>2010-06-26T14:27:03Z</time>
      </trkpt>
      <trkpt lat="48.66749" lon="7.26486">
        <ele>439.060791</ele>
        <time>2010-06-26T14:27:06Z</time>
      </trkpt>
      <trkpt lat="48.66739" lon="7.26499">
        <ele>441.873291</ele>
        <time>2010-06-26T14:27:09Z</time>
      </trkpt>
      <trkpt lat="48.66726" lon="7.26514">
        <ele>446.818604</ele>
        <time>2010-06-26T14:27:14Z</time>
      </trkpt>
      <trkpt lat="48.66713" lon="7.26526">
        <ele>451.662354</ele>
        <time>2010-06-26T14:27:17Z</time>
      </trkpt>
      <trkpt lat="48.66703" lon="7.26539">
        <ele>454.381104</ele>
        <time>2010-06-26T14:27:20Z</time>
      </trkpt>
      <trkpt lat="48.66692" lon="7.2655">
        <ele>457.592041</ele>
        <time>2010-06-26T14:27:23Z</time>
      </trkpt>
      <trkpt lat="48.66682" lon="7.26569">
        <ele>462.068604</ele>
        <time>2010-06-26T14:27:25Z</time>
      </trkpt>
      <trkpt lat="48.66671" lon="7.26583">
        <ele>463.256104</ele>
        <time>2010-06-26T14:27:29Z</time>
      </trkpt>
      <trkpt lat="48.66659" lon="7.266">
        <ele>467.435791</ele>
        <time>2010-06-26T14:27:33Z</time>
      </trkpt>
      <trkpt lat="48.66646" lon="7.2661">
        <ele>468.802979</ele>
        <time>2010-06-26T14:27:38Z</time>
      </trkpt>
      <trkpt lat="48.66636" lon="7.26624">
        <ele>474.029541</ele>
        <time>2010-06-26T14:27:42Z</time>
      </trkpt>
      <trkpt lat="48.66625" lon="7.26635">
        <ele>480.302979</ele>
        <time>2010-06-26T14:27:49Z</time>
      </trkpt>
      <trkpt lat="48.66614" lon="7.26643">
        <ele>487.326416</ele>
        <time>2010-06-26T14:27:59Z</time>
      </trkpt>
      <trkpt lat="48.666" lon="7.26649">
        <ele>487.326416</ele>
        <time>2010-06-26T14:28:06Z</time>
      </trkpt>
      <trkpt lat="48.66587" lon="7.26657">
        <ele>488.170166</ele>
        <time>2010-06-26T14:28:12Z</time>
      </trkpt>
      <trkpt lat="48.66574" lon="7.26667">
        <ele>492.826416</ele>
        <time>2010-06-26T14:28:20Z</time>
      </trkpt>
      <trkpt lat="48.6656" lon="7.26675">
        <ele>493.138916</ele>
        <time>2010-06-26T14:28:25Z</time>
      </trkpt>
      <trkpt lat="48.66546" lon="7.26681">
        <ele>496.092041</ele>
        <time>2010-06-26T14:28:32Z</time>
      </trkpt>
      <trkpt lat="48.66531" lon="7.26684">
        <ele>497.662354</ele>
        <time>2010-06-26T14:28:39Z</time>
      </trkpt>
      <trkpt lat="48.66516" lon="7.26686">
        <ele>498.263916</ele>
        <time>2010-06-26T14:28:45Z</time>
      </trkpt>
      <trkpt lat="48.66503" lon="7.26687">
        <ele>500.599854</ele>
        <time>2010-06-26T14:28:50Z</time>
      </trkpt>
      <trkpt lat="48.66487" lon="7.26687">
        <ele>501.420166</ele>
        <time>2010-06-26T14:28:56Z</time>
      </trkpt>
      <trkpt lat="48.66473" lon="7.26688">
        <ele>501.638916</ele>
        <time>2010-06-26T14:29:01Z</time>
      </trkpt>
      <trkpt lat="48.66458" lon="7.26688">
        <ele>501.420166</ele>
        <time>2010-06-26T14:29:06Z</time>
      </trkpt>
      <trkpt lat="48.66443" lon="7.26688">
        <ele>501.576416</ele>
        <time>2010-06-26T14:29:11Z</time>
      </trkpt>
      <trkpt lat="48.66428" lon="7.26687">
        <ele>501.037354</ele>
        <time>2010-06-26T14:29:16Z</time>
      </trkpt>
      <trkpt lat="48.66412" lon="7.26688">
        <ele>500.771729</ele>
        <time>2010-06-26T14:29:21Z</time>
      </trkpt>
      <trkpt lat="48.66397" lon="7.26691">
        <ele>499.810791</ele>
        <time>2010-06-26T14:29:26Z</time>
      </trkpt>
      <trkpt lat="48.6638" lon="7.26696">
        <ele>500.381104</ele>
        <time>2010-06-26T14:29:31Z</time>
      </trkpt>
      <trkpt lat="48.66366" lon="7.26703">
        <ele>500.177979</ele>
        <time>2010-06-26T14:29:35Z</time>
      </trkpt>
      <trkpt lat="48.6635" lon="7.26707">
        <ele>500.162354</ele>
        <time>2010-06-26T14:29:39Z</time>
      </trkpt>
      <trkpt lat="48.66334" lon="7.26712">
        <ele>500.490479</ele>
        <time>2010-06-26T14:29:43Z</time>
      </trkpt>
      <trkpt lat="48.66317" lon="7.26715">
        <ele>500.224854</ele>
        <time>2010-06-26T14:29:47Z</time>
      </trkpt>
      <trkpt lat="48.66301" lon="7.26718">
        <ele>500.162354</ele>
        <time>2010-06-26T14:29:51Z</time>
      </trkpt>
      <trkpt lat="48.66285" lon="7.26718">
        <ele>500.935791</ele>
        <time>2010-06-26T14:29:55Z</time>
      </trkpt>
      <trkpt lat="48.6627" lon="7.26715">
        <ele>501.412354</ele>
        <time>2010-06-26T14:29:59Z</time>
      </trkpt>
      <trkpt lat="48.66254" lon="7.26714">
        <ele>502.099854</ele>
        <time>2010-06-26T14:30:04Z</time>
      </trkpt>
      <trkpt lat="48.66239" lon="7.26715">
        <ele>503.013916</ele>
        <time>2010-06-26T14:30:09Z</time>
      </trkpt>
      <trkpt lat="48.66224" lon="7.26717">
        <ele>503.732666</ele>
        <time>2010-06-26T14:30:14Z</time>
      </trkpt>
      <trkpt lat="48.66208" lon="7.2672">
        <ele>504.232666</ele>
        <time>2010-06-26T14:30:19Z</time>
      </trkpt>
      <trkpt lat="48.66194" lon="7.2672">
        <ele>504.498291</ele>
        <time>2010-06-26T14:30:23Z</time>
      </trkpt>
      <trkpt lat="48.66179" lon="7.26718">
        <ele>504.560791</ele>
        <time>2010-06-26T14:30:27Z</time>
      </trkpt>
      <trkpt lat="48.66165" lon="7.26716">
        <ele>504.670166</ele>
        <time>2010-06-26T14:30:31Z</time>
      </trkpt>
      <trkpt lat="48.66151" lon="7.26712">
        <ele>504.287354</ele>
        <time>2010-06-26T14:30:34Z</time>
      </trkpt>
      <trkpt lat="48.66135" lon="7.26709">
        <ele>503.123291</ele>
        <time>2010-06-26T14:30:37Z</time>
      </trkpt>
      <trkpt lat="48.66118" lon="7.26711">
        <ele>501.912354</ele>
        <time>2010-06-26T14:30:40Z</time>
      </trkpt>
      <trkpt lat="48.661" lon="7.26713">
        <ele>501.217041</ele>
        <time>2010-06-26T14:30:43Z</time>
      </trkpt>
      <trkpt lat="48.66081" lon="7.26714">
        <ele>499.873291</ele>
        <time>2010-06-26T14:30:46Z</time>
      </trkpt>
      <trkpt lat="48.66062" lon="7.26713">
        <ele>498.584229</ele>
        <time>2010-06-26T14:30:49Z</time>
      </trkpt>
      <trkpt lat="48.66043" lon="7.26711">
        <ele>498.935791</ele>
        <time>2010-06-26T14:30:52Z</time>
      </trkpt>
      <trkpt lat="48.66025" lon="7.26708">
        <ele>499.271729</ele>
        <time>2010-06-26T14:30:55Z</time>
      </trkpt>
      <trkpt lat="48.6601" lon="7.26707">
        <ele>498.084229</ele>
        <time>2010-06-26T14:30:58Z</time>
      </trkpt>
      <trkpt lat="48.65996" lon="7.26709">
        <ele>499.420166</ele>
        <time>2010-06-26T14:31:02Z</time>
      </trkpt>
      <trkpt lat="48.65983" lon="7.26715">
        <ele>497.123291</ele>
        <time>2010-06-26T14:33:03Z</time>
      </trkpt>
      <trkpt lat="48.65981" lon="7.26732">
        <ele>488.451416</ele>
        <time>2010-06-26T14:37:24Z</time>
      </trkpt>
      <trkpt lat="48.65982" lon="7.26757">
        <ele>490.232666</ele>
        <time>2010-06-26T14:42:10Z</time>
      </trkpt>
      <trkpt lat="48.65983" lon="7.26779">
        <ele>490.248291</ele>
        <time>2010-06-26T14:42:14Z</time>
      </trkpt>
      <trkpt lat="48.65986" lon="7.26801">
        <ele>489.802979</ele>
        <time>2010-06-26T14:42:18Z</time>
      </trkpt>
      <trkpt lat="48.65989" lon="7.26822">
        <ele>490.927979</ele>
        <time>2010-06-26T14:42:23Z</time>
      </trkpt>
      <trkpt lat="48.65995" lon="7.26846">
        <ele>492.115479</ele>
        <time>2010-06-26T14:42:28Z</time>
      </trkpt>
      <trkpt lat="48.65997" lon="7.2687">
        <ele>493.240479</ele>
        <time>2010-06-26T14:42:33Z</time>
      </trkpt>
      <trkpt lat="48.65999" lon="7.26892">
        <ele>493.943604</ele>
        <time>2010-06-26T14:42:39Z</time>
      </trkpt>
      <trkpt lat="48.66" lon="7.26913">
        <ele>496.724854</ele>
        <time>2010-06-26T14:42:45Z</time>
      </trkpt>
      <trkpt lat="48.66002" lon="7.26935">
        <ele>498.638916</ele>
        <time>2010-06-26T14:42:51Z</time>
      </trkpt>
      <trkpt lat="48.66005" lon="7.26956">
        <ele>501.170166</ele>
        <time>2010-06-26T14:42:56Z</time>
      </trkpt>
      <trkpt lat="48.66006" lon="7.26978">
        <ele>502.177979</ele>
        <time>2010-06-26T14:43:02Z</time>
      </trkpt>
      <trkpt lat="48.66004" lon="7.27">
        <ele>501.740479</ele>
        <time>2010-06-26T14:43:09Z</time>
      </trkpt>
      <trkpt lat="48.65994" lon="7.27015">
        <ele>503.006104</ele>
        <time>2010-06-26T14:43:17Z</time>
      </trkpt>
      <trkpt lat="48.65983" lon="7.27029">
        <ele>503.498291</ele>
        <time>2010-06-26T14:43:25Z</time>
      </trkpt>
      <trkpt lat="48.6597" lon="7.27032">
        <ele>507.607666</ele>
        <time>2010-06-26T14:43:36Z</time>
      </trkpt>
      <trkpt lat="48.65955" lon="7.27038">
        <ele>508.552979</ele>
        <time>2010-06-26T14:43:44Z</time>
      </trkpt>
      <trkpt lat="48.65944" lon="7.27051">
        <ele>507.427979</ele>
        <time>2010-06-26T14:43:49Z</time>
      </trkpt>
      <trkpt lat="48.65931" lon="7.2706">
        <ele>509.545166</ele>
        <time>2010-06-26T14:43:55Z</time>
      </trkpt>
      <trkpt lat="48.65918" lon="7.27066">
        <ele>511.443604</ele>
        <time>2010-06-26T14:44:00Z</time>
      </trkpt>
      <trkpt lat="48.65904" lon="7.27071">
        <ele>512.496582</ele>
        <time>2010-06-26T14:44:05Z</time>
      </trkpt>
      <trkpt lat="48.65891" lon="7.27077">
        <ele>516.793457</ele>
        <time>2010-06-26T14:44:12Z</time>
      </trkpt>
      <trkpt lat="48.65876" lon="7.27077">
        <ele>518.949707</ele>
        <time>2010-06-26T14:44:18Z</time>
      </trkpt>
      <trkpt lat="48.65862" lon="7.27082">
        <ele>521.309082</ele>
        <time>2010-06-26T14:44:24Z</time>
      </trkpt>
      <trkpt lat="48.65849" lon="7.27089">
        <ele>521.934082</ele>
        <time>2010-06-26T14:44:29Z</time>
      </trkpt>
      <trkpt lat="48.65833" lon="7.27097">
        <ele>522.793457</ele>
        <time>2010-06-26T14:44:35Z</time>
      </trkpt>
      <trkpt lat="48.6582" lon="7.27107">
        <ele>520.449707</ele>
        <time>2010-06-26T14:44:40Z</time>
      </trkpt>
      <trkpt lat="48.65806" lon="7.27115">
        <ele>518.668457</ele>
        <time>2010-06-26T14:44:46Z</time>
      </trkpt>
      <trkpt lat="48.65794" lon="7.27128">
        <ele>519.762207</ele>
        <time>2010-06-26T14:44:53Z</time>
      </trkpt>
      <trkpt lat="48.65781" lon="7.27135">
        <ele>521.980957</ele>
        <time>2010-06-26T14:45:00Z</time>
      </trkpt>
      <trkpt lat="48.65768" lon="7.27143">
        <ele>525.340332</ele>
        <time>2010-06-26T14:45:10Z</time>
      </trkpt>
      <trkpt lat="48.65755" lon="7.27149">
        <ele>528.371582</ele>
        <time>2010-06-26T14:45:24Z</time>
      </trkpt>
      <trkpt lat="48.65741" lon="7.27155">
        <ele>531.809082</ele>
        <time>2010-06-26T14:45:36Z</time>
      </trkpt>
      <trkpt lat="48.65728" lon="7.27159">
        <ele>530.637207</ele>
        <time>2010-06-26T14:45:44Z</time>
      </trkpt>
      <trkpt lat="48.65714" lon="7.27158">
        <ele>529.730957</ele>
        <time>2010-06-26T14:45:53Z</time>
      </trkpt>
      <trkpt lat="48.65699" lon="7.27157">
        <ele>528.355957</ele>
        <time>2010-06-26T14:46:02Z</time>
      </trkpt>
      <trkpt lat="48.65683" lon="7.27152">
        <ele>530.793457</ele>
        <time>2010-06-26T14:46:13Z</time>
      </trkpt>
      <trkpt lat="48.6567" lon="7.27145">
        <ele>532.230957</ele>
        <time>2010-06-26T14:46:21Z</time>
      </trkpt>
      <trkpt lat="48.65657" lon="7.27139">
        <ele>533.887207</ele>
        <time>2010-06-26T14:46:27Z</time>
      </trkpt>
      <trkpt lat="48.65643" lon="7.27134">
        <ele>530.543457</ele>
        <time>2010-06-26T14:46:32Z</time>
      </trkpt>
      <trkpt lat="48.65627" lon="7.27134">
        <ele>527.137207</ele>
        <time>2010-06-26T14:46:38Z</time>
      </trkpt>
      <trkpt lat="48.65613" lon="7.27133">
        <ele>528.027832</ele>
        <time>2010-06-26T14:46:42Z</time>
      </trkpt>
      <trkpt lat="48.65598" lon="7.2713">
        <ele>528.262207</ele>
        <time>2010-06-26T14:46:46Z</time>
      </trkpt>
      <trkpt lat="48.65584" lon="7.27129">
        <ele>528.730957</ele>
        <time>2010-06-26T14:46:50Z</time>
      </trkpt>
      <trkpt lat="48.6557" lon="7.27129">
        <ele>527.887207</ele>
        <time>2010-06-26T14:46:56Z</time>
      </trkpt>
      <trkpt lat="48.65556" lon="7.27136">
        <ele>523.777832</ele>
        <time>2010-06-26T14:47:00Z</time>
      </trkpt>
      <trkpt lat="48.65545" lon="7.27146">
        <ele>523.215332</ele>
        <time>2010-06-26T14:47:04Z</time>
      </trkpt>
      <trkpt lat="48.65537" lon="7.27166">
        <ele>518.527832</ele>
        <time>2010-06-26T14:47:10Z</time>
      </trkpt>
      <trkpt lat="48.65533" lon="7.27186">
        <ele>518.480957</ele>
        <time>2010-06-26T14:47:15Z</time>
      </trkpt>
      <trkpt lat="48.65532" lon="7.27208">
        <ele>518.074707</ele>
        <time>2010-06-26T14:47:21Z</time>
      </trkpt>
      <trkpt lat="48.65535" lon="7.27228">
        <ele>517.371582</ele>
        <time>2010-06-26T14:47:29Z</time>
      </trkpt>
      <trkpt lat="48.65546" lon="7.27241">
        <ele>513.621582</ele>
        <time>2010-06-26T14:47:56Z</time>
      </trkpt>
      <trkpt lat="48.65558" lon="7.27254">
        <ele>511.513916</ele>
        <time>2010-06-26T14:48:01Z</time>
      </trkpt>
      <trkpt lat="48.65572" lon="7.27261">
        <ele>509.123291</ele>
        <time>2010-06-26T14:48:07Z</time>
      </trkpt>
      <trkpt lat="48.65586" lon="7.27271">
        <ele>506.685791</ele>
        <time>2010-06-26T14:48:13Z</time>
      </trkpt>
      <trkpt lat="48.65599" lon="7.27283">
        <ele>503.896729</ele>
        <time>2010-06-26T14:48:18Z</time>
      </trkpt>
      <trkpt lat="48.65611" lon="7.27296">
        <ele>500.748291</ele>
        <time>2010-06-26T14:48:22Z</time>
      </trkpt>
      <trkpt lat="48.65623" lon="7.2731">
        <ele>499.217041</ele>
        <time>2010-06-26T14:48:27Z</time>
      </trkpt>
      <trkpt lat="48.65633" lon="7.27325">
        <ele>497.443604</ele>
        <time>2010-06-26T14:48:33Z</time>
      </trkpt>
      <trkpt lat="48.65648" lon="7.27337">
        <ele>495.974854</ele>
        <time>2010-06-26T14:48:39Z</time>
      </trkpt>
      <trkpt lat="48.65658" lon="7.27351">
        <ele>493.092041</ele>
        <time>2010-06-26T14:48:45Z</time>
      </trkpt>
      <trkpt lat="48.65668" lon="7.27366">
        <ele>491.818604</ele>
        <time>2010-06-26T14:48:50Z</time>
      </trkpt>
      <trkpt lat="48.6568" lon="7.27378">
        <ele>490.021729</ele>
        <time>2010-06-26T14:48:56Z</time>
      </trkpt>
      <trkpt lat="48.65685" lon="7.27398">
        <ele>486.568604</ele>
        <time>2010-06-26T14:49:03Z</time>
      </trkpt>
      <trkpt lat="48.65685" lon="7.2742">
        <ele>483.224854</ele>
        <time>2010-06-26T14:49:09Z</time>
      </trkpt>
      <trkpt lat="48.65689" lon="7.27438">
        <ele>478.318604</ele>
        <time>2010-06-26T14:49:19Z</time>
      </trkpt>
      <trkpt lat="48.65696" lon="7.27458">
        <ele>475.748291</ele>
        <time>2010-06-26T14:49:29Z</time>
      </trkpt>
      <trkpt lat="48.65699" lon="7.2748">
        <ele>473.185791</ele>
        <time>2010-06-26T14:49:38Z</time>
      </trkpt>
      <trkpt lat="48.657" lon="7.27501">
        <ele>471.295166</ele>
        <time>2010-06-26T14:49:49Z</time>
      </trkpt>
      <trkpt lat="48.65709" lon="7.27517">
        <ele>470.060791</ele>
        <time>2010-06-26T14:50:14Z</time>
      </trkpt>
      <trkpt lat="48.65701" lon="7.27534">
        <ele>468.060791</ele>
        <time>2010-06-26T14:50:19Z</time>
      </trkpt>
      <trkpt lat="48.65709" lon="7.27551">
        <ele>468.724854</ele>
        <time>2010-06-26T14:50:38Z</time>
      </trkpt>
      <trkpt lat="48.65719" lon="7.27561">
        <ele>461.607666</ele>
        <time>2010-06-26T14:51:31Z</time>
      </trkpt>
      <trkpt lat="48.65732" lon="7.27552">
        <ele>461.381104</ele>
        <time>2010-06-26T14:51:41Z</time>
      </trkpt>
      <trkpt lat="48.65742" lon="7.27538">
        <ele>462.443604</ele>
        <time>2010-06-26T14:51:50Z</time>
      </trkpt>
      <trkpt lat="48.65754" lon="7.27527">
        <ele>464.881104</ele>
        <time>2010-06-26T14:52:05Z</time>
      </trkpt>
      <trkpt lat="48.65764" lon="7.27514">
        <ele>466.310791</ele>
        <time>2010-06-26T14:52:14Z</time>
      </trkpt>
      <trkpt lat="48.65769" lon="7.27495">
        <ele>470.670166</ele>
        <time>2010-06-26T14:52:28Z</time>
      </trkpt>
      <trkpt lat="48.65771" lon="7.27476">
        <ele>476.224854</ele>
        <time>2010-06-26T14:52:45Z</time>
      </trkpt>
      <trkpt lat="48.65771" lon="7.27457">
        <ele>483.459229</ele>
        <time>2010-06-26T14:53:11Z</time>
      </trkpt>
      <trkpt lat="48.65783" lon="7.27449">
        <ele>487.732666</ele>
        <time>2010-06-26T14:53:31Z</time>
      </trkpt>
      <trkpt lat="48.65796" lon="7.27452">
        <ele>492.092041</ele>
        <time>2010-06-26T14:53:51Z</time>
      </trkpt>
      <trkpt lat="48.65809" lon="7.27455">
        <ele>494.435791</ele>
        <time>2010-06-26T14:54:09Z</time>
      </trkpt>
      <trkpt lat="48.65823" lon="7.27459">
        <ele>492.974854</ele>
        <time>2010-06-26T14:54:25Z</time>
      </trkpt>
      <trkpt lat="48.65839" lon="7.27458">
        <ele>490.584229</ele>
        <time>2010-06-26T14:54:40Z</time>
      </trkpt>
      <trkpt lat="48.65852" lon="7.27467">
        <ele>495.084229</ele>
        <time>2010-06-26T14:54:54Z</time>
      </trkpt>
      <trkpt lat="48.65865" lon="7.27471">
        <ele>498.951416</ele>
        <time>2010-06-26T14:55:17Z</time>
      </trkpt>
      <trkpt lat="48.65878" lon="7.27475">
        <ele>499.662354</ele>
        <time>2010-06-26T14:55:31Z</time>
      </trkpt>
      <trkpt lat="48.65891" lon="7.27476">
        <ele>502.474854</ele>
        <time>2010-06-26T14:55:45Z</time>
      </trkpt>
      <trkpt lat="48.65904" lon="7.27483">
        <ele>499.138916</ele>
        <time>2010-06-26T14:56:00Z</time>
      </trkpt>
      <trkpt lat="48.65918" lon="7.27485">
        <ele>500.357666</ele>
        <time>2010-06-26T14:56:14Z</time>
      </trkpt>
      <trkpt lat="48.6593" lon="7.27495">
        <ele>502.959229</ele>
        <time>2010-06-26T14:56:44Z</time>
      </trkpt>
      <trkpt lat="48.65934" lon="7.27514">
        <ele>505.810791</ele>
        <time>2010-06-26T14:57:31Z</time>
      </trkpt>
      <trkpt lat="48.65925" lon="7.27529">
        <ele>508.381104</ele>
        <time>2010-06-26T14:57:58Z</time>
      </trkpt>
      <trkpt lat="48.65916" lon="7.27546">
        <ele>509.545166</ele>
        <time>2010-06-26T14:58:15Z</time>
      </trkpt>
      <trkpt lat="48.65909" lon="7.27565">
        <ele>510.388916</ele>
        <time>2010-06-26T14:58:34Z</time>
      </trkpt>
      <trkpt lat="48.65899" lon="7.27578">
        <ele>513.215332</ele>
        <time>2010-06-26T14:58:53Z</time>
      </trkpt>
      <trkpt lat="48.65891" lon="7.27595">
        <ele>510.834229</ele>
        <time>2010-06-26T14:59:14Z</time>
      </trkpt>
      <trkpt lat="48.65886" lon="7.27614">
        <ele>512.605957</ele>
        <time>2010-06-26T14:59:40Z</time>
      </trkpt>
      <trkpt lat="48.65879" lon="7.27632">
        <ele>515.340332</ele>
        <time>2010-06-26T14:59:56Z</time>
      </trkpt>
      <trkpt lat="48.65873" lon="7.27651">
        <ele>518.340332</ele>
        <time>2010-06-26T15:00:15Z</time>
      </trkpt>
      <trkpt lat="48.65868" lon="7.27671">
        <ele>519.809082</ele>
        <time>2010-06-26T15:00:27Z</time>
      </trkpt>
      <trkpt lat="48.65872" lon="7.27692">
        <ele>519.793457</ele>
        <time>2010-06-26T15:01:24Z</time>
      </trkpt>
      <trkpt lat="48.6588" lon="7.27712">
        <ele>521.496582</ele>
        <time>2010-06-26T15:01:33Z</time>
      </trkpt>
      <trkpt lat="48.65886" lon="7.27732">
        <ele>523.824707</ele>
        <time>2010-06-26T15:01:41Z</time>
      </trkpt>
      <trkpt lat="48.65896" lon="7.27747">
        <ele>526.824707</ele>
        <time>2010-06-26T15:01:48Z</time>
      </trkpt>
      <trkpt lat="48.65903" lon="7.27764">
        <ele>530.605957</ele>
        <time>2010-06-26T15:01:58Z</time>
      </trkpt>
      <trkpt lat="48.65908" lon="7.27783">
        <ele>533.715332</ele>
        <time>2010-06-26T15:02:10Z</time>
      </trkpt>
      <trkpt lat="48.65918" lon="7.27798">
        <ele>535.668457</ele>
        <time>2010-06-26T15:02:19Z</time>
      </trkpt>
      <trkpt lat="48.65929" lon="7.27814">
        <ele>537.559082</ele>
        <time>2010-06-26T15:02:29Z</time>
      </trkpt>
      <trkpt lat="48.65941" lon="7.27825">
        <ele>537.012207</ele>
        <time>2010-06-26T15:02:44Z</time>
      </trkpt>
      <trkpt lat="48.65954" lon="7.27837">
        <ele>536.168457</ele>
        <time>2010-06-26T15:03:45Z</time>
      </trkpt>
      <trkpt lat="48.65968" lon="7.27849">
        <ele>535.465332</ele>
        <time>2010-06-26T15:03:50Z</time>
      </trkpt>
      <trkpt lat="48.6598" lon="7.27859">
        <ele>534.168457</ele>
        <time>2010-06-26T15:03:54Z</time>
      </trkpt>
      <trkpt lat="48.65991" lon="7.27874">
        <ele>532.980957</ele>
        <time>2010-06-26T15:04:00Z</time>
      </trkpt>
      <trkpt lat="48.66003" lon="7.27887">
        <ele>532.949707</ele>
        <time>2010-06-26T15:04:05Z</time>
      </trkpt>
      <trkpt lat="48.66023" lon="7.27904">
        <ele>531.715332</ele>
        <time>2010-06-26T15:04:10Z</time>
      </trkpt>
      <trkpt lat="48.66039" lon="7.27916">
        <ele>531.137207</ele>
        <time>2010-06-26T15:04:13Z</time>
      </trkpt>
      <trkpt lat="48.66051" lon="7.27932">
        <ele>529.996582</ele>
        <time>2010-06-26T15:04:16Z</time>
      </trkpt>
      <trkpt lat="48.66062" lon="7.27947">
        <ele>529.324707</ele>
        <time>2010-06-26T15:04:19Z</time>
      </trkpt>
      <trkpt lat="48.66076" lon="7.27961">
        <ele>528.762207</ele>
        <time>2010-06-26T15:04:22Z</time>
      </trkpt>
      <trkpt lat="48.66093" lon="7.27968">
        <ele>530.637207</ele>
        <time>2010-06-26T15:04:26Z</time>
      </trkpt>
      <trkpt lat="48.66106" lon="7.27964">
        <ele>533.684082</ele>
        <time>2010-06-26T15:04:30Z</time>
      </trkpt>
      <trkpt lat="48.66123" lon="7.27958">
        <ele>530.871582</ele>
        <time>2010-06-26T15:04:34Z</time>
      </trkpt>
      <trkpt lat="48.66137" lon="7.27948">
        <ele>530.449707</ele>
        <time>2010-06-26T15:04:37Z</time>
      </trkpt>
      <trkpt lat="48.66152" lon="7.2794">
        <ele>530.246582</ele>
        <time>2010-06-26T15:04:40Z</time>
      </trkpt>
      <trkpt lat="48.66167" lon="7.27936">
        <ele>529.840332</ele>
        <time>2010-06-26T15:04:44Z</time>
      </trkpt>
      <trkpt lat="48.66181" lon="7.27936">
        <ele>529.605957</ele>
        <time>2010-06-26T15:04:48Z</time>
      </trkpt>
      <trkpt lat="48.66195" lon="7.27935">
        <ele>529.699707</ele>
        <time>2010-06-26T15:04:53Z</time>
      </trkpt>
      <trkpt lat="48.6621" lon="7.27932">
        <ele>529.074707</ele>
        <time>2010-06-26T15:04:57Z</time>
      </trkpt>
      <trkpt lat="48.66226" lon="7.27929">
        <ele>528.934082</ele>
        <time>2010-06-26T15:05:02Z</time>
      </trkpt>
      <trkpt lat="48.66241" lon="7.2792">
        <ele>530.934082</ele>
        <time>2010-06-26T15:05:07Z</time>
      </trkpt>
      <trkpt lat="48.66253" lon="7.27908">
        <ele>532.262207</ele>
        <time>2010-06-26T15:05:12Z</time>
      </trkpt>
      <trkpt lat="48.66268" lon="7.27899">
        <ele>533.949707</ele>
        <time>2010-06-26T15:05:18Z</time>
      </trkpt>
      <trkpt lat="48.6628" lon="7.27887">
        <ele>536.449707</ele>
        <time>2010-06-26T15:05:23Z</time>
      </trkpt>
      <trkpt lat="48.66293" lon="7.27882">
        <ele>537.918457</ele>
        <time>2010-06-26T15:05:29Z</time>
      </trkpt>
      <trkpt lat="48.66305" lon="7.27873">
        <ele>537.746582</ele>
        <time>2010-06-26T15:05:41Z</time>
      </trkpt>
      <trkpt lat="48.66318" lon="7.27866">
        <ele>536.043457</ele>
        <time>2010-06-26T15:05:49Z</time>
      </trkpt>
      <trkpt lat="48.66331" lon="7.27871">
        <ele>533.887207</ele>
        <time>2010-06-26T15:05:55Z</time>
      </trkpt>
      <trkpt lat="48.66344" lon="7.2788">
        <ele>535.887207</ele>
        <time>2010-06-26T15:06:06Z</time>
      </trkpt>
      <trkpt lat="48.66357" lon="7.27894">
        <ele>539.027832</ele>
        <time>2010-06-26T15:06:16Z</time>
      </trkpt>
      <trkpt lat="48.66364" lon="7.27913">
        <ele>541.793457</ele>
        <time>2010-06-26T15:06:22Z</time>
      </trkpt>
      <trkpt lat="48.66373" lon="7.27932">
        <ele>541.262207</ele>
        <time>2010-06-26T15:06:28Z</time>
      </trkpt>
      <trkpt lat="48.66382" lon="7.27949">
        <ele>542.043457</ele>
        <time>2010-06-26T15:06:34Z</time>
      </trkpt>
      <trkpt lat="48.66394" lon="7.27961">
        <ele>540.730957</ele>
        <time>2010-06-26T15:06:37Z</time>
      </trkpt>
      <trkpt lat="48.66405" lon="7.27982">
        <ele>539.840332</ele>
        <time>2010-06-26T15:06:41Z</time>
      </trkpt>
      <trkpt lat="48.66414" lon="7.28001">
        <ele>539.184082</ele>
        <time>2010-06-26T15:06:44Z</time>
      </trkpt>
      <trkpt lat="48.66421" lon="7.28019">
        <ele>538.027832</ele>
        <time>2010-06-26T15:06:47Z</time>
      </trkpt>
      <trkpt lat="48.6643" lon="7.28041">
        <ele>538.215332</ele>
        <time>2010-06-26T15:06:50Z</time>
      </trkpt>
      <trkpt lat="48.66441" lon="7.28066">
        <ele>538.699707</ele>
        <time>2010-06-26T15:06:53Z</time>
      </trkpt>
      <trkpt lat="48.66451" lon="7.28086">
        <ele>538.902832</ele>
        <time>2010-06-26T15:06:55Z</time>
      </trkpt>
      <trkpt lat="48.66458" lon="7.28113">
        <ele>539.090332</ele>
        <time>2010-06-26T15:06:58Z</time>
      </trkpt>
      <trkpt lat="48.66467" lon="7.28135">
        <ele>538.996582</ele>
        <time>2010-06-26T15:07:01Z</time>
      </trkpt>
      <trkpt lat="48.66477" lon="7.2815">
        <ele>538.871582</ele>
        <time>2010-06-26T15:07:03Z</time>
      </trkpt>
      <trkpt lat="48.66482" lon="7.28169">
        <ele>538.668457</ele>
        <time>2010-06-26T15:07:05Z</time>
      </trkpt>
      <trkpt lat="48.66493" lon="7.28189">
        <ele>537.777832</ele>
        <time>2010-06-26T15:07:07Z</time>
      </trkpt>
      <trkpt lat="48.66507" lon="7.28207">
        <ele>537.012207</ele>
        <time>2010-06-26T15:07:09Z</time>
      </trkpt>
      <trkpt lat="48.6652" lon="7.28225">
        <ele>535.402832</ele>
        <time>2010-06-26T15:07:11Z</time>
      </trkpt>
      <trkpt lat="48.6653" lon="7.28242">
        <ele>534.027832</ele>
        <time>2010-06-26T15:07:14Z</time>
      </trkpt>
      <trkpt lat="48.66545" lon="7.28256">
        <ele>534.168457</ele>
        <time>2010-06-26T15:07:17Z</time>
      </trkpt>
      <trkpt lat="48.6656" lon="7.28266">
        <ele>535.027832</ele>
        <time>2010-06-26T15:07:20Z</time>
      </trkpt>
      <trkpt lat="48.66578" lon="7.28273">
        <ele>534.824707</ele>
        <time>2010-06-26T15:07:24Z</time>
      </trkpt>
      <trkpt lat="48.66589" lon="7.28285">
        <ele>532.668457</ele>
        <time>2010-06-26T15:08:04Z</time>
      </trkpt>
      <trkpt lat="48.66601" lon="7.28301">
        <ele>534.215332</ele>
        <time>2010-06-26T15:08:11Z</time>
      </trkpt>
      <trkpt lat="48.66613" lon="7.28315">
        <ele>535.043457</ele>
        <time>2010-06-26T15:08:18Z</time>
      </trkpt>
      <trkpt lat="48.66626" lon="7.28328">
        <ele>537.605957</ele>
        <time>2010-06-26T15:08:25Z</time>
      </trkpt>
      <trkpt lat="48.66639" lon="7.28338">
        <ele>538.934082</ele>
        <time>2010-06-26T15:08:30Z</time>
      </trkpt>
      <trkpt lat="48.66652" lon="7.28349">
        <ele>538.340332</ele>
        <time>2010-06-26T15:08:34Z</time>
      </trkpt>
      <trkpt lat="48.66665" lon="7.28362">
        <ele>540.434082</ele>
        <time>2010-06-26T15:08:39Z</time>
      </trkpt>
      <trkpt lat="48.66677" lon="7.28372">
        <ele>542.449707</ele>
        <time>2010-06-26T15:08:43Z</time>
      </trkpt>
      <trkpt lat="48.66691" lon="7.28389">
        <ele>543.652832</ele>
        <time>2010-06-26T15:08:47Z</time>
      </trkpt>
      <trkpt lat="48.66702" lon="7.28402">
        <ele>542.137207</ele>
        <time>2010-06-26T15:08:50Z</time>
      </trkpt>
      <trkpt lat="48.66713" lon="7.28415">
        <ele>538.293457</ele>
        <time>2010-06-26T15:08:52Z</time>
      </trkpt>
      <trkpt lat="48.66726" lon="7.2843">
        <ele>536.480957</ele>
        <time>2010-06-26T15:08:55Z</time>
      </trkpt>
      <trkpt lat="48.66737" lon="7.28445">
        <ele>536.137207</ele>
        <time>2010-06-26T15:08:59Z</time>
      </trkpt>
      <trkpt lat="48.66739" lon="7.28465">
        <ele>537.824707</ele>
        <time>2010-06-26T15:09:05Z</time>
      </trkpt>
      <trkpt lat="48.66746" lon="7.28485">
        <ele>540.824707</ele>
        <time>2010-06-26T15:09:10Z</time>
      </trkpt>
      <trkpt lat="48.6676" lon="7.28501">
        <ele>540.277832</ele>
        <time>2010-06-26T15:09:13Z</time>
      </trkpt>
      <trkpt lat="48.66766" lon="7.28521">
        <ele>540.730957</ele>
        <time>2010-06-26T15:09:17Z</time>
      </trkpt>
      <trkpt lat="48.66774" lon="7.28541">
        <ele>539.980957</ele>
        <time>2010-06-26T15:09:22Z</time>
      </trkpt>
      <trkpt lat="48.6678" lon="7.28564">
        <ele>539.934082</ele>
        <time>2010-06-26T15:09:26Z</time>
      </trkpt>
      <trkpt lat="48.66784" lon="7.2859">
        <ele>539.824707</ele>
        <time>2010-06-26T15:09:30Z</time>
      </trkpt>
      <trkpt lat="48.66787" lon="7.28613">
        <ele>539.418457</ele>
        <time>2010-06-26T15:09:34Z</time>
      </trkpt>
      <trkpt lat="48.6679" lon="7.28633">
        <ele>539.246582</ele>
        <time>2010-06-26T15:09:37Z</time>
      </trkpt>
      <trkpt lat="48.66794" lon="7.28657">
        <ele>540.105957</ele>
        <time>2010-06-26T15:09:41Z</time>
      </trkpt>
      <trkpt lat="48.66798" lon="7.28678">
        <ele>540.027832</ele>
        <time>2010-06-26T15:09:44Z</time>
      </trkpt>
      <trkpt lat="48.66803" lon="7.28698">
        <ele>537.230957</ele>
        <time>2010-06-26T15:09:46Z</time>
      </trkpt>
      <trkpt lat="48.66806" lon="7.28718">
        <ele>535.824707</ele>
        <time>2010-06-26T15:09:49Z</time>
      </trkpt>
      <trkpt lat="48.66811" lon="7.28741">
        <ele>533.418457</ele>
        <time>2010-06-26T15:09:52Z</time>
      </trkpt>
      <trkpt lat="48.66819" lon="7.2876">
        <ele>530.418457</ele>
        <time>2010-06-26T15:09:56Z</time>
      </trkpt>
      <trkpt lat="48.6683" lon="7.28782">
        <ele>528.152832</ele>
        <time>2010-06-26T15:10:00Z</time>
      </trkpt>
      <trkpt lat="48.66838" lon="7.28803">
        <ele>527.246582</ele>
        <time>2010-06-26T15:10:03Z</time>
      </trkpt>
      <trkpt lat="48.66845" lon="7.28827">
        <ele>526.543457</ele>
        <time>2010-06-26T15:10:06Z</time>
      </trkpt>
      <trkpt lat="48.66862" lon="7.28852">
        <ele>526.387207</ele>
        <time>2010-06-26T15:10:08Z</time>
      </trkpt>
      <trkpt lat="48.66869" lon="7.28872">
        <ele>525.137207</ele>
        <time>2010-06-26T15:10:10Z</time>
      </trkpt>
      <trkpt lat="48.66872" lon="7.28896">
        <ele>524.152832</ele>
        <time>2010-06-26T15:10:13Z</time>
      </trkpt>
      <trkpt lat="48.66877" lon="7.28921">
        <ele>524.246582</ele>
        <time>2010-06-26T15:10:17Z</time>
      </trkpt>
      <trkpt lat="48.66878" lon="7.28945">
        <ele>523.887207</ele>
        <time>2010-06-26T15:10:21Z</time>
      </trkpt>
      <trkpt lat="48.6688" lon="7.28969">
        <ele>523.043457</ele>
        <time>2010-06-26T15:10:25Z</time>
      </trkpt>
      <trkpt lat="48.66885" lon="7.28994">
        <ele>523.168457</ele>
        <time>2010-06-26T15:10:29Z</time>
      </trkpt>
      <trkpt lat="48.66889" lon="7.29017">
        <ele>523.199707</ele>
        <time>2010-06-26T15:10:33Z</time>
      </trkpt>
      <trkpt lat="48.66893" lon="7.2904">
        <ele>522.902832</ele>
        <time>2010-06-26T15:10:37Z</time>
      </trkpt>
      <trkpt lat="48.66896" lon="7.29063">
        <ele>523.652832</ele>
        <time>2010-06-26T15:10:41Z</time>
      </trkpt>
      <trkpt lat="48.66901" lon="7.29087">
        <ele>524.230957</ele>
        <time>2010-06-26T15:10:45Z</time>
      </trkpt>
      <trkpt lat="48.66904" lon="7.29109">
        <ele>525.199707</ele>
        <time>2010-06-26T15:10:49Z</time>
      </trkpt>
      <trkpt lat="48.66909" lon="7.29133">
        <ele>525.418457</ele>
        <time>2010-06-26T15:10:53Z</time>
      </trkpt>
      <trkpt lat="48.66914" lon="7.29152">
        <ele>525.434082</ele>
        <time>2010-06-26T15:10:56Z</time>
      </trkpt>
      <trkpt lat="48.66919" lon="7.29173">
        <ele>525.793457</ele>
        <time>2010-06-26T15:10:59Z</time>
      </trkpt>
      <trkpt lat="48.66925" lon="7.29193">
        <ele>525.184082</ele>
        <time>2010-06-26T15:11:02Z</time>
      </trkpt>
      <trkpt lat="48.6693" lon="7.29214">
        <ele>524.762207</ele>
        <time>2010-06-26T15:11:05Z</time>
      </trkpt>
      <trkpt lat="48.66937" lon="7.2924">
        <ele>525.949707</ele>
        <time>2010-06-26T15:11:09Z</time>
      </trkpt>
      <trkpt lat="48.66943" lon="7.29262">
        <ele>526.465332</ele>
        <time>2010-06-26T15:11:12Z</time>
      </trkpt>
      <trkpt lat="48.66951" lon="7.29287">
        <ele>525.934082</ele>
        <time>2010-06-26T15:11:15Z</time>
      </trkpt>
      <trkpt lat="48.6696" lon="7.29308">
        <ele>526.559082</ele>
        <time>2010-06-26T15:11:18Z</time>
      </trkpt>
      <trkpt lat="48.66967" lon="7.29328">
        <ele>527.043457</ele>
        <time>2010-06-26T15:11:21Z</time>
      </trkpt>
      <trkpt lat="48.66973" lon="7.29351">
        <ele>527.855957</ele>
        <time>2010-06-26T15:11:25Z</time>
      </trkpt>
      <trkpt lat="48.66979" lon="7.29369">
        <ele>528.699707</ele>
        <time>2010-06-26T15:11:30Z</time>
      </trkpt>
      <trkpt lat="48.66987" lon="7.29387">
        <ele>529.793457</ele>
        <time>2010-06-26T15:11:38Z</time>
      </trkpt>
      <trkpt lat="48.66992" lon="7.29407">
        <ele>530.184082</ele>
        <time>2010-06-26T15:11:42Z</time>
      </trkpt>
      <trkpt lat="48.67" lon="7.29432">
        <ele>530.512207</ele>
        <time>2010-06-26T15:11:46Z</time>
      </trkpt>
      <trkpt lat="48.67011" lon="7.29455">
        <ele>530.121582</ele>
        <time>2010-06-26T15:11:49Z</time>
      </trkpt>
      <trkpt lat="48.67017" lon="7.29475">
        <ele>530.543457</ele>
        <time>2010-06-26T15:11:52Z</time>
      </trkpt>
      <trkpt lat="48.67032" lon="7.29496">
        <ele>530.996582</ele>
        <time>2010-06-26T15:11:55Z</time>
      </trkpt>
      <trkpt lat="48.67048" lon="7.2951">
        <ele>531.512207</ele>
        <time>2010-06-26T15:11:58Z</time>
      </trkpt>
      <trkpt lat="48.67062" lon="7.29517">
        <ele>531.793457</ele>
        <time>2010-06-26T15:12:00Z</time>
      </trkpt>
      <trkpt lat="48.67076" lon="7.29523">
        <ele>532.074707</ele>
        <time>2010-06-26T15:12:02Z</time>
      </trkpt>
      <trkpt lat="48.67091" lon="7.29529">
        <ele>532.246582</ele>
        <time>2010-06-26T15:12:04Z</time>
      </trkpt>
      <trkpt lat="48.67104" lon="7.29534">
        <ele>531.871582</ele>
        <time>2010-06-26T15:12:06Z</time>
      </trkpt>
      <trkpt lat="48.67117" lon="7.29543">
        <ele>531.527832</ele>
        <time>2010-06-26T15:12:08Z</time>
      </trkpt>
      <trkpt lat="48.67136" lon="7.29556">
        <ele>531.590332</ele>
        <time>2010-06-26T15:12:11Z</time>
      </trkpt>
      <trkpt lat="48.6715" lon="7.29566">
        <ele>530.980957</ele>
        <time>2010-06-26T15:12:14Z</time>
      </trkpt>
      <trkpt lat="48.67168" lon="7.29578">
        <ele>532.871582</ele>
        <time>2010-06-26T15:12:17Z</time>
      </trkpt>
      <trkpt lat="48.67184" lon="7.29593">
        <ele>534.168457</ele>
        <time>2010-06-26T15:12:20Z</time>
      </trkpt>
      <trkpt lat="48.67196" lon="7.29612">
        <ele>536.777832</ele>
        <time>2010-06-26T15:12:23Z</time>
      </trkpt>
      <trkpt lat="48.67201" lon="7.29631">
        <ele>539.215332</ele>
        <time>2010-06-26T15:12:26Z</time>
      </trkpt>
      <trkpt lat="48.67208" lon="7.2965">
        <ele>540.215332</ele>
        <time>2010-06-26T15:12:29Z</time>
      </trkpt>
      <trkpt lat="48.67212" lon="7.29673">
        <ele>540.699707</ele>
        <time>2010-06-26T15:12:32Z</time>
      </trkpt>
      <trkpt lat="48.67213" lon="7.297">
        <ele>540.949707</ele>
        <time>2010-06-26T15:12:35Z</time>
      </trkpt>
      <trkpt lat="48.67219" lon="7.29719">
        <ele>531.105957</ele>
        <time>2010-06-26T15:12:37Z</time>
      </trkpt>
      <trkpt lat="48.67223" lon="7.29739">
        <ele>525.449707</ele>
        <time>2010-06-26T15:12:39Z</time>
      </trkpt>
      <trkpt lat="48.6722" lon="7.29767">
        <ele>524.418457</ele>
        <time>2010-06-26T15:12:42Z</time>
      </trkpt>
      <trkpt lat="48.67218" lon="7.29787">
        <ele>523.246582</ele>
        <time>2010-06-26T15:12:44Z</time>
      </trkpt>
      <trkpt lat="48.67215" lon="7.29807">
        <ele>522.855957</ele>
        <time>2010-06-26T15:12:46Z</time>
      </trkpt>
      <trkpt lat="48.67213" lon="7.29827">
        <ele>522.199707</ele>
        <time>2010-06-26T15:12:48Z</time>
      </trkpt>
      <trkpt lat="48.67213" lon="7.29848">
        <ele>519.074707</ele>
        <time>2010-06-26T15:12:50Z</time>
      </trkpt>
      <trkpt lat="48.6721" lon="7.29867">
        <ele>518.637207</ele>
        <time>2010-06-26T15:12:52Z</time>
      </trkpt>
      <trkpt lat="48.67207" lon="7.29888">
        <ele>517.887207</ele>
        <time>2010-06-26T15:12:54Z</time>
      </trkpt>
      <trkpt lat="48.67204" lon="7.2991">
        <ele>517.184082</ele>
        <time>2010-06-26T15:12:56Z</time>
      </trkpt>
      <trkpt lat="48.67202" lon="7.29932">
        <ele>516.715332</ele>
        <time>2010-06-26T15:12:58Z</time>
      </trkpt>
      <trkpt lat="48.672" lon="7.29954">
        <ele>516.137207</ele>
        <time>2010-06-26T15:13:00Z</time>
      </trkpt>
      <trkpt lat="48.67198" lon="7.29977">
        <ele>515.246582</ele>
        <time>2010-06-26T15:13:02Z</time>
      </trkpt>
      <trkpt lat="48.67197" lon="7.3">
        <ele>514.465332</ele>
        <time>2010-06-26T15:13:04Z</time>
      </trkpt>
      <trkpt lat="48.67196" lon="7.30022">
        <ele>514.980957</ele>
        <time>2010-06-26T15:13:06Z</time>
      </trkpt>
      <trkpt lat="48.67199" lon="7.30045">
        <ele>513.871582</ele>
        <time>2010-06-26T15:13:08Z</time>
      </trkpt>
      <trkpt lat="48.67207" lon="7.30067">
        <ele>511.967041</ele>
        <time>2010-06-26T15:13:10Z</time>
      </trkpt>
      <trkpt lat="48.67215" lon="7.30089">
        <ele>511.310791</ele>
        <time>2010-06-26T15:13:12Z</time>
      </trkpt>
      <trkpt lat="48.67226" lon="7.3011">
        <ele>510.998291</ele>
        <time>2010-06-26T15:13:14Z</time>
      </trkpt>
      <trkpt lat="48.6724" lon="7.30131">
        <ele>506.771729</ele>
        <time>2010-06-26T15:13:16Z</time>
      </trkpt>
      <trkpt lat="48.67253" lon="7.30148">
        <ele>504.857666</ele>
        <time>2010-06-26T15:13:18Z</time>
      </trkpt>
      <trkpt lat="48.67266" lon="7.30164">
        <ele>503.256104</ele>
        <time>2010-06-26T15:13:20Z</time>
      </trkpt>
      <trkpt lat="48.67278" lon="7.3018">
        <ele>501.881104</ele>
        <time>2010-06-26T15:13:22Z</time>
      </trkpt>
      <trkpt lat="48.67291" lon="7.30193">
        <ele>499.724854</ele>
        <time>2010-06-26T15:13:24Z</time>
      </trkpt>
      <trkpt lat="48.67302" lon="7.30207">
        <ele>498.709229</ele>
        <time>2010-06-26T15:13:26Z</time>
      </trkpt>
      <trkpt lat="48.67315" lon="7.3022">
        <ele>496.482666</ele>
        <time>2010-06-26T15:13:28Z</time>
      </trkpt>
      <trkpt lat="48.67327" lon="7.30232">
        <ele>495.373291</ele>
        <time>2010-06-26T15:13:30Z</time>
      </trkpt>
      <trkpt lat="48.67344" lon="7.30249">
        <ele>494.170166</ele>
        <time>2010-06-26T15:13:33Z</time>
      </trkpt>
      <trkpt lat="48.67356" lon="7.3026">
        <ele>493.326416</ele>
        <time>2010-06-26T15:13:35Z</time>
      </trkpt>
      <trkpt lat="48.67371" lon="7.30276">
        <ele>491.920166</ele>
        <time>2010-06-26T15:13:38Z</time>
      </trkpt>
      <trkpt lat="48.67383" lon="7.3029">
        <ele>491.834229</ele>
        <time>2010-06-26T15:13:40Z</time>
      </trkpt>
      <trkpt lat="48.6739" lon="7.3031">
        <ele>492.763916</ele>
        <time>2010-06-26T15:13:42Z</time>
      </trkpt>
      <trkpt lat="48.67397" lon="7.30328">
        <ele>492.795166</ele>
        <time>2010-06-26T15:13:44Z</time>
      </trkpt>
      <trkpt lat="48.67405" lon="7.30348">
        <ele>493.248291</ele>
        <time>2010-06-26T15:13:46Z</time>
      </trkpt>
      <trkpt lat="48.6741" lon="7.30369">
        <ele>493.373291</ele>
        <time>2010-06-26T15:13:48Z</time>
      </trkpt>
      <trkpt lat="48.67416" lon="7.30389">
        <ele>492.545166</ele>
        <time>2010-06-26T15:13:50Z</time>
      </trkpt>
      <trkpt lat="48.67417" lon="7.30409">
        <ele>491.685791</ele>
        <time>2010-06-26T15:13:52Z</time>
      </trkpt>
      <trkpt lat="48.67416" lon="7.30431">
        <ele>491.162354</ele>
        <time>2010-06-26T15:13:54Z</time>
      </trkpt>
      <trkpt lat="48.67411" lon="7.3045">
        <ele>491.060791</ele>
        <time>2010-06-26T15:13:56Z</time>
      </trkpt>
      <trkpt lat="48.674" lon="7.30474">
        <ele>491.818604</ele>
        <time>2010-06-26T15:13:59Z</time>
      </trkpt>
      <trkpt lat="48.67388" lon="7.30496">
        <ele>491.443604</ele>
        <time>2010-06-26T15:14:02Z</time>
      </trkpt>
      <trkpt lat="48.67375" lon="7.30518">
        <ele>491.662354</ele>
        <time>2010-06-26T15:14:05Z</time>
      </trkpt>
      <trkpt lat="48.6737" lon="7.30545">
        <ele>490.959229</ele>
        <time>2010-06-26T15:14:08Z</time>
      </trkpt>
      <trkpt lat="48.67374" lon="7.30572">
        <ele>490.248291</ele>
        <time>2010-06-26T15:14:11Z</time>
      </trkpt>
      <trkpt lat="48.6738" lon="7.30592">
        <ele>489.521729</ele>
        <time>2010-06-26T15:14:13Z</time>
      </trkpt>
      <trkpt lat="48.67388" lon="7.30613">
        <ele>488.638916</ele>
        <time>2010-06-26T15:14:15Z</time>
      </trkpt>
      <trkpt lat="48.67396" lon="7.30634">
        <ele>488.060791</ele>
        <time>2010-06-26T15:14:17Z</time>
      </trkpt>
      <trkpt lat="48.67405" lon="7.30654">
        <ele>487.092041</ele>
        <time>2010-06-26T15:14:19Z</time>
      </trkpt>
      <trkpt lat="48.67413" lon="7.30675">
        <ele>486.318604</ele>
        <time>2010-06-26T15:14:21Z</time>
      </trkpt>
      <trkpt lat="48.67422" lon="7.30695">
        <ele>485.420166</ele>
        <time>2010-06-26T15:14:23Z</time>
      </trkpt>
      <trkpt lat="48.67432" lon="7.30717">
        <ele>484.295166</ele>
        <time>2010-06-26T15:14:25Z</time>
      </trkpt>
      <trkpt lat="48.6744" lon="7.30737">
        <ele>483.552979</ele>
        <time>2010-06-26T15:14:27Z</time>
      </trkpt>
      <trkpt lat="48.67447" lon="7.30756">
        <ele>482.959229</ele>
        <time>2010-06-26T15:14:29Z</time>
      </trkpt>
      <trkpt lat="48.67453" lon="7.30775">
        <ele>481.295166</ele>
        <time>2010-06-26T15:14:31Z</time>
      </trkpt>
      <trkpt lat="48.67461" lon="7.30795">
        <ele>480.412354</ele>
        <time>2010-06-26T15:14:33Z</time>
      </trkpt>
      <trkpt lat="48.6747" lon="7.30815">
        <ele>479.467041</ele>
        <time>2010-06-26T15:14:35Z</time>
      </trkpt>
      <trkpt lat="48.67476" lon="7.30835">
        <ele>479.467041</ele>
        <time>2010-06-26T15:14:37Z</time>
      </trkpt>
      <trkpt lat="48.67484" lon="7.30857">
        <ele>479.052979</ele>
        <time>2010-06-26T15:14:39Z</time>
      </trkpt>
      <trkpt lat="48.6749" lon="7.30879">
        <ele>478.896729</ele>
        <time>2010-06-26T15:14:41Z</time>
      </trkpt>
      <trkpt lat="48.67496" lon="7.30902">
        <ele>479.138916</ele>
        <time>2010-06-26T15:14:43Z</time>
      </trkpt>
      <trkpt lat="48.675" lon="7.30923">
        <ele>479.373291</ele>
        <time>2010-06-26T15:14:45Z</time>
      </trkpt>
      <trkpt lat="48.67504" lon="7.30945">
        <ele>479.584229</ele>
        <time>2010-06-26T15:14:47Z</time>
      </trkpt>
      <trkpt lat="48.67506" lon="7.30966">
        <ele>479.717041</ele>
        <time>2010-06-26T15:14:49Z</time>
      </trkpt>
      <trkpt lat="48.67509" lon="7.30986">
        <ele>479.935791</ele>
        <time>2010-06-26T15:14:51Z</time>
      </trkpt>
      <trkpt lat="48.67508" lon="7.31007">
        <ele>479.756104</ele>
        <time>2010-06-26T15:14:53Z</time>
      </trkpt>
      <trkpt lat="48.67507" lon="7.31029">
        <ele>479.545166</ele>
        <time>2010-06-26T15:14:55Z</time>
      </trkpt>
      <trkpt lat="48.67505" lon="7.31051">
        <ele>479.779541</ele>
        <time>2010-06-26T15:14:57Z</time>
      </trkpt>
      <trkpt lat="48.67502" lon="7.31073">
        <ele>479.474854</ele>
        <time>2010-06-26T15:14:59Z</time>
      </trkpt>
      <trkpt lat="48.675" lon="7.31094">
        <ele>479.381104</ele>
        <time>2010-06-26T15:15:01Z</time>
      </trkpt>
      <trkpt lat="48.675" lon="7.31114">
        <ele>479.638916</ele>
        <time>2010-06-26T15:15:03Z</time>
      </trkpt>
      <trkpt lat="48.675" lon="7.31135">
        <ele>480.373291</ele>
        <time>2010-06-26T15:15:05Z</time>
      </trkpt>
      <trkpt lat="48.67502" lon="7.31155">
        <ele>480.631104</ele>
        <time>2010-06-26T15:15:07Z</time>
      </trkpt>
      <trkpt lat="48.67507" lon="7.31175">
        <ele>481.076416</ele>
        <time>2010-06-26T15:15:09Z</time>
      </trkpt>
      <trkpt lat="48.67514" lon="7.31202">
        <ele>481.490479</ele>
        <time>2010-06-26T15:15:12Z</time>
      </trkpt>
      <trkpt lat="48.67522" lon="7.31228">
        <ele>482.388916</ele>
        <time>2010-06-26T15:15:15Z</time>
      </trkpt>
      <trkpt lat="48.67534" lon="7.31251">
        <ele>482.920166</ele>
        <time>2010-06-26T15:15:18Z</time>
      </trkpt>
      <trkpt lat="48.67545" lon="7.31265">
        <ele>482.920166</ele>
        <time>2010-06-26T15:15:20Z</time>
      </trkpt>
      <trkpt lat="48.67562" lon="7.31281">
        <ele>485.404541</ele>
        <time>2010-06-26T15:15:23Z</time>
      </trkpt>
      <trkpt lat="48.67575" lon="7.31288">
        <ele>485.021729</ele>
        <time>2010-06-26T15:15:25Z</time>
      </trkpt>
      <trkpt lat="48.67591" lon="7.31289">
        <ele>483.795166</ele>
        <time>2010-06-26T15:15:28Z</time>
      </trkpt>
      <trkpt lat="48.67611" lon="7.3129">
        <ele>482.685791</ele>
        <time>2010-06-26T15:15:31Z</time>
      </trkpt>
      <trkpt lat="48.67629" lon="7.31289">
        <ele>482.670166</ele>
        <time>2010-06-26T15:15:34Z</time>
      </trkpt>
      <trkpt lat="48.67645" lon="7.31278">
        <ele>482.537354</ele>
        <time>2010-06-26T15:15:37Z</time>
      </trkpt>
      <trkpt lat="48.67662" lon="7.31266">
        <ele>482.029541</ele>
        <time>2010-06-26T15:15:40Z</time>
      </trkpt>
      <trkpt lat="48.6768" lon="7.31259">
        <ele>481.842041</ele>
        <time>2010-06-26T15:15:43Z</time>
      </trkpt>
      <trkpt lat="48.67699" lon="7.31258">
        <ele>481.013916</ele>
        <time>2010-06-26T15:15:46Z</time>
      </trkpt>
      <trkpt lat="48.67719" lon="7.31257">
        <ele>480.396729</ele>
        <time>2010-06-26T15:15:49Z</time>
      </trkpt>
      <trkpt lat="48.67738" lon="7.3126">
        <ele>479.607666</ele>
        <time>2010-06-26T15:15:52Z</time>
      </trkpt>
      <trkpt lat="48.67751" lon="7.31264">
        <ele>479.146729</ele>
        <time>2010-06-26T15:15:54Z</time>
      </trkpt>
      <trkpt lat="48.67765" lon="7.31268">
        <ele>478.537354</ele>
        <time>2010-06-26T15:15:56Z</time>
      </trkpt>
      <trkpt lat="48.67779" lon="7.31267">
        <ele>478.224854</ele>
        <time>2010-06-26T15:15:58Z</time>
      </trkpt>
      <trkpt lat="48.67793" lon="7.31261">
        <ele>477.177979</ele>
        <time>2010-06-26T15:16:00Z</time>
      </trkpt>
      <trkpt lat="48.67808" lon="7.31254">
        <ele>476.802979</ele>
        <time>2010-06-26T15:16:02Z</time>
      </trkpt>
      <trkpt lat="48.67823" lon="7.31247">
        <ele>476.099854</ele>
        <time>2010-06-26T15:16:04Z</time>
      </trkpt>
      <trkpt lat="48.67838" lon="7.31242">
        <ele>475.662354</ele>
        <time>2010-06-26T15:16:06Z</time>
      </trkpt>
      <trkpt lat="48.67853" lon="7.31238">
        <ele>475.013916</ele>
        <time>2010-06-26T15:16:08Z</time>
      </trkpt>
      <trkpt lat="48.67868" lon="7.31236">
        <ele>474.052979</ele>
        <time>2010-06-26T15:16:10Z</time>
      </trkpt>
      <trkpt lat="48.67883" lon="7.31236">
        <ele>473.498291</ele>
        <time>2010-06-26T15:16:12Z</time>
      </trkpt>
      <trkpt lat="48.67898" lon="7.31238">
        <ele>473.138916</ele>
        <time>2010-06-26T15:16:14Z</time>
      </trkpt>
      <trkpt lat="48.67913" lon="7.31242">
        <ele>472.685791</ele>
        <time>2010-06-26T15:16:16Z</time>
      </trkpt>
      <trkpt lat="48.67929" lon="7.31252">
        <ele>472.334229</ele>
        <time>2010-06-26T15:16:18Z</time>
      </trkpt>
      <trkpt lat="48.67942" lon="7.31264">
        <ele>472.060791</ele>
        <time>2010-06-26T15:16:20Z</time>
      </trkpt>
      <trkpt lat="48.67954" lon="7.31276">
        <ele>472.295166</ele>
        <time>2010-06-26T15:16:22Z</time>
      </trkpt>
      <trkpt lat="48.67967" lon="7.31287">
        <ele>471.748291</ele>
        <time>2010-06-26T15:16:24Z</time>
      </trkpt>
      <trkpt lat="48.6798" lon="7.31293">
        <ele>472.599854</ele>
        <time>2010-06-26T15:16:26Z</time>
      </trkpt>
      <trkpt lat="48.67996" lon="7.31295">
        <ele>471.834229</ele>
        <time>2010-06-26T15:16:28Z</time>
      </trkpt>
      <trkpt lat="48.68014" lon="7.31293">
        <ele>470.818604</ele>
        <time>2010-06-26T15:16:30Z</time>
      </trkpt>
      <trkpt lat="48.68029" lon="7.31289">
        <ele>469.631104</ele>
        <time>2010-06-26T15:16:32Z</time>
      </trkpt>
      <trkpt lat="48.68044" lon="7.31281">
        <ele>469.927979</ele>
        <time>2010-06-26T15:16:34Z</time>
      </trkpt>
      <trkpt lat="48.68056" lon="7.31263">
        <ele>467.763916</ele>
        <time>2010-06-26T15:16:36Z</time>
      </trkpt>
      <trkpt lat="48.68065" lon="7.31243">
        <ele>467.201416</ele>
        <time>2010-06-26T15:16:38Z</time>
      </trkpt>
      <trkpt lat="48.68074" lon="7.31221">
        <ele>466.138916</ele>
        <time>2010-06-26T15:16:40Z</time>
      </trkpt>
      <trkpt lat="48.68087" lon="7.31204">
        <ele>465.842041</ele>
        <time>2010-06-26T15:16:43Z</time>
      </trkpt>
      <trkpt lat="48.68097" lon="7.31189">
        <ele>466.217041</ele>
        <time>2010-06-26T15:16:47Z</time>
      </trkpt>
      <trkpt lat="48.68109" lon="7.31176">
        <ele>464.779541</ele>
        <time>2010-06-26T15:16:51Z</time>
      </trkpt>
      <trkpt lat="48.68123" lon="7.31164">
        <ele>463.560791</ele>
        <time>2010-06-26T15:16:55Z</time>
      </trkpt>
      <trkpt lat="48.68137" lon="7.31164">
        <ele>466.381104</ele>
        <time>2010-06-26T15:17:00Z</time>
      </trkpt>
      <trkpt lat="48.68149" lon="7.31171">
        <ele>474.701416</ele>
        <time>2010-06-26T15:18:39Z</time>
      </trkpt>
      <trkpt lat="48.68161" lon="7.31182">
        <ele>475.162354</ele>
        <time>2010-06-26T15:18:44Z</time>
      </trkpt>
      <trkpt lat="48.6817" lon="7.31199">
        <ele>476.427979</ele>
        <time>2010-06-26T15:18:48Z</time>
      </trkpt>
      <trkpt lat="48.68181" lon="7.31215">
        <ele>477.162354</ele>
        <time>2010-06-26T15:18:52Z</time>
      </trkpt>
      <trkpt lat="48.68191" lon="7.3123">
        <ele>474.568604</ele>
        <time>2010-06-26T15:18:55Z</time>
      </trkpt>
      <trkpt lat="48.682" lon="7.3125">
        <ele>472.412354</ele>
        <time>2010-06-26T15:18:58Z</time>
      </trkpt>
      <trkpt lat="48.68211" lon="7.31273">
        <ele>471.373291</ele>
        <time>2010-06-26T15:19:02Z</time>
      </trkpt>
      <trkpt lat="48.68219" lon="7.31292">
        <ele>471.037354</ele>
        <time>2010-06-26T15:19:05Z</time>
      </trkpt>
      <trkpt lat="48.68227" lon="7.31309">
        <ele>470.935791</ele>
        <time>2010-06-26T15:19:08Z</time>
      </trkpt>
      <trkpt lat="48.68237" lon="7.31325">
        <ele>471.826416</ele>
        <time>2010-06-26T15:19:12Z</time>
      </trkpt>
      <trkpt lat="48.68252" lon="7.31334">
        <ele>472.170166</ele>
        <time>2010-06-26T15:19:16Z</time>
      </trkpt>
      <trkpt lat="48.68264" lon="7.31345">
        <ele>470.959229</ele>
        <time>2010-06-26T15:19:19Z</time>
      </trkpt>
      <trkpt lat="48.68277" lon="7.31357">
        <ele>470.076416</ele>
        <time>2010-06-26T15:19:22Z</time>
      </trkpt>
      <trkpt lat="48.68291" lon="7.3137">
        <ele>470.771729</ele>
        <time>2010-06-26T15:19:26Z</time>
      </trkpt>
      <trkpt lat="48.68303" lon="7.31381">
        <ele>471.045166</ele>
        <time>2010-06-26T15:19:30Z</time>
      </trkpt>
      <trkpt lat="48.68317" lon="7.31392">
        <ele>471.326416</ele>
        <time>2010-06-26T15:19:34Z</time>
      </trkpt>
      <trkpt lat="48.68332" lon="7.31402">
        <ele>471.381104</ele>
        <time>2010-06-26T15:19:37Z</time>
      </trkpt>
      <trkpt lat="48.68344" lon="7.31419">
        <ele>472.006104</ele>
        <time>2010-06-26T15:19:40Z</time>
      </trkpt>
      <trkpt lat="48.68358" lon="7.31433">
        <ele>472.357666</ele>
        <time>2010-06-26T15:19:43Z</time>
      </trkpt>
      <trkpt lat="48.68373" lon="7.31448">
        <ele>471.459229</ele>
        <time>2010-06-26T15:19:46Z</time>
      </trkpt>
      <trkpt lat="48.68385" lon="7.3146">
        <ele>470.107666</ele>
        <time>2010-06-26T15:19:48Z</time>
      </trkpt>
      <trkpt lat="48.68398" lon="7.3147">
        <ele>469.865479</ele>
        <time>2010-06-26T15:19:50Z</time>
      </trkpt>
      <trkpt lat="48.6841" lon="7.31482">
        <ele>470.357666</ele>
        <time>2010-06-26T15:19:52Z</time>
      </trkpt>
      <trkpt lat="48.68423" lon="7.3149">
        <ele>471.060791</ele>
        <time>2010-06-26T15:19:54Z</time>
      </trkpt>
      <trkpt lat="48.68442" lon="7.31499">
        <ele>470.662354</ele>
        <time>2010-06-26T15:19:57Z</time>
      </trkpt>
      <trkpt lat="48.68456" lon="7.31514">
        <ele>469.373291</ele>
        <time>2010-06-26T15:20:00Z</time>
      </trkpt>
      <trkpt lat="48.68476" lon="7.31519">
        <ele>466.615479</ele>
        <time>2010-06-26T15:20:03Z</time>
      </trkpt>
      <trkpt lat="48.68491" lon="7.3152">
        <ele>467.154541</ele>
        <time>2010-06-26T15:20:06Z</time>
      </trkpt>
      <trkpt lat="48.68505" lon="7.31524">
        <ele>465.795166</ele>
        <time>2010-06-26T15:20:09Z</time>
      </trkpt>
      <trkpt lat="48.68523" lon="7.3153">
        <ele>463.592041</ele>
        <time>2010-06-26T15:20:12Z</time>
      </trkpt>
      <trkpt lat="48.68539" lon="7.31536">
        <ele>463.592041</ele>
        <time>2010-06-26T15:20:15Z</time>
      </trkpt>
      <trkpt lat="48.68555" lon="7.31542">
        <ele>461.451416</ele>
        <time>2010-06-26T15:20:18Z</time>
      </trkpt>
      <trkpt lat="48.68568" lon="7.31546">
        <ele>460.365479</ele>
        <time>2010-06-26T15:20:21Z</time>
      </trkpt>
      <trkpt lat="48.68583" lon="7.31553">
        <ele>459.802979</ele>
        <time>2010-06-26T15:20:24Z</time>
      </trkpt>
      <trkpt lat="48.68597" lon="7.3156">
        <ele>458.560791</ele>
        <time>2010-06-26T15:20:27Z</time>
      </trkpt>
      <trkpt lat="48.68613" lon="7.31564">
        <ele>458.873291</ele>
        <time>2010-06-26T15:20:30Z</time>
      </trkpt>
      <trkpt lat="48.6862" lon="7.31584">
        <ele>460.388916</ele>
        <time>2010-06-26T15:20:36Z</time>
      </trkpt>
      <trkpt lat="48.68623" lon="7.31605">
        <ele>460.990479</ele>
        <time>2010-06-26T15:20:39Z</time>
      </trkpt>
      <trkpt lat="48.68633" lon="7.31626">
        <ele>459.920166</ele>
        <time>2010-06-26T15:20:43Z</time>
      </trkpt>
      <trkpt lat="48.68638" lon="7.31645">
        <ele>460.217041</ele>
        <time>2010-06-26T15:20:48Z</time>
      </trkpt>
      <trkpt lat="48.68647" lon="7.31665">
        <ele>460.670166</ele>
        <time>2010-06-26T15:20:54Z</time>
      </trkpt>
      <trkpt lat="48.68658" lon="7.31675">
        <ele>462.459229</ele>
        <time>2010-06-26T15:21:30Z</time>
      </trkpt>
      <trkpt lat="48.68668" lon="7.31692">
        <ele>459.810791</ele>
        <time>2010-06-26T15:21:34Z</time>
      </trkpt>
      <trkpt lat="48.68675" lon="7.31718">
        <ele>458.662354</ele>
        <time>2010-06-26T15:21:38Z</time>
      </trkpt>
      <trkpt lat="48.68682" lon="7.3174">
        <ele>457.865479</ele>
        <time>2010-06-26T15:21:41Z</time>
      </trkpt>
      <trkpt lat="48.68686" lon="7.31768">
        <ele>456.068604</ele>
        <time>2010-06-26T15:21:44Z</time>
      </trkpt>
      <trkpt lat="48.68696" lon="7.31794">
        <ele>454.732666</ele>
        <time>2010-06-26T15:21:47Z</time>
      </trkpt>
      <trkpt lat="48.68708" lon="7.3182">
        <ele>453.193604</ele>
        <time>2010-06-26T15:21:50Z</time>
      </trkpt>
      <trkpt lat="48.68716" lon="7.31837">
        <ele>452.802979</ele>
        <time>2010-06-26T15:21:52Z</time>
      </trkpt>
      <trkpt lat="48.68725" lon="7.31863">
        <ele>451.599854</ele>
        <time>2010-06-26T15:21:55Z</time>
      </trkpt>
      <trkpt lat="48.68734" lon="7.31881">
        <ele>449.951416</ele>
        <time>2010-06-26T15:21:57Z</time>
      </trkpt>
      <trkpt lat="48.68746" lon="7.31899">
        <ele>448.459229</ele>
        <time>2010-06-26T15:21:59Z</time>
      </trkpt>
      <trkpt lat="48.68754" lon="7.31917">
        <ele>446.779541</ele>
        <time>2010-06-26T15:22:01Z</time>
      </trkpt>
      <trkpt lat="48.68762" lon="7.31935">
        <ele>444.560791</ele>
        <time>2010-06-26T15:22:03Z</time>
      </trkpt>
      <trkpt lat="48.68773" lon="7.31948">
        <ele>443.631104</ele>
        <time>2010-06-26T15:22:04Z</time>
      </trkpt>
      <trkpt lat="48.68782" lon="7.31965">
        <ele>442.224854</ele>
        <time>2010-06-26T15:22:06Z</time>
      </trkpt>
      <trkpt lat="48.688" lon="7.31983">
        <ele>440.013916</ele>
        <time>2010-06-26T15:22:09Z</time>
      </trkpt>
      <trkpt lat="48.68813" lon="7.32006">
        <ele>438.342041</ele>
        <time>2010-06-26T15:22:12Z</time>
      </trkpt>
      <trkpt lat="48.68827" lon="7.32025">
        <ele>436.974854</ele>
        <time>2010-06-26T15:22:14Z</time>
      </trkpt>
      <trkpt lat="48.68839" lon="7.32046">
        <ele>436.052979</ele>
        <time>2010-06-26T15:22:16Z</time>
      </trkpt>
      <trkpt lat="48.68849" lon="7.3206">
        <ele>434.271729</ele>
        <time>2010-06-26T15:22:18Z</time>
      </trkpt>
      <trkpt lat="48.68862" lon="7.32076">
        <ele>432.974854</ele>
        <time>2010-06-26T15:22:20Z</time>
      </trkpt>
      <trkpt lat="48.68878" lon="7.321">
        <ele>431.099854</ele>
        <time>2010-06-26T15:22:23Z</time>
      </trkpt>
      <trkpt lat="48.68889" lon="7.32118">
        <ele>432.279541</ele>
        <time>2010-06-26T15:22:25Z</time>
      </trkpt>
      <trkpt lat="48.68902" lon="7.32134">
        <ele>431.959229</ele>
        <time>2010-06-26T15:22:27Z</time>
      </trkpt>
      <trkpt lat="48.68912" lon="7.32147">
        <ele>431.568604</ele>
        <time>2010-06-26T15:22:29Z</time>
      </trkpt>
      <trkpt lat="48.68926" lon="7.32164">
        <ele>429.724854</ele>
        <time>2010-06-26T15:22:32Z</time>
      </trkpt>
      <trkpt lat="48.68937" lon="7.32177">
        <ele>429.670166</ele>
        <time>2010-06-26T15:22:34Z</time>
      </trkpt>
      <trkpt lat="48.68953" lon="7.32194">
        <ele>428.310791</ele>
        <time>2010-06-26T15:22:36Z</time>
      </trkpt>
      <trkpt lat="48.68966" lon="7.32208">
        <ele>427.084229</ele>
        <time>2010-06-26T15:22:38Z</time>
      </trkpt>
      <trkpt lat="48.68984" lon="7.32224">
        <ele>425.599854</ele>
        <time>2010-06-26T15:22:40Z</time>
      </trkpt>
      <trkpt lat="48.69003" lon="7.32239">
        <ele>422.521729</ele>
        <time>2010-06-26T15:22:43Z</time>
      </trkpt>
      <trkpt lat="48.69018" lon="7.32252">
        <ele>421.810791</ele>
        <time>2010-06-26T15:22:45Z</time>
      </trkpt>
      <trkpt lat="48.69034" lon="7.32269">
        <ele>420.912354</ele>
        <time>2010-06-26T15:22:48Z</time>
      </trkpt>
      <trkpt lat="48.6905" lon="7.32284">
        <ele>421.677979</ele>
        <time>2010-06-26T15:22:50Z</time>
      </trkpt>
      <trkpt lat="48.69061" lon="7.32296">
        <ele>422.209229</ele>
        <time>2010-06-26T15:22:51Z</time>
      </trkpt>
      <trkpt lat="48.69075" lon="7.32308">
        <ele>421.685791</ele>
        <time>2010-06-26T15:22:53Z</time>
      </trkpt>
      <trkpt lat="48.69087" lon="7.3232">
        <ele>421.537354</ele>
        <time>2010-06-26T15:22:55Z</time>
      </trkpt>
      <trkpt lat="48.69104" lon="7.32335">
        <ele>422.592041</ele>
        <time>2010-06-26T15:22:57Z</time>
      </trkpt>
      <trkpt lat="48.69122" lon="7.3235">
        <ele>420.724854</ele>
        <time>2010-06-26T15:22:59Z</time>
      </trkpt>
      <trkpt lat="48.69133" lon="7.32361">
        <ele>415.443604</ele>
        <time>2010-06-26T15:23:01Z</time>
      </trkpt>
      <trkpt lat="48.69148" lon="7.32376">
        <ele>415.560791</ele>
        <time>2010-06-26T15:23:03Z</time>
      </trkpt>
      <trkpt lat="48.69164" lon="7.32398">
        <ele>412.342041</ele>
        <time>2010-06-26T15:23:06Z</time>
      </trkpt>
      <trkpt lat="48.69175" lon="7.32413">
        <ele>412.310791</ele>
        <time>2010-06-26T15:23:08Z</time>
      </trkpt>
      <trkpt lat="48.69185" lon="7.32436">
        <ele>412.279541</ele>
        <time>2010-06-26T15:23:11Z</time>
      </trkpt>
      <trkpt lat="48.69195" lon="7.32457">
        <ele>410.717041</ele>
        <time>2010-06-26T15:23:14Z</time>
      </trkpt>
      <trkpt lat="48.69213" lon="7.32481">
        <ele>409.420166</ele>
        <time>2010-06-26T15:23:17Z</time>
      </trkpt>
      <trkpt lat="48.69223" lon="7.32497">
        <ele>407.896729</ele>
        <time>2010-06-26T15:23:19Z</time>
      </trkpt>
      <trkpt lat="48.69235" lon="7.32511">
        <ele>405.826416</ele>
        <time>2010-06-26T15:23:21Z</time>
      </trkpt>
      <trkpt lat="48.69247" lon="7.32527">
        <ele>404.365479</ele>
        <time>2010-06-26T15:23:23Z</time>
      </trkpt>
      <trkpt lat="48.69261" lon="7.32545">
        <ele>402.873291</ele>
        <time>2010-06-26T15:23:26Z</time>
      </trkpt>
      <trkpt lat="48.69273" lon="7.32561">
        <ele>401.076416</ele>
        <time>2010-06-26T15:23:29Z</time>
      </trkpt>
      <trkpt lat="48.69289" lon="7.32575">
        <ele>398.982666</ele>
        <time>2010-06-26T15:23:32Z</time>
      </trkpt>
      <trkpt lat="48.69306" lon="7.3259">
        <ele>396.318604</ele>
        <time>2010-06-26T15:23:35Z</time>
      </trkpt>
      <trkpt lat="48.6932" lon="7.32599">
        <ele>395.138916</ele>
        <time>2010-06-26T15:23:37Z</time>
      </trkpt>
      <trkpt lat="48.69335" lon="7.32605">
        <ele>393.888916</ele>
        <time>2010-06-26T15:23:39Z</time>
      </trkpt>
      <trkpt lat="48.6935" lon="7.32606">
        <ele>391.412354</ele>
        <time>2010-06-26T15:23:42Z</time>
      </trkpt>
      <trkpt lat="48.69366" lon="7.32605">
        <ele>388.810791</ele>
        <time>2010-06-26T15:23:45Z</time>
      </trkpt>
      <trkpt lat="48.69385" lon="7.32611">
        <ele>387.302979</ele>
        <time>2010-06-26T15:23:48Z</time>
      </trkpt>
      <trkpt lat="48.69402" lon="7.32615">
        <ele>388.420166</ele>
        <time>2010-06-26T15:23:51Z</time>
      </trkpt>
      <trkpt lat="48.69417" lon="7.32611">
        <ele>387.849854</ele>
        <time>2010-06-26T15:23:54Z</time>
      </trkpt>
      <trkpt lat="48.69435" lon="7.32607">
        <ele>385.912354</ele>
        <time>2010-06-26T15:23:57Z</time>
      </trkpt>
      <trkpt lat="48.69451" lon="7.32604">
        <ele>383.943604</ele>
        <time>2010-06-26T15:24:00Z</time>
      </trkpt>
      <trkpt lat="48.69466" lon="7.32609">
        <ele>383.592041</ele>
        <time>2010-06-26T15:24:05Z</time>
      </trkpt>
      <trkpt lat="48.69479" lon="7.32619">
        <ele>384.295166</ele>
        <time>2010-06-26T15:24:08Z</time>
      </trkpt>
      <trkpt lat="48.69494" lon="7.32621">
        <ele>381.451416</ele>
        <time>2010-06-26T15:24:12Z</time>
      </trkpt>
      <trkpt lat="48.6951" lon="7.32615">
        <ele>379.310791</ele>
        <time>2010-06-26T15:24:17Z</time>
      </trkpt>
      <trkpt lat="48.69526" lon="7.32615">
        <ele>378.201416</ele>
        <time>2010-06-26T15:24:20Z</time>
      </trkpt>
      <trkpt lat="48.6954" lon="7.32616">
        <ele>377.240479</ele>
        <time>2010-06-26T15:24:23Z</time>
      </trkpt>
      <trkpt lat="48.6956" lon="7.32628">
        <ele>381.060791</ele>
        <time>2010-06-26T15:24:26Z</time>
      </trkpt>
      <trkpt lat="48.69573" lon="7.3263">
        <ele>381.217041</ele>
        <time>2010-06-26T15:24:29Z</time>
      </trkpt>
      <trkpt lat="48.69588" lon="7.32629">
        <ele>377.974854</ele>
        <time>2010-06-26T15:24:34Z</time>
      </trkpt>
      <trkpt lat="48.69601" lon="7.32637">
        <ele>378.099854</ele>
        <time>2010-06-26T15:24:40Z</time>
      </trkpt>
      <trkpt lat="48.69617" lon="7.32643">
        <ele>377.568604</ele>
        <time>2010-06-26T15:25:30Z</time>
      </trkpt>
      <trkpt lat="48.69634" lon="7.32638">
        <ele>376.974854</ele>
        <time>2010-06-26T15:25:35Z</time>
      </trkpt>
      <trkpt lat="48.6965" lon="7.3264">
        <ele>378.310791</ele>
        <time>2010-06-26T15:25:40Z</time>
      </trkpt>
      <trkpt lat="48.69664" lon="7.32653">
        <ele>378.584229</ele>
        <time>2010-06-26T15:25:44Z</time>
      </trkpt>
      <trkpt lat="48.69669" lon="7.32672">
        <ele>380.842041</ele>
        <time>2010-06-26T15:25:49Z</time>
      </trkpt>
      <trkpt lat="48.6967" lon="7.32697">
        <ele>380.920166</ele>
        <time>2010-06-26T15:25:54Z</time>
      </trkpt>
      <trkpt lat="48.69674" lon="7.32718">
        <ele>381.037354</ele>
        <time>2010-06-26T15:25:58Z</time>
      </trkpt>
      <trkpt lat="48.69678" lon="7.32738">
        <ele>381.529541</ele>
        <time>2010-06-26T15:26:02Z</time>
      </trkpt>
      <trkpt lat="48.69685" lon="7.32759">
        <ele>382.420166</ele>
        <time>2010-06-26T15:26:06Z</time>
      </trkpt>
      <trkpt lat="48.69692" lon="7.32778">
        <ele>383.404541</ele>
        <time>2010-06-26T15:26:10Z</time>
      </trkpt>
      <trkpt lat="48.697" lon="7.32796">
        <ele>383.560791</ele>
        <time>2010-06-26T15:26:14Z</time>
      </trkpt>
      <trkpt lat="48.69709" lon="7.32814">
        <ele>385.787354</ele>
        <time>2010-06-26T15:26:18Z</time>
      </trkpt>
      <trkpt lat="48.69718" lon="7.32833">
        <ele>387.068604</ele>
        <time>2010-06-26T15:26:22Z</time>
      </trkpt>
      <trkpt lat="48.69727" lon="7.32849">
        <ele>389.982666</ele>
        <time>2010-06-26T15:26:27Z</time>
      </trkpt>
      <trkpt lat="48.69735" lon="7.32872">
        <ele>392.506104</ele>
        <time>2010-06-26T15:26:34Z</time>
      </trkpt>
      <trkpt lat="48.69739" lon="7.32894">
        <ele>392.982666</ele>
        <time>2010-06-26T15:26:38Z</time>
      </trkpt>
      <trkpt lat="48.69747" lon="7.32912">
        <ele>393.123291</ele>
        <time>2010-06-26T15:26:40Z</time>
      </trkpt>
      <trkpt lat="48.69753" lon="7.32934">
        <ele>393.084229</ele>
        <time>2010-06-26T15:26:43Z</time>
      </trkpt>
      <trkpt lat="48.69764" lon="7.3295">
        <ele>392.740479</ele>
        <time>2010-06-26T15:26:45Z</time>
      </trkpt>
      <trkpt lat="48.69774" lon="7.3297">
        <ele>392.162354</ele>
        <time>2010-06-26T15:26:48Z</time>
      </trkpt>
      <trkpt lat="48.69785" lon="7.32987">
        <ele>391.537354</ele>
        <time>2010-06-26T15:26:51Z</time>
      </trkpt>
      <trkpt lat="48.69796" lon="7.33003">
        <ele>391.967041</ele>
        <time>2010-06-26T15:26:54Z</time>
      </trkpt>
      <trkpt lat="48.69811" lon="7.33022">
        <ele>392.084229</ele>
        <time>2010-06-26T15:26:57Z</time>
      </trkpt>
      <trkpt lat="48.69828" lon="7.33042">
        <ele>391.631104</ele>
        <time>2010-06-26T15:27:00Z</time>
      </trkpt>
      <trkpt lat="48.69844" lon="7.33056">
        <ele>391.248291</ele>
        <time>2010-06-26T15:27:03Z</time>
      </trkpt>
      <trkpt lat="48.69864" lon="7.3307">
        <ele>390.959229</ele>
        <time>2010-06-26T15:27:06Z</time>
      </trkpt>
      <trkpt lat="48.69882" lon="7.33075">
        <ele>391.943604</ele>
        <time>2010-06-26T15:27:09Z</time>
      </trkpt>
      <trkpt lat="48.699" lon="7.33075">
        <ele>392.654541</ele>
        <time>2010-06-26T15:27:12Z</time>
      </trkpt>
      <trkpt lat="48.69918" lon="7.33078">
        <ele>391.576416</ele>
        <time>2010-06-26T15:27:15Z</time>
      </trkpt>
      <trkpt lat="48.69944" lon="7.33092">
        <ele>390.162354</ele>
        <time>2010-06-26T15:27:18Z</time>
      </trkpt>
      <trkpt lat="48.69964" lon="7.331">
        <ele>388.201416</ele>
        <time>2010-06-26T15:27:21Z</time>
      </trkpt>
      <trkpt lat="48.69977" lon="7.331">
        <ele>386.654541</ele>
        <time>2010-06-26T15:27:23Z</time>
      </trkpt>
      <trkpt lat="48.69994" lon="7.33105">
        <ele>383.670166</ele>
        <time>2010-06-26T15:27:26Z</time>
      </trkpt>
      <trkpt lat="48.7001" lon="7.33111">
        <ele>382.529541</ele>
        <time>2010-06-26T15:27:28Z</time>
      </trkpt>
      <trkpt lat="48.70024" lon="7.33117">
        <ele>381.263916</ele>
        <time>2010-06-26T15:27:30Z</time>
      </trkpt>
      <trkpt lat="48.70044" lon="7.33129">
        <ele>380.084229</ele>
        <time>2010-06-26T15:27:33Z</time>
      </trkpt>
      <trkpt lat="48.70062" lon="7.33132">
        <ele>378.459229</ele>
        <time>2010-06-26T15:27:36Z</time>
      </trkpt>
      <trkpt lat="48.70077" lon="7.33134">
        <ele>376.935791</ele>
        <time>2010-06-26T15:27:38Z</time>
      </trkpt>
      <trkpt lat="48.70096" lon="7.33132">
        <ele>374.599854</ele>
        <time>2010-06-26T15:27:41Z</time>
      </trkpt>
      <trkpt lat="48.70111" lon="7.33133">
        <ele>374.662354</ele>
        <time>2010-06-26T15:27:43Z</time>
      </trkpt>
      <trkpt lat="48.70126" lon="7.33135">
        <ele>371.615479</ele>
        <time>2010-06-26T15:27:45Z</time>
      </trkpt>
      <trkpt lat="48.70139" lon="7.33135">
        <ele>371.724854</ele>
        <time>2010-06-26T15:27:47Z</time>
      </trkpt>
      <trkpt lat="48.70152" lon="7.33126">
        <ele>370.732666</ele>
        <time>2010-06-26T15:27:50Z</time>
      </trkpt>
      <trkpt lat="48.70169" lon="7.33117">
        <ele>369.295166</ele>
        <time>2010-06-26T15:27:54Z</time>
      </trkpt>
      <trkpt lat="48.70187" lon="7.33114">
        <ele>368.927979</ele>
        <time>2010-06-26T15:27:59Z</time>
      </trkpt>
      <trkpt lat="48.70208" lon="7.33123">
        <ele>368.138916</ele>
        <time>2010-06-26T15:28:01Z</time>
      </trkpt>
      <trkpt lat="48.70229" lon="7.33125">
        <ele>367.084229</ele>
        <time>2010-06-26T15:28:03Z</time>
      </trkpt>
      <trkpt lat="48.70246" lon="7.33133">
        <ele>365.701416</ele>
        <time>2010-06-26T15:28:05Z</time>
      </trkpt>
      <trkpt lat="48.70263" lon="7.33128">
        <ele>364.943604</ele>
        <time>2010-06-26T15:28:08Z</time>
      </trkpt>
      <trkpt lat="48.70277" lon="7.33132">
        <ele>364.224854</ele>
        <time>2010-06-26T15:28:10Z</time>
      </trkpt>
      <trkpt lat="48.70295" lon="7.33136">
        <ele>364.271729</ele>
        <time>2010-06-26T15:28:12Z</time>
      </trkpt>
      <trkpt lat="48.70313" lon="7.33138">
        <ele>364.107666</ele>
        <time>2010-06-26T15:28:14Z</time>
      </trkpt>
      <trkpt lat="48.70333" lon="7.3314">
        <ele>360.185791</ele>
        <time>2010-06-26T15:28:16Z</time>
      </trkpt>
      <trkpt lat="48.70349" lon="7.33143">
        <ele>358.459229</ele>
        <time>2010-06-26T15:28:18Z</time>
      </trkpt>
      <trkpt lat="48.70365" lon="7.33156">
        <ele>356.474854</ele>
        <time>2010-06-26T15:28:20Z</time>
      </trkpt>
      <trkpt lat="48.70379" lon="7.33162">
        <ele>355.365479</ele>
        <time>2010-06-26T15:28:22Z</time>
      </trkpt>
      <trkpt lat="48.70396" lon="7.33171">
        <ele>355.857666</ele>
        <time>2010-06-26T15:28:25Z</time>
      </trkpt>
      <trkpt lat="48.70415" lon="7.33181">
        <ele>356.092041</ele>
        <time>2010-06-26T15:28:28Z</time>
      </trkpt>
      <trkpt lat="48.70432" lon="7.33191">
        <ele>354.662354</ele>
        <time>2010-06-26T15:28:31Z</time>
      </trkpt>
      <trkpt lat="48.70445" lon="7.33202">
        <ele>354.162354</ele>
        <time>2010-06-26T15:28:33Z</time>
      </trkpt>
      <trkpt lat="48.70458" lon="7.33206">
        <ele>353.849854</ele>
        <time>2010-06-26T15:28:35Z</time>
      </trkpt>
      <trkpt lat="48.70472" lon="7.33221">
        <ele>350.349854</ele>
        <time>2010-06-26T15:28:39Z</time>
      </trkpt>
      <trkpt lat="48.70487" lon="7.33234">
        <ele>348.935791</ele>
        <time>2010-06-26T15:28:42Z</time>
      </trkpt>
      <trkpt lat="48.70499" lon="7.33243">
        <ele>347.240479</ele>
        <time>2010-06-26T15:28:44Z</time>
      </trkpt>
      <trkpt lat="48.70514" lon="7.3325">
        <ele>345.826416</ele>
        <time>2010-06-26T15:28:47Z</time>
      </trkpt>
      <trkpt lat="48.7053" lon="7.33259">
        <ele>344.787354</ele>
        <time>2010-06-26T15:28:49Z</time>
      </trkpt>
      <trkpt lat="48.70544" lon="7.33272">
        <ele>343.349854</ele>
        <time>2010-06-26T15:28:51Z</time>
      </trkpt>
      <trkpt lat="48.70557" lon="7.33279">
        <ele>341.326416</ele>
        <time>2010-06-26T15:28:53Z</time>
      </trkpt>
      <trkpt lat="48.70572" lon="7.33288">
        <ele>337.818604</ele>
        <time>2010-06-26T15:28:57Z</time>
      </trkpt>
      <trkpt lat="48.70584" lon="7.33306">
        <ele>334.545166</ele>
        <time>2010-06-26T15:29:00Z</time>
      </trkpt>
      <trkpt lat="48.70594" lon="7.33329">
        <ele>333.334229</ele>
        <time>2010-06-26T15:29:03Z</time>
      </trkpt>
      <trkpt lat="48.7061" lon="7.3334">
        <ele>333.076416</ele>
        <time>2010-06-26T15:29:07Z</time>
      </trkpt>
      <trkpt lat="48.70626" lon="7.33348">
        <ele>335.232666</ele>
        <time>2010-06-26T15:29:10Z</time>
      </trkpt>
      <trkpt lat="48.70639" lon="7.33358">
        <ele>337.342041</ele>
        <time>2010-06-26T15:29:16Z</time>
      </trkpt>
      <trkpt lat="48.70651" lon="7.33368">
        <ele>334.802979</ele>
        <time>2010-06-26T15:29:23Z</time>
      </trkpt>
      <trkpt lat="48.70664" lon="7.3338">
        <ele>333.826416</ele>
        <time>2010-06-26T15:29:27Z</time>
      </trkpt>
      <trkpt lat="48.70673" lon="7.33395">
        <ele>330.693604</ele>
        <time>2010-06-26T15:29:32Z</time>
      </trkpt>
      <trkpt lat="48.70691" lon="7.33411">
        <ele>329.802979</ele>
        <time>2010-06-26T15:29:35Z</time>
      </trkpt>
      <trkpt lat="48.70707" lon="7.33428">
        <ele>327.357666</ele>
        <time>2010-06-26T15:29:39Z</time>
      </trkpt>
      <trkpt lat="48.70717" lon="7.33443">
        <ele>321.709229</ele>
        <time>2010-06-26T15:29:42Z</time>
      </trkpt>
      <trkpt lat="48.70723" lon="7.33474">
        <ele>325.131104</ele>
        <time>2010-06-26T15:29:45Z</time>
      </trkpt>
      <trkpt lat="48.70729" lon="7.33497">
        <ele>323.959229</ele>
        <time>2010-06-26T15:29:47Z</time>
      </trkpt>
      <trkpt lat="48.70739" lon="7.33515">
        <ele>323.209229</ele>
        <time>2010-06-26T15:29:49Z</time>
      </trkpt>
      <trkpt lat="48.70754" lon="7.33527">
        <ele>324.060791</ele>
        <time>2010-06-26T15:29:54Z</time>
      </trkpt>
      <trkpt lat="48.70765" lon="7.33539">
        <ele>326.459229</ele>
        <time>2010-06-26T15:30:32Z</time>
      </trkpt>
      <trkpt lat="48.70778" lon="7.33553">
        <ele>325.834229</ele>
        <time>2010-06-26T15:30:36Z</time>
      </trkpt>
      <trkpt lat="48.70794" lon="7.33565">
        <ele>326.677979</ele>
        <time>2010-06-26T15:30:40Z</time>
      </trkpt>
      <trkpt lat="48.70808" lon="7.33573">
        <ele>327.154541</ele>
        <time>2010-06-26T15:30:43Z</time>
      </trkpt>
      <trkpt lat="48.70825" lon="7.33579">
        <ele>327.826416</ele>
        <time>2010-06-26T15:30:47Z</time>
      </trkpt>
      <trkpt lat="48.70842" lon="7.33588">
        <ele>328.123291</ele>
        <time>2010-06-26T15:30:50Z</time>
      </trkpt>
      <trkpt lat="48.70862" lon="7.33604">
        <ele>326.342041</ele>
        <time>2010-06-26T15:30:53Z</time>
      </trkpt>
      <trkpt lat="48.70875" lon="7.33613">
        <ele>325.576416</ele>
        <time>2010-06-26T15:30:54Z</time>
      </trkpt>
      <trkpt lat="48.70892" lon="7.33618">
        <ele>324.287354</ele>
        <time>2010-06-26T15:30:56Z</time>
      </trkpt>
      <trkpt lat="48.7091" lon="7.33622">
        <ele>325.131104</ele>
        <time>2010-06-26T15:30:58Z</time>
      </trkpt>
      <trkpt lat="48.70927" lon="7.33627">
        <ele>324.295166</ele>
        <time>2010-06-26T15:31:00Z</time>
      </trkpt>
      <trkpt lat="48.70945" lon="7.33631">
        <ele>321.982666</ele>
        <time>2010-06-26T15:31:02Z</time>
      </trkpt>
      <trkpt lat="48.70961" lon="7.33631">
        <ele>320.388916</ele>
        <time>2010-06-26T15:31:04Z</time>
      </trkpt>
      <trkpt lat="48.7098" lon="7.33634">
        <ele>316.474854</ele>
        <time>2010-06-26T15:31:07Z</time>
      </trkpt>
      <trkpt lat="48.71" lon="7.33635">
        <ele>312.209229</ele>
        <time>2010-06-26T15:31:10Z</time>
      </trkpt>
      <trkpt lat="48.71015" lon="7.33639">
        <ele>309.599854</ele>
        <time>2010-06-26T15:31:13Z</time>
      </trkpt>
      <trkpt lat="48.71021" lon="7.33657">
        <ele>302.607666</ele>
        <time>2010-06-26T15:31:17Z</time>
      </trkpt>
      <trkpt lat="48.71024" lon="7.33681">
        <ele>298.045166</ele>
        <time>2010-06-26T15:31:21Z</time>
      </trkpt>
      <trkpt lat="48.71034" lon="7.33699">
        <ele>295.224854</ele>
        <time>2010-06-26T15:31:34Z</time>
      </trkpt>
      <trkpt lat="48.71049" lon="7.33709">
        <ele>295.834229</ele>
        <time>2010-06-26T15:31:39Z</time>
      </trkpt>
      <trkpt lat="48.71063" lon="7.33713">
        <ele>296.115479</ele>
        <time>2010-06-26T15:31:43Z</time>
      </trkpt>
      <trkpt lat="48.7108" lon="7.33717">
        <ele>296.123291</ele>
        <time>2010-06-26T15:31:48Z</time>
      </trkpt>
      <trkpt lat="48.71094" lon="7.3372">
        <ele>296.545166</ele>
        <time>2010-06-26T15:31:53Z</time>
      </trkpt>
      <trkpt lat="48.71109" lon="7.33717">
        <ele>296.802979</ele>
        <time>2010-06-26T15:32:01Z</time>
      </trkpt>
      <trkpt lat="48.71124" lon="7.33714">
        <ele>297.240479</ele>
        <time>2010-06-26T15:32:05Z</time>
      </trkpt>
      <trkpt lat="48.71137" lon="7.33713">
        <ele>297.123291</ele>
        <time>2010-06-26T15:32:09Z</time>
      </trkpt>
      <trkpt lat="48.71152" lon="7.33717">
        <ele>297.435791</ele>
        <time>2010-06-26T15:32:13Z</time>
      </trkpt>
      <trkpt lat="48.71166" lon="7.33719">
        <ele>298.631104</ele>
        <time>2010-06-26T15:32:18Z</time>
      </trkpt>
      <trkpt lat="48.7118" lon="7.33716">
        <ele>301.826416</ele>
        <time>2010-06-26T15:32:23Z</time>
      </trkpt>
      <trkpt lat="48.71194" lon="7.3371">
        <ele>301.724854</ele>
        <time>2010-06-26T15:32:28Z</time>
      </trkpt>
      <trkpt lat="48.71206" lon="7.33701">
        <ele>302.888916</ele>
        <time>2010-06-26T15:32:33Z</time>
      </trkpt>
      <trkpt lat="48.71219" lon="7.33692">
        <ele>304.013916</ele>
        <time>2010-06-26T15:32:38Z</time>
      </trkpt>
      <trkpt lat="48.71233" lon="7.33682">
        <ele>304.498291</ele>
        <time>2010-06-26T15:32:43Z</time>
      </trkpt>
      <trkpt lat="48.71246" lon="7.33673">
        <ele>305.576416</ele>
        <time>2010-06-26T15:32:49Z</time>
      </trkpt>
      <trkpt lat="48.7126" lon="7.33667">
        <ele>306.638916</ele>
        <time>2010-06-26T15:32:55Z</time>
      </trkpt>
      <trkpt lat="48.71274" lon="7.3366">
        <ele>307.623291</ele>
        <time>2010-06-26T15:33:01Z</time>
      </trkpt>
      <trkpt lat="48.71288" lon="7.33661">
        <ele>307.920166</ele>
        <time>2010-06-26T15:33:07Z</time>
      </trkpt>
      <trkpt lat="48.71302" lon="7.33669">
        <ele>308.506104</ele>
        <time>2010-06-26T15:33:12Z</time>
      </trkpt>
      <trkpt lat="48.71318" lon="7.33678">
        <ele>307.631104</ele>
        <time>2010-06-26T15:33:16Z</time>
      </trkpt>
      <trkpt lat="48.71334" lon="7.33683">
        <ele>307.013916</ele>
        <time>2010-06-26T15:33:19Z</time>
      </trkpt>
      <trkpt lat="48.71352" lon="7.33685">
        <ele>305.904541</ele>
        <time>2010-06-26T15:33:22Z</time>
      </trkpt>
      <trkpt lat="48.71368" lon="7.33695">
        <ele>304.420166</ele>
        <time>2010-06-26T15:33:24Z</time>
      </trkpt>
      <trkpt lat="48.71384" lon="7.33705">
        <ele>303.427979</ele>
        <time>2010-06-26T15:33:26Z</time>
      </trkpt>
      <trkpt lat="48.71404" lon="7.33721">
        <ele>302.045166</ele>
        <time>2010-06-26T15:33:28Z</time>
      </trkpt>
      <trkpt lat="48.71423" lon="7.33728">
        <ele>300.998291</ele>
        <time>2010-06-26T15:33:30Z</time>
      </trkpt>
      <trkpt lat="48.71444" lon="7.33731">
        <ele>300.638916</ele>
        <time>2010-06-26T15:33:32Z</time>
      </trkpt>
      <trkpt lat="48.7147" lon="7.33739">
        <ele>298.904541</ele>
        <time>2010-06-26T15:33:34Z</time>
      </trkpt>
      <trkpt lat="48.71492" lon="7.33744">
        <ele>296.849854</ele>
        <time>2010-06-26T15:33:36Z</time>
      </trkpt>
      <trkpt lat="48.71512" lon="7.33746">
        <ele>295.951416</ele>
        <time>2010-06-26T15:33:38Z</time>
      </trkpt>
      <trkpt lat="48.71531" lon="7.3375">
        <ele>294.982666</ele>
        <time>2010-06-26T15:33:40Z</time>
      </trkpt>
      <trkpt lat="48.71549" lon="7.33756">
        <ele>293.076416</ele>
        <time>2010-06-26T15:33:42Z</time>
      </trkpt>
      <trkpt lat="48.71566" lon="7.33763">
        <ele>292.185791</ele>
        <time>2010-06-26T15:33:44Z</time>
      </trkpt>
      <trkpt lat="48.71582" lon="7.3377">
        <ele>291.217041</ele>
        <time>2010-06-26T15:33:46Z</time>
      </trkpt>
      <trkpt lat="48.71599" lon="7.33775">
        <ele>290.779541</ele>
        <time>2010-06-26T15:33:48Z</time>
      </trkpt>
      <trkpt lat="48.71615" lon="7.33774">
        <ele>290.342041</ele>
        <time>2010-06-26T15:33:50Z</time>
      </trkpt>
      <trkpt lat="48.71632" lon="7.33769">
        <ele>289.084229</ele>
        <time>2010-06-26T15:33:52Z</time>
      </trkpt>
      <trkpt lat="48.71648" lon="7.33766">
        <ele>288.771729</ele>
        <time>2010-06-26T15:33:54Z</time>
      </trkpt>
      <trkpt lat="48.71664" lon="7.33769">
        <ele>287.826416</ele>
        <time>2010-06-26T15:33:57Z</time>
      </trkpt>
      <trkpt lat="48.71676" lon="7.33785">
        <ele>285.834229</ele>
        <time>2010-06-26T15:34:12Z</time>
      </trkpt>
      <trkpt lat="48.71692" lon="7.33792">
        <ele>285.029541</ele>
        <time>2010-06-26T15:34:17Z</time>
      </trkpt>
      <trkpt lat="48.71705" lon="7.33802">
        <ele>285.740479</ele>
        <time>2010-06-26T15:34:21Z</time>
      </trkpt>
      <trkpt lat="48.71717" lon="7.33815">
        <ele>285.529541</ele>
        <time>2010-06-26T15:34:25Z</time>
      </trkpt>
      <trkpt lat="48.71729" lon="7.33833">
        <ele>285.568604</ele>
        <time>2010-06-26T15:34:30Z</time>
      </trkpt>
      <trkpt lat="48.71739" lon="7.33849">
        <ele>285.552979</ele>
        <time>2010-06-26T15:34:34Z</time>
      </trkpt>
      <trkpt lat="48.7175" lon="7.33867">
        <ele>285.482666</ele>
        <time>2010-06-26T15:34:38Z</time>
      </trkpt>
      <trkpt lat="48.71762" lon="7.33886">
        <ele>286.084229</ele>
        <time>2010-06-26T15:34:42Z</time>
      </trkpt>
      <trkpt lat="48.71775" lon="7.33902">
        <ele>286.084229</ele>
        <time>2010-06-26T15:34:46Z</time>
      </trkpt>
      <trkpt lat="48.71789" lon="7.33915">
        <ele>286.623291</ele>
        <time>2010-06-26T15:34:50Z</time>
      </trkpt>
      <trkpt lat="48.71805" lon="7.33925">
        <ele>286.873291</ele>
        <time>2010-06-26T15:34:54Z</time>
      </trkpt>
      <trkpt lat="48.7182" lon="7.33935">
        <ele>287.373291</ele>
        <time>2010-06-26T15:34:58Z</time>
      </trkpt>
      <trkpt lat="48.71833" lon="7.33944">
        <ele>287.209229</ele>
        <time>2010-06-26T15:35:01Z</time>
      </trkpt>
      <trkpt lat="48.71845" lon="7.33951">
        <ele>287.092041</ele>
        <time>2010-06-26T15:35:04Z</time>
      </trkpt>
      <trkpt lat="48.71861" lon="7.33964">
        <ele>287.396729</ele>
        <time>2010-06-26T15:35:08Z</time>
      </trkpt>
      <trkpt lat="48.71872" lon="7.33977">
        <ele>287.287354</ele>
        <time>2010-06-26T15:35:11Z</time>
      </trkpt>
      <trkpt lat="48.71884" lon="7.33989">
        <ele>287.404541</ele>
        <time>2010-06-26T15:35:14Z</time>
      </trkpt>
      <trkpt lat="48.71899" lon="7.34005">
        <ele>287.138916</ele>
        <time>2010-06-26T15:35:18Z</time>
      </trkpt>
      <trkpt lat="48.7191" lon="7.34016">
        <ele>286.467041</ele>
        <time>2010-06-26T15:35:21Z</time>
      </trkpt>
      <trkpt lat="48.71923" lon="7.34029">
        <ele>286.060791</ele>
        <time>2010-06-26T15:35:24Z</time>
      </trkpt>
      <trkpt lat="48.71938" lon="7.3404">
        <ele>285.482666</ele>
        <time>2010-06-26T15:35:27Z</time>
      </trkpt>
      <trkpt lat="48.71954" lon="7.34053">
        <ele>284.904541</ele>
        <time>2010-06-26T15:35:30Z</time>
      </trkpt>
      <trkpt lat="48.71971" lon="7.34065">
        <ele>284.357666</ele>
        <time>2010-06-26T15:35:33Z</time>
      </trkpt>
      <trkpt lat="48.71989" lon="7.34078">
        <ele>283.693604</ele>
        <time>2010-06-26T15:35:36Z</time>
      </trkpt>
      <trkpt lat="48.72002" lon="7.34087">
        <ele>283.084229</ele>
        <time>2010-06-26T15:35:38Z</time>
      </trkpt>
      <trkpt lat="48.72015" lon="7.34098">
        <ele>282.427979</ele>
        <time>2010-06-26T15:35:40Z</time>
      </trkpt>
      <trkpt lat="48.72028" lon="7.34108">
        <ele>281.896729</ele>
        <time>2010-06-26T15:35:42Z</time>
      </trkpt>
      <trkpt lat="48.72041" lon="7.34119">
        <ele>281.381104</ele>
        <time>2010-06-26T15:35:44Z</time>
      </trkpt>
      <trkpt lat="48.72054" lon="7.34129">
        <ele>280.912354</ele>
        <time>2010-06-26T15:35:46Z</time>
      </trkpt>
      <trkpt lat="48.72066" lon="7.3414">
        <ele>280.701416</ele>
        <time>2010-06-26T15:35:48Z</time>
      </trkpt>
      <trkpt lat="48.72084" lon="7.34156">
        <ele>280.240479</ele>
        <time>2010-06-26T15:35:51Z</time>
      </trkpt>
      <trkpt lat="48.72096" lon="7.34166">
        <ele>280.013916</ele>
        <time>2010-06-26T15:35:53Z</time>
      </trkpt>
      <trkpt lat="48.72109" lon="7.34176">
        <ele>279.560791</ele>
        <time>2010-06-26T15:35:55Z</time>
      </trkpt>
      <trkpt lat="48.72121" lon="7.34186">
        <ele>279.099854</ele>
        <time>2010-06-26T15:35:57Z</time>
      </trkpt>
      <trkpt lat="48.72134" lon="7.34197">
        <ele>278.615479</ele>
        <time>2010-06-26T15:35:59Z</time>
      </trkpt>
      <trkpt lat="48.72147" lon="7.34208">
        <ele>278.240479</ele>
        <time>2010-06-26T15:36:01Z</time>
      </trkpt>
      <trkpt lat="48.72161" lon="7.34219">
        <ele>277.685791</ele>
        <time>2010-06-26T15:36:03Z</time>
      </trkpt>
      <trkpt lat="48.72176" lon="7.34231">
        <ele>277.232666</ele>
        <time>2010-06-26T15:36:05Z</time>
      </trkpt>
      <trkpt lat="48.72191" lon="7.34243">
        <ele>277.006104</ele>
        <time>2010-06-26T15:36:07Z</time>
      </trkpt>
      <trkpt lat="48.72205" lon="7.34254">
        <ele>276.662354</ele>
        <time>2010-06-26T15:36:09Z</time>
      </trkpt>
      <trkpt lat="48.7222" lon="7.34263">
        <ele>276.568604</ele>
        <time>2010-06-26T15:36:11Z</time>
      </trkpt>
      <trkpt lat="48.72234" lon="7.34272">
        <ele>276.576416</ele>
        <time>2010-06-26T15:36:13Z</time>
      </trkpt>
      <trkpt lat="48.72249" lon="7.34281">
        <ele>276.217041</ele>
        <time>2010-06-26T15:36:15Z</time>
      </trkpt>
      <trkpt lat="48.72262" lon="7.34288">
        <ele>275.802979</ele>
        <time>2010-06-26T15:36:17Z</time>
      </trkpt>
      <trkpt lat="48.72275" lon="7.34295">
        <ele>275.388916</ele>
        <time>2010-06-26T15:36:19Z</time>
      </trkpt>
      <trkpt lat="48.72289" lon="7.34303">
        <ele>275.045166</ele>
        <time>2010-06-26T15:36:21Z</time>
      </trkpt>
      <trkpt lat="48.72303" lon="7.34311">
        <ele>275.256104</ele>
        <time>2010-06-26T15:36:23Z</time>
      </trkpt>
      <trkpt lat="48.72315" lon="7.34319">
        <ele>275.498291</ele>
        <time>2010-06-26T15:36:25Z</time>
      </trkpt>
      <trkpt lat="48.72334" lon="7.34331">
        <ele>275.951416</ele>
        <time>2010-06-26T15:36:28Z</time>
      </trkpt>
      <trkpt lat="48.72352" lon="7.34344">
        <ele>276.201416</ele>
        <time>2010-06-26T15:36:31Z</time>
      </trkpt>
      <trkpt lat="48.72369" lon="7.34357">
        <ele>276.974854</ele>
        <time>2010-06-26T15:36:34Z</time>
      </trkpt>
      <trkpt lat="48.72381" lon="7.34366">
        <ele>278.084229</ele>
        <time>2010-06-26T15:36:36Z</time>
      </trkpt>
      <trkpt lat="48.72398" lon="7.34382">
        <ele>279.388916</ele>
        <time>2010-06-26T15:36:39Z</time>
      </trkpt>
      <trkpt lat="48.72416" lon="7.34396">
        <ele>281.076416</ele>
        <time>2010-06-26T15:36:42Z</time>
      </trkpt>
      <trkpt lat="48.72429" lon="7.34406">
        <ele>281.998291</ele>
        <time>2010-06-26T15:36:44Z</time>
      </trkpt>
      <trkpt lat="48.72444" lon="7.34419">
        <ele>279.904541</ele>
        <time>2010-06-26T15:36:46Z</time>
      </trkpt>
      <trkpt lat="48.72459" lon="7.34431">
        <ele>278.201416</ele>
        <time>2010-06-26T15:36:48Z</time>
      </trkpt>
      <trkpt lat="48.72474" lon="7.34443">
        <ele>277.373291</ele>
        <time>2010-06-26T15:36:50Z</time>
      </trkpt>
      <trkpt lat="48.72488" lon="7.34455">
        <ele>276.795166</ele>
        <time>2010-06-26T15:36:52Z</time>
      </trkpt>
      <trkpt lat="48.72504" lon="7.34468">
        <ele>275.779541</ele>
        <time>2010-06-26T15:36:54Z</time>
      </trkpt>
      <trkpt lat="48.7252" lon="7.34483">
        <ele>275.013916</ele>
        <time>2010-06-26T15:36:56Z</time>
      </trkpt>
      <trkpt lat="48.72537" lon="7.34498">
        <ele>274.068604</ele>
        <time>2010-06-26T15:36:58Z</time>
      </trkpt>
      <trkpt lat="48.72554" lon="7.34512">
        <ele>273.099854</ele>
        <time>2010-06-26T15:37:00Z</time>
      </trkpt>
      <trkpt lat="48.72572" lon="7.34526">
        <ele>272.740479</ele>
        <time>2010-06-26T15:37:02Z</time>
      </trkpt>
      <trkpt lat="48.72589" lon="7.3454">
        <ele>272.420166</ele>
        <time>2010-06-26T15:37:04Z</time>
      </trkpt>
      <trkpt lat="48.72607" lon="7.34553">
        <ele>272.107666</ele>
        <time>2010-06-26T15:37:06Z</time>
      </trkpt>
      <trkpt lat="48.72624" lon="7.34565">
        <ele>271.529541</ele>
        <time>2010-06-26T15:37:08Z</time>
      </trkpt>
      <trkpt lat="48.72641" lon="7.34578">
        <ele>271.076416</ele>
        <time>2010-06-26T15:37:10Z</time>
      </trkpt>
      <trkpt lat="48.72657" lon="7.3459">
        <ele>270.951416</ele>
        <time>2010-06-26T15:37:12Z</time>
      </trkpt>
      <trkpt lat="48.72673" lon="7.34601">
        <ele>270.842041</ele>
        <time>2010-06-26T15:37:14Z</time>
      </trkpt>
      <trkpt lat="48.72689" lon="7.34614">
        <ele>270.537354</ele>
        <time>2010-06-26T15:37:16Z</time>
      </trkpt>
      <trkpt lat="48.72705" lon="7.34626">
        <ele>269.959229</ele>
        <time>2010-06-26T15:37:18Z</time>
      </trkpt>
      <trkpt lat="48.7272" lon="7.34641">
        <ele>269.631104</ele>
        <time>2010-06-26T15:37:20Z</time>
      </trkpt>
      <trkpt lat="48.72735" lon="7.34656">
        <ele>269.552979</ele>
        <time>2010-06-26T15:37:22Z</time>
      </trkpt>
      <trkpt lat="48.7275" lon="7.34674">
        <ele>268.795166</ele>
        <time>2010-06-26T15:37:24Z</time>
      </trkpt>
      <trkpt lat="48.72763" lon="7.34693">
        <ele>267.974854</ele>
        <time>2010-06-26T15:37:26Z</time>
      </trkpt>
      <trkpt lat="48.72778" lon="7.34712">
        <ele>267.209229</ele>
        <time>2010-06-26T15:37:28Z</time>
      </trkpt>
      <trkpt lat="48.72792" lon="7.34731">
        <ele>266.084229</ele>
        <time>2010-06-26T15:37:30Z</time>
      </trkpt>
      <trkpt lat="48.72807" lon="7.34752">
        <ele>264.881104</ele>
        <time>2010-06-26T15:37:32Z</time>
      </trkpt>
      <trkpt lat="48.72822" lon="7.34774">
        <ele>263.795166</ele>
        <time>2010-06-26T15:37:34Z</time>
      </trkpt>
      <trkpt lat="48.72837" lon="7.34795">
        <ele>262.724854</ele>
        <time>2010-06-26T15:37:36Z</time>
      </trkpt>
      <trkpt lat="48.72853" lon="7.34816">
        <ele>261.763916</ele>
        <time>2010-06-26T15:37:38Z</time>
      </trkpt>
      <trkpt lat="48.72868" lon="7.34838">
        <ele>260.552979</ele>
        <time>2010-06-26T15:37:40Z</time>
      </trkpt>
      <trkpt lat="48.72884" lon="7.34857">
        <ele>260.037354</ele>
        <time>2010-06-26T15:37:42Z</time>
      </trkpt>
      <trkpt lat="48.72899" lon="7.34875">
        <ele>259.357666</ele>
        <time>2010-06-26T15:37:44Z</time>
      </trkpt>
      <trkpt lat="48.72915" lon="7.34891">
        <ele>259.115479</ele>
        <time>2010-06-26T15:37:46Z</time>
      </trkpt>
      <trkpt lat="48.72931" lon="7.34905">
        <ele>259.209229</ele>
        <time>2010-06-26T15:37:48Z</time>
      </trkpt>
      <trkpt lat="48.72948" lon="7.34919">
        <ele>258.967041</ele>
        <time>2010-06-26T15:37:50Z</time>
      </trkpt>
      <trkpt lat="48.72966" lon="7.34933">
        <ele>258.615479</ele>
        <time>2010-06-26T15:37:52Z</time>
      </trkpt>
      <trkpt lat="48.72983" lon="7.34946">
        <ele>257.740479</ele>
        <time>2010-06-26T15:37:54Z</time>
      </trkpt>
      <trkpt lat="48.73001" lon="7.3496">
        <ele>256.943604</ele>
        <time>2010-06-26T15:37:56Z</time>
      </trkpt>
      <trkpt lat="48.73018" lon="7.34973">
        <ele>256.107666</ele>
        <time>2010-06-26T15:37:58Z</time>
      </trkpt>
      <trkpt lat="48.73035" lon="7.34986">
        <ele>255.659302</ele>
        <time>2010-06-26T15:38:00Z</time>
      </trkpt>
      <trkpt lat="48.73052" lon="7.34999">
        <ele>254.963989</ele>
        <time>2010-06-26T15:38:02Z</time>
      </trkpt>
      <trkpt lat="48.7307" lon="7.35012">
        <ele>254.253052</ele>
        <time>2010-06-26T15:38:04Z</time>
      </trkpt>
      <trkpt lat="48.73088" lon="7.35026">
        <ele>253.413208</ele>
        <time>2010-06-26T15:38:06Z</time>
      </trkpt>
      <trkpt lat="48.73106" lon="7.35039">
        <ele>252.385864</ele>
        <time>2010-06-26T15:38:08Z</time>
      </trkpt>
      <trkpt lat="48.73123" lon="7.35053">
        <ele>251.370239</ele>
        <time>2010-06-26T15:38:10Z</time>
      </trkpt>
      <trkpt lat="48.7314" lon="7.35066">
        <ele>250.772583</ele>
        <time>2010-06-26T15:38:12Z</time>
      </trkpt>
      <trkpt lat="48.73155" lon="7.35079">
        <ele>249.624146</ele>
        <time>2010-06-26T15:38:14Z</time>
      </trkpt>
      <trkpt lat="48.73167" lon="7.3509">
        <ele>248.620239</ele>
        <time>2010-06-26T15:38:16Z</time>
      </trkpt>
      <trkpt lat="48.7318" lon="7.35103">
        <ele>247.549927</ele>
        <time>2010-06-26T15:38:19Z</time>
      </trkpt>
      <trkpt lat="48.73176" lon="7.35128">
        <ele>246.436646</ele>
        <time>2010-06-26T15:38:23Z</time>
      </trkpt>
      <trkpt lat="48.73167" lon="7.35154">
        <ele>245.803833</ele>
        <time>2010-06-26T15:38:26Z</time>
      </trkpt>
      <trkpt lat="48.73162" lon="7.35173">
        <ele>245.233521</ele>
        <time>2010-06-26T15:38:28Z</time>
      </trkpt>
      <trkpt lat="48.73153" lon="7.35194">
        <ele>244.526489</ele>
        <time>2010-06-26T15:38:31Z</time>
      </trkpt>
      <trkpt lat="48.7314" lon="7.35202">
        <ele>244.139771</ele>
        <time>2010-06-26T15:38:34Z</time>
      </trkpt>
      <trkpt lat="48.73135" lon="7.3522">
        <ele>243.647583</ele>
        <time>2010-06-26T15:38:41Z</time>
      </trkpt>
      <trkpt lat="48.73138" lon="7.35234">
        <ele>256.420166</ele>
        <time>2010-06-26T15:42:04Z</time>
      </trkpt>
    </trkseg>
  </trk>
</gpx>